Wetterdaten: Montag, 30.10.2017
Datum Zeit Temp. A. Pool Temp. Feuchte A. Luftdruck Regen Wind Richtung Richtung Sonnenschein ET UV Solar Taupunkt Windchill Windben Empfang
30.10.2017 00:00 5,8 C 8,9 C 82 % 1014,3 hPa 0,0 l/m 25,8 km/h (4 Bft) W-SW 239 0 min 0,000 mm 0,0 UV-I 0 W/m 3,0 C -4,1 C 45,1 km/h (6 Bft) 100,00 %
30.10.2017 00:02 5,8 C 8,9 C 81 % 1014,3 hPa 0,0 l/m 21,1 km/h (4 Bft) W 270 0 min 0,000 mm 0,0 UV-I 0 W/m 2,8 C -2,6 C 30,6 km/h (5 Bft) 100,00 %
30.10.2017 00:04 5,8 C 8,9 C 81 % 1014,3 hPa 0,0 l/m 23,0 km/h (4 Bft) W 272 0 min 0,000 mm 0,0 UV-I 0 W/m 2,8 C -3,2 C 35,4 km/h (5 Bft) 100,00 %
30.10.2017 00:06 5,8 C 8,9 C 80 % 1014,4 hPa 0,0 l/m 26,0 km/h (4 Bft) W 261 0 min 0,000 mm 0,0 UV-I 0 W/m 2,6 C -4,2 C 43,5 km/h (6 Bft) 100,00 %
30.10.2017 00:08 5,8 C 8,9 C 80 % 1014,3 hPa 0,0 l/m 26,1 km/h (4 Bft) W-SW 255 0 min 0,000 mm 0,0 UV-I 0 W/m 2,6 C -4,2 C 45,1 km/h (6 Bft) 97,73 %
30.10.2017 00:10 5,8 C 8,9 C 80 % 1014,4 hPa 0,0 l/m 18,1 km/h (3 Bft) W 265 0 min 0,000 mm 0,0 UV-I 0 W/m 2,6 C -1,4 C 32,2 km/h (5 Bft) 97,73 %
30.10.2017 00:12 5,8 C 8,9 C 80 % 1014,3 hPa 0,0 l/m 23,7 km/h (4 Bft) W-SW 250 0 min 0,000 mm 0,0 UV-I 0 W/m 2,6 C -3,4 C 40,2 km/h (6 Bft) 96,43 %
30.10.2017 00:14 5,8 C 8,9 C 80 % 1014,4 hPa 0,0 l/m 21,5 km/h (4 Bft) W-NW 293 0 min 0,000 mm 0,0 UV-I 0 W/m 2,6 C -2,7 C 30,6 km/h (5 Bft) 95,12 %
30.10.2017 00:16 5,8 C 8,9 C 80 % 1014,5 hPa 0,0 l/m 20,8 km/h (4 Bft) W 259 0 min 0,000 mm 0,0 UV-I 0 W/m 2,6 C -2,4 C 41,8 km/h (6 Bft) 98,00 %
30.10.2017 00:18 5,8 C 8,9 C 80 % 1014,5 hPa 0,0 l/m 25,3 km/h (4 Bft) SW 234 0 min 0,000 mm 0,0 UV-I 0 W/m 2,6 C -4,0 C 53,1 km/h (7 Bft) 94,74 %
30.10.2017 00:20 5,8 C 8,9 C 80 % 1014,4 hPa 0,0 l/m 23,7 km/h (4 Bft) W 281 0 min 0,000 mm 0,0 UV-I 0 W/m 2,6 C -3,4 C 40,2 km/h (6 Bft) 95,74 %
30.10.2017 00:22 5,8 C 8,9 C 79 % 1014,5 hPa 0,0 l/m 25,6 km/h (4 Bft) W-SW 254 0 min 0,000 mm 0,0 UV-I 0 W/m 2,4 C -4,0 C 37,0 km/h (5 Bft) 92,86 %
30.10.2017 00:24 5,8 C 8,9 C 80 % 1014,4 hPa 0,0 l/m 18,0 km/h (3 Bft) W-SW 256 0 min 0,000 mm 0,0 UV-I 0 W/m 2,6 C -1,3 C 27,4 km/h (4 Bft) 95,12 %
30.10.2017 00:26 5,7 C 8,9 C 79 % 1014,5 hPa 0,0 l/m 21,3 km/h (4 Bft) W 267 0 min 0,000 mm 0,0 UV-I 0 W/m 2,3 C -2,8 C 32,2 km/h (5 Bft) 96,23 %
30.10.2017 00:28 5,7 C 8,9 C 80 % 1014,5 hPa 0,0 l/m 15,3 km/h (3 Bft) W-NW 285 0 min 0,000 mm 0,0 UV-I 0 W/m 2,5 C -0,2 C 22,5 km/h (4 Bft) 97,56 %
30.10.2017 00:30 5,6 C 8,9 C 80 % 1014,4 hPa 0,0 l/m 19,5 km/h (3 Bft) W-SW 257 0 min 0,000 mm 0,0 UV-I 0 W/m 2,4 C -2,2 C 29,0 km/h (5 Bft) 95,45 %
30.10.2017 00:32 5,6 C 8,9 C 80 % 1014,5 hPa 0,0 l/m 17,7 km/h (3 Bft) W 268 0 min 0,000 mm 0,0 UV-I 0 W/m 2,4 C -1,5 C 29,0 km/h (5 Bft) 94,34 %
30.10.2017 00:34 5,6 C 8,9 C 80 % 1014,5 hPa 0,0 l/m 15,6 km/h (3 Bft) W 267 0 min 0,000 mm 0,0 UV-I 0 W/m 2,4 C -0,5 C 25,7 km/h (4 Bft) 95,12 %
30.10.2017 00:36 5,5 C 8,9 C 80 % 1014,5 hPa 0,0 l/m 17,8 km/h (3 Bft) W-SW 248 0 min 0,000 mm 0,0 UV-I 0 W/m 2,3 C -1,6 C 27,4 km/h (4 Bft) 97,62 %
30.10.2017 00:38 5,5 C 8,9 C 80 % 1014,5 hPa 0,0 l/m 20,7 km/h (4 Bft) W-NW 285 0 min 0,000 mm 0,0 UV-I 0 W/m 2,3 C -2,8 C 29,0 km/h (5 Bft) 94,83 %
30.10.2017 00:40 5,5 C 8,9 C 81 % 1014,5 hPa 0,0 l/m 18,3 km/h (3 Bft) W 275 0 min 0,000 mm 0,0 UV-I 0 W/m 2,5 C -1,8 C 29,0 km/h (5 Bft) 92,00 %
30.10.2017 00:42 5,5 C 8,9 C 81 % 1014,5 hPa 0,0 l/m 22,9 km/h (4 Bft) W 270 0 min 0,000 mm 0,0 UV-I 0 W/m 2,5 C -3,6 C 33,8 km/h (5 Bft) 97,44 %
30.10.2017 00:44 5,4 C 8,9 C 81 % 1014,5 hPa 0,0 l/m 17,0 km/h (3 Bft) W-SW 246 0 min 0,000 mm 0,0 UV-I 0 W/m 2,4 C -1,4 C 30,6 km/h (5 Bft) 95,45 %
30.10.2017 00:46 5,4 C 8,9 C 82 % 1014,5 hPa 0,0 l/m 23,3 km/h (4 Bft) W 279 0 min 0,000 mm 0,0 UV-I 0 W/m 2,6 C -3,9 C 32,2 km/h (5 Bft) 92,86 %
30.10.2017 00:48 5,4 C 8,9 C 82 % 1014,6 hPa 0,0 l/m 21,9 km/h (4 Bft) W 273 0 min 0,000 mm 0,0 UV-I 0 W/m 2,6 C -3,4 C 32,2 km/h (5 Bft) 94,74 %
30.10.2017 00:50 5,4 C 8,9 C 82 % 1014,6 hPa 0,0 l/m 23,6 km/h (4 Bft) W 264 0 min 0,000 mm 0,0 UV-I 0 W/m 2,6 C -4,0 C 33,8 km/h (5 Bft) 96,00 %
30.10.2017 00:52 5,4 C 8,9 C 82 % 1014,5 hPa 0,0 l/m 20,8 km/h (4 Bft) W 260 0 min 0,000 mm 0,0 UV-I 0 W/m 2,6 C -3,0 C 27,4 km/h (4 Bft) 97,87 %
30.10.2017 00:54 5,4 C 8,9 C 82 % 1014,5 hPa 0,0 l/m 19,6 km/h (3 Bft) W 267 0 min 0,000 mm 0,0 UV-I 0 W/m 2,6 C -2,5 C 29,0 km/h (5 Bft) 98,11 %
30.10.2017 00:56 5,4 C 8,9 C 83 % 1014,6 hPa 0,0 l/m 17,5 km/h (3 Bft) W 259 0 min 0,000 mm 0,0 UV-I 0 W/m 2,7 C -1,6 C 22,5 km/h (4 Bft) 95,12 %
30.10.2017 00:58 5,4 C 8,9 C 83 % 1014,6 hPa 0,0 l/m 15,9 km/h (3 Bft) W-SW 256 0 min 0,000 mm 0,0 UV-I 0 W/m 2,7 C -0,9 C 24,1 km/h (4 Bft) 97,73 %
30.10.2017 01:00 5,4 C 8,9 C 83 % 1014,6 hPa 0,0 l/m 19,5 km/h (3 Bft) W-SW 250 0 min 0,025 mm 0,0 UV-I 0 W/m 2,7 C -2,5 C 27,4 km/h (4 Bft) 98,21 %
30.10.2017 01:02 5,3 C 8,9 C 83 % 1014,7 hPa 0,0 l/m 15,7 km/h (3 Bft) W-NW 294 0 min 0,000 mm 0,0 UV-I 0 W/m 2,7 C -0,9 C 24,1 km/h (4 Bft) 94,74 %
30.10.2017 01:04 5,3 C 8,9 C 84 % 1014,7 hPa 0,0 l/m 22,7 km/h (4 Bft) W 265 0 min 0,000 mm 0,0 UV-I 0 W/m 2,8 C -3,8 C 32,2 km/h (5 Bft) 96,00 %
30.10.2017 01:06 5,3 C 8,9 C 84 % 1014,8 hPa 0,0 l/m 21,1 km/h (4 Bft) W 267 0 min 0,000 mm 0,0 UV-I 0 W/m 2,8 C -3,2 C 32,2 km/h (5 Bft) 97,87 %
30.10.2017 01:08 5,3 C 8,9 C 84 % 1014,8 hPa 0,0 l/m 22,1 km/h (4 Bft) SW 235 0 min 0,000 mm 0,0 UV-I 0 W/m 2,8 C -3,6 C 32,2 km/h (5 Bft) 98,11 %
30.10.2017 01:10 5,3 C 8,9 C 84 % 1014,9 hPa 0,0 l/m 22,0 km/h (4 Bft) W-SW 257 0 min 0,000 mm 0,0 UV-I 0 W/m 2,8 C -3,5 C 32,2 km/h (5 Bft) 97,37 %
30.10.2017 01:12 5,3 C 8,9 C 84 % 1014,9 hPa 0,0 l/m 21,8 km/h (4 Bft) W-SW 252 0 min 0,000 mm 0,0 UV-I 0 W/m 2,8 C -3,5 C 38,6 km/h (5 Bft) 92,86 %
30.10.2017 01:14 5,4 C 8,9 C 84 % 1014,8 hPa 0,0 l/m 19,8 km/h (3 Bft) SW 227 0 min 0,000 mm 0,0 UV-I 0 W/m 2,9 C -2,6 C 29,0 km/h (5 Bft) 95,12 %
30.10.2017 01:16 5,4 C 8,9 C 84 % 1014,9 hPa 0,0 l/m 19,7 km/h (3 Bft) W 263 0 min 0,000 mm 0,0 UV-I 0 W/m 2,9 C -2,5 C 30,6 km/h (5 Bft) 97,73 %
30.10.2017 01:18 5,4 C 8,9 C 84 % 1014,9 hPa 0,0 l/m 24,2 km/h (4 Bft) W-SW 239 0 min 0,000 mm 0,0 UV-I 0 W/m 2,9 C -4,1 C 35,4 km/h (5 Bft) 97,92 %
30.10.2017 01:20 5,4 C 8,9 C 84 % 1014,9 hPa 0,0 l/m 20,9 km/h (4 Bft) W-SW 252 0 min 0,000 mm 0,0 UV-I 0 W/m 2,9 C -3,0 C 29,0 km/h (5 Bft) 97,87 %
30.10.2017 01:22 5,4 C 8,9 C 84 % 1014,9 hPa 0,0 l/m 23,1 km/h (4 Bft) W-SW 256 0 min 0,000 mm 0,0 UV-I 0 W/m 2,9 C -3,8 C 37,0 km/h (5 Bft) 100,00 %
30.10.2017 01:24 5,4 C 8,9 C 83 % 1014,8 hPa 0,0 l/m 21,6 km/h (4 Bft) W-SW 244 0 min 0,000 mm 0,0 UV-I 0 W/m 2,7 C -3,3 C 32,2 km/h (5 Bft) 94,87 %
30.10.2017 01:26 5,5 C 8,9 C 83 % 1014,8 hPa 0,0 l/m 20,4 km/h (4 Bft) W-SW 241 0 min 0,000 mm 0,0 UV-I 0 W/m 2,8 C -2,7 C 30,6 km/h (5 Bft) 98,00 %
30.10.2017 01:28 5,5 C 8,9 C 83 % 1014,9 hPa 0,0 l/m 18,7 km/h (3 Bft) W-SW 254 0 min 0,000 mm 0,0 UV-I 0 W/m 2,8 C -2,0 C 25,7 km/h (4 Bft) 100,00 %
30.10.2017 01:30 5,6 C 8,9 C 83 % 1015,0 hPa 0,0 l/m 21,8 km/h (4 Bft) W 279 0 min 0,000 mm 0,0 UV-I 0 W/m 2,9 C -3,1 C 40,2 km/h (6 Bft) 98,00 %
30.10.2017 01:32 5,6 C 8,9 C 83 % 1014,9 hPa 0,0 l/m 15,9 km/h (3 Bft) W-SW 239 0 min 0,000 mm 0,0 UV-I 0 W/m 2,9 C -0,6 C 22,5 km/h (4 Bft) 94,74 %
30.10.2017 01:34 5,6 C 8,9 C 83 % 1015,0 hPa 0,0 l/m 18,9 km/h (3 Bft) W-SW 256 0 min 0,000 mm 0,0 UV-I 0 W/m 2,9 C -2,0 C 25,7 km/h (4 Bft) 100,00 %
30.10.2017 01:36 5,6 C 8,9 C 83 % 1015,0 hPa 0,0 l/m 20,3 km/h (4 Bft) W 278 0 min 0,000 mm 0,0 UV-I 0 W/m 2,9 C -2,5 C 30,6 km/h (5 Bft) 97,37 %
30.10.2017 01:38 5,7 C 8,9 C 83 % 1015,0 hPa 0,0 l/m 19,5 km/h (3 Bft) W-NW 298 0 min 0,000 mm 0,0 UV-I 0 W/m 3,0 C -2,1 C 30,6 km/h (5 Bft) 100,00 %
30.10.2017 01:40 5,7 C 8,9 C 83 % 1014,9 hPa 0,0 l/m 23,2 km/h (4 Bft) W 259 0 min 0,000 mm 0,0 UV-I 0 W/m 3,0 C -3,4 C 30,6 km/h (5 Bft) 98,31 %
30.10.2017 01:42 5,7 C 8,9 C 83 % 1015,0 hPa 0,0 l/m 19,0 km/h (3 Bft) W 265 0 min 0,000 mm 0,0 UV-I 0 W/m 3,0 C -1,9 C 30,6 km/h (5 Bft) 100,00 %
30.10.2017 01:44 5,7 C 8,9 C 82 % 1015,0 hPa 0,0 l/m 22,3 km/h (4 Bft) W-SW 245 0 min 0,000 mm 0,0 UV-I 0 W/m 2,9 C -3,1 C 33,8 km/h (5 Bft) 97,73 %
30.10.2017 01:46 5,7 C 8,9 C 82 % 1015,0 hPa 0,0 l/m 16,1 km/h (3 Bft) W-SW 252 0 min 0,000 mm 0,0 UV-I 0 W/m 2,9 C -0,6 C 25,7 km/h (4 Bft) 100,00 %
30.10.2017 01:48 5,7 C 8,9 C 82 % 1015,0 hPa 0,0 l/m 23,0 km/h (4 Bft) W-SW 252 0 min 0,000 mm 0,0 UV-I 0 W/m 2,9 C -3,3 C 38,6 km/h (5 Bft) 100,00 %
30.10.2017 01:50 5,7 C 8,9 C 82 % 1015,0 hPa 0,0 l/m 16,2 km/h (3 Bft) W-SW 240 0 min 0,000 mm 0,0 UV-I 0 W/m 2,9 C -0,7 C 25,7 km/h (4 Bft) 100,00 %
30.10.2017 01:52 5,8 C 8,9 C 82 % 1015,1 hPa 0,0 l/m 18,4 km/h (3 Bft) W-SW 246 0 min 0,000 mm 0,0 UV-I 0 W/m 3,0 C -1,5 C 27,4 km/h (4 Bft) 100,00 %
30.10.2017 01:54 5,8 C 8,9 C 82 % 1015,1 hPa 0,0 l/m 20,6 km/h (4 Bft) W 266 0 min 0,000 mm 0,0 UV-I 0 W/m 3,0 C -2,4 C 29,0 km/h (5 Bft) 100,00 %
30.10.2017 01:56 5,8 C 8,9 C 82 % 1015,1 hPa 0,0 l/m 20,9 km/h (4 Bft) W 271 0 min 0,000 mm 0,0 UV-I 0 W/m 3,0 C -2,5 C 35,4 km/h (5 Bft) 100,00 %
30.10.2017 01:58 5,8 C 8,9 C 81 % 1015,1 hPa 0,0 l/m 19,0 km/h (3 Bft) W 261 0 min 0,000 mm 0,0 UV-I 0 W/m 2,8 C -1,7 C 35,4 km/h (5 Bft) 100,00 %
30.10.2017 02:00 5,8 C 8,9 C 81 % 1015,1 hPa 0,0 l/m 17,2 km/h (3 Bft) W 271 0 min 0,026 mm 0,0 UV-I 0 W/m 2,8 C -1,0 C 38,6 km/h (5 Bft) 100,00 %
30.10.2017 02:02 5,8 C 8,9 C 81 % 1015,1 hPa 0,0 l/m 22,8 km/h (4 Bft) W 269 0 min 0,000 mm 0,0 UV-I 0 W/m 2,8 C -3,1 C 33,8 km/h (5 Bft) 100,00 %
30.10.2017 02:04 5,8 C 8,9 C 81 % 1015,1 hPa 0,0 l/m 16,5 km/h (3 Bft) W 263 0 min 0,000 mm 0,0 UV-I 0 W/m 2,8 C -0,7 C 24,1 km/h (4 Bft) 100,00 %
30.10.2017 02:06 5,8 C 8,9 C 81 % 1015,1 hPa 0,0 l/m 19,5 km/h (3 Bft) W 277 0 min 0,000 mm 0,0 UV-I 0 W/m 2,8 C -1,9 C 29,0 km/h (5 Bft) 100,00 %
30.10.2017 02:08 5,8 C 8,9 C 81 % 1015,2 hPa 0,0 l/m 21,9 km/h (4 Bft) W-SW 244 0 min 0,000 mm 0,0 UV-I 0 W/m 2,8 C -2,8 C 38,6 km/h (5 Bft) 100,00 %
30.10.2017 02:10 5,8 C 8,9 C 81 % 1015,2 hPa 0,0 l/m 21,3 km/h (4 Bft) W 271 0 min 0,000 mm 0,0 UV-I 0 W/m 2,8 C -2,6 C 35,4 km/h (5 Bft) 100,00 %
30.10.2017 02:12 5,8 C 8,9 C 81 % 1015,2 hPa 0,0 l/m 19,5 km/h (3 Bft) W-SW 250 0 min 0,000 mm 0,0 UV-I 0 W/m 2,8 C -1,9 C 25,7 km/h (4 Bft) 97,73 %
30.10.2017 02:14 5,8 C 8,9 C 81 % 1015,3 hPa 0,0 l/m 21,4 km/h (4 Bft) W-SW 258 0 min 0,000 mm 0,0 UV-I 0 W/m 2,8 C -2,7 C 32,2 km/h (5 Bft) 98,31 %
30.10.2017 02:16 5,8 C 8,9 C 81 % 1015,2 hPa 0,0 l/m 20,6 km/h (4 Bft) SW 236 0 min 0,000 mm 0,0 UV-I 0 W/m 2,8 C -2,4 C 27,4 km/h (4 Bft) 97,87 %
30.10.2017 02:19 5,7 C 8,9 C 81 % 1015,2 hPa 0,0 l/m 17,6 km/h (3 Bft) W-SW 256 0 min 0,000 mm 0,0 UV-I 0 W/m 2,7 C -1,3 C 30,6 km/h (5 Bft) 96,77 %
30.10.2017 02:20 5,7 C 8,9 C 81 % 1015,3 hPa 0,0 l/m 15,4 km/h (3 Bft) W-SW 251 0 min 0,000 mm 0,0 UV-I 0 W/m 2,7 C -0,3 C 20,9 km/h (4 Bft) 100,00 %
30.10.2017 02:22 5,7 C 8,9 C 81 % 1015,3 hPa 0,0 l/m 16,9 km/h (3 Bft) W-SW 237 0 min 0,000 mm 0,0 UV-I 0 W/m 2,7 C -1,0 C 35,4 km/h (5 Bft) 95,12 %
30.10.2017 02:24 5,7 C 8,9 C 81 % 1015,3 hPa 0,0 l/m 22,5 km/h (4 Bft) W-SW 238 0 min 0,000 mm 0,0 UV-I 0 W/m 2,7 C -3,2 C 33,8 km/h (5 Bft) 96,23 %
30.10.2017 02:26 5,7 C 8,9 C 82 % 1015,3 hPa 0,0 l/m 17,9 km/h (3 Bft) SW 231 0 min 0,000 mm 0,0 UV-I 0 W/m 2,9 C -1,4 C 30,6 km/h (5 Bft) 97,56 %
30.10.2017 02:28 5,7 C 8,9 C 82 % 1015,3 hPa 0,0 l/m 18,3 km/h (3 Bft) S-SW 212 0 min 0,000 mm 0,0 UV-I 0 W/m 2,9 C -1,6 C 29,0 km/h (5 Bft) 96,23 %
30.10.2017 02:30 5,7 C 8,9 C 82 % 1015,4 hPa 0,0 l/m 17,7 km/h (3 Bft) W-SW 248 0 min 0,000 mm 0,0 UV-I 0 W/m 2,9 C -1,3 C 24,1 km/h (4 Bft) 94,74 %
30.10.2017 02:32 5,7 C 8,9 C 82 % 1015,5 hPa 0,0 l/m 19,5 km/h (3 Bft) W 267 0 min 0,000 mm 0,0 UV-I 0 W/m 2,9 C -2,1 C 29,0 km/h (5 Bft) 98,00 %
30.10.2017 02:34 5,7 C 8,9 C 82 % 1015,5 hPa 0,0 l/m 17,2 km/h (3 Bft) W-SW 239 0 min 0,000 mm 0,0 UV-I 0 W/m 2,9 C -1,1 C 24,1 km/h (4 Bft) 97,44 %
30.10.2017 02:36 5,7 C 8,9 C 82 % 1015,5 hPa 0,0 l/m 14,5 km/h (3 Bft) W-SW 242 0 min 0,000 mm 0,0 UV-I 0 W/m 2,9 C 0,2 C 19,3 km/h (3 Bft) 98,18 %
30.10.2017 02:38 5,7 C 8,9 C 82 % 1015,5 hPa 0,0 l/m 14,1 km/h (3 Bft) W 262 0 min 0,000 mm 0,0 UV-I 0 W/m 2,9 C 0,4 C 20,9 km/h (4 Bft) 97,62 %
30.10.2017 02:40 5,7 C 8,9 C 82 % 1015,6 hPa 0,0 l/m 19,8 km/h (3 Bft) W 265 0 min 0,000 mm 0,0 UV-I 0 W/m 2,9 C -2,2 C 32,2 km/h (5 Bft) 97,56 %
30.10.2017 02:42 5,7 C 8,9 C 82 % 1015,6 hPa 0,0 l/m 16,1 km/h (3 Bft) W-NW 297 0 min 0,000 mm 0,0 UV-I 0 W/m 2,9 C -0,6 C 22,5 km/h (4 Bft) 98,11 %
30.10.2017 02:44 5,7 C 8,9 C 82 % 1015,6 hPa 0,0 l/m 21,7 km/h (4 Bft) W-SW 240 0 min 0,000 mm 0,0 UV-I 0 W/m 2,9 C -2,9 C 40,2 km/h (6 Bft) 96,23 %
30.10.2017 02:46 5,7 C 8,9 C 81 % 1015,6 hPa 0,0 l/m 18,3 km/h (3 Bft) W 263 0 min 0,000 mm 0,0 UV-I 0 W/m 2,7 C -1,6 C 30,6 km/h (5 Bft) 95,74 %
30.10.2017 02:48 5,7 C 8,9 C 81 % 1015,6 hPa 0,0 l/m 17,8 km/h (3 Bft) W 273 0 min 0,000 mm 0,0 UV-I 0 W/m 2,7 C -1,4 C 32,2 km/h (5 Bft) 100,00 %
30.10.2017 02:50 5,7 C 8,9 C 81 % 1015,6 hPa 0,0 l/m 20,4 km/h (4 Bft) W-SW 244 0 min 0,000 mm 0,0 UV-I 0 W/m 2,7 C -2,4 C 27,4 km/h (4 Bft) 100,00 %
30.10.2017 02:52 5,7 C 8,9 C 81 % 1015,6 hPa 0,0 l/m 18,0 km/h (3 Bft) W 262 0 min 0,000 mm 0,0 UV-I 0 W/m 2,7 C -1,5 C 27,4 km/h (4 Bft) 96,00 %
30.10.2017 02:54 5,7 C 8,9 C 81 % 1015,6 hPa 0,0 l/m 23,3 km/h (4 Bft) W-SW 252 0 min 0,000 mm 0,0 UV-I 0 W/m 2,7 C -3,4 C 30,6 km/h (5 Bft) 100,00 %
30.10.2017 02:56 5,7 C 8,9 C 81 % 1015,6 hPa 0,0 l/m 16,0 km/h (3 Bft) W-SW 253 0 min 0,000 mm 0,0 UV-I 0 W/m 2,7 C -0,6 C 20,9 km/h (4 Bft) 100,00 %
30.10.2017 02:58 5,7 C 8,9 C 81 % 1015,6 hPa 0,0 l/m 19,6 km/h (3 Bft) W-SW 244 0 min 0,000 mm 0,0 UV-I 0 W/m 2,7 C -2,1 C 32,2 km/h (5 Bft) 100,00 %
30.10.2017 03:00 5,6 C 8,9 C 80 % 1015,6 hPa 0,0 l/m 24,1 km/h (4 Bft) W 261 0 min 0,025 mm 0,0 UV-I 0 W/m 2,4 C -3,8 C 40,2 km/h (6 Bft) 97,37 %
30.10.2017 03:02 5,6 C 8,9 C 80 % 1015,6 hPa 0,0 l/m 20,0 km/h (4 Bft) W-NW 283 0 min 0,000 mm 0,0 UV-I 0 W/m 2,4 C -2,4 C 37,0 km/h (5 Bft) 100,00 %
30.10.2017 03:04 5,6 C 8,9 C 80 % 1015,6 hPa 0,0 l/m 19,7 km/h (3 Bft) W 265 0 min 0,000 mm 0,0 UV-I 0 W/m 2,4 C -2,3 C 27,4 km/h (4 Bft) 100,00 %
30.10.2017 03:06 5,6 C 8,9 C 80 % 1015,6 hPa 0,0 l/m 25,1 km/h (4 Bft) W-SW 250 0 min 0,000 mm 0,0 UV-I 0 W/m 2,4 C -4,2 C 43,5 km/h (6 Bft) 100,00 %
30.10.2017 03:08 5,6 C 8,9 C 80 % 1015,7 hPa 0,0 l/m 25,0 km/h (4 Bft) W-SW 245 0 min 0,000 mm 0,0 UV-I 0 W/m 2,4 C -4,1 C 40,2 km/h (6 Bft) 100,00 %
30.10.2017 03:10 5,6 C 8,9 C 80 % 1015,7 hPa 0,0 l/m 19,0 km/h (3 Bft) W 263 0 min 0,000 mm 0,0 UV-I 0 W/m 2,4 C -2,0 C 29,0 km/h (5 Bft) 100,00 %
30.10.2017 03:12 5,7 C 8,9 C 80 % 1015,7 hPa 0,0 l/m 24,1 km/h (4 Bft) W-SW 255 0 min 0,000 mm 0,0 UV-I 0 W/m 2,5 C -3,7 C 33,8 km/h (5 Bft) 100,00 %
30.10.2017 03:14 5,7 C 8,9 C 80 % 1015,8 hPa 0,0 l/m 21,8 km/h (4 Bft) W-SW 258 0 min 0,000 mm 0,0 UV-I 0 W/m 2,5 C -2,9 C 33,8 km/h (5 Bft) 98,28 %
30.10.2017 03:16 5,7 C 8,9 C 80 % 1015,8 hPa 0,0 l/m 19,3 km/h (3 Bft) W-SW 256 0 min 0,000 mm 0,0 UV-I 0 W/m 2,5 C -2,0 C 25,7 km/h (4 Bft) 100,00 %
30.10.2017 03:18 5,7 C 8,9 C 80 % 1015,8 hPa 0,0 l/m 18,7 km/h (3 Bft) W 260 0 min 0,000 mm 0,0 UV-I 0 W/m 2,5 C -1,8 C 27,4 km/h (4 Bft) 100,00 %
30.10.2017 03:20 5,6 C 8,9 C 80 % 1015,8 hPa 0,0 l/m 22,4 km/h (4 Bft) W 269 0 min 0,000 mm 0,0 UV-I 0 W/m 2,4 C -3,3 C 38,6 km/h (5 Bft) 100,00 %
30.10.2017 03:22 5,6 C 8,9 C 80 % 1015,8 hPa 0,0 l/m 20,4 km/h (4 Bft) W-SW 250 0 min 0,000 mm 0,0 UV-I 0 W/m 2,4 C -2,6 C 37,0 km/h (5 Bft) 100,00 %
30.10.2017 03:24 5,6 C 8,9 C 80 % 1015,9 hPa 0,0 l/m 16,9 km/h (3 Bft) W-SW 248 0 min 0,000 mm 0,0 UV-I 0 W/m 2,4 C -1,1 C 29,0 km/h (5 Bft) 97,73 %
30.10.2017 03:26 5,6 C 8,9 C 80 % 1015,8 hPa 0,0 l/m 25,0 km/h (4 Bft) SW 229 0 min 0,000 mm 0,0 UV-I 0 W/m 2,4 C -4,1 C 38,6 km/h (5 Bft) 96,23 %
30.10.2017 03:28 5,6 C 8,9 C 80 % 1015,9 hPa 0,0 l/m 23,1 km/h (4 Bft) W 261 0 min 0,000 mm 0,0 UV-I 0 W/m 2,4 C -3,5 C 37,0 km/h (5 Bft) 100,00 %
30.10.2017 03:30 5,6 C 8,9 C 80 % 1015,9 hPa 0,0 l/m 21,3 km/h (4 Bft) W-SW 256 0 min 0,000 mm 0,0 UV-I 0 W/m 2,4 C -2,9 C 32,2 km/h (5 Bft) 100,00 %
30.10.2017 03:32 5,6 C 8,9 C 80 % 1015,9 hPa 0,0 l/m 17,0 km/h (3 Bft) W 265 0 min 0,000 mm 0,0 UV-I 0 W/m 2,4 C -1,1 C 30,6 km/h (5 Bft) 100,00 %
30.10.2017 03:34 5,6 C 8,9 C 80 % 1016,0 hPa 0,0 l/m 15,7 km/h (3 Bft) W 271 0 min 0,000 mm 0,0 UV-I 0 W/m 2,4 C -0,5 C 27,4 km/h (4 Bft) 100,00 %
30.10.2017 03:36 5,6 C 8,9 C 80 % 1016,1 hPa 0,0 l/m 22,7 km/h (4 Bft) W 261 0 min 0,000 mm 0,0 UV-I 0 W/m 2,4 C -3,4 C 43,5 km/h (6 Bft) 100,00 %
30.10.2017 03:38 5,6 C 8,9 C 80 % 1016,1 hPa 0,0 l/m 20,8 km/h (4 Bft) W-NW 286 0 min 0,000 mm 0,0 UV-I 0 W/m 2,4 C -2,7 C 38,6 km/h (5 Bft) 100,00 %
30.10.2017 03:40 5,6 C 8,9 C 80 % 1016,1 hPa 0,0 l/m 20,0 km/h (4 Bft) W 262 0 min 0,000 mm 0,0 UV-I 0 W/m 2,4 C -2,4 C 48,3 km/h (6 Bft) 98,15 %
30.10.2017 03:42 5,6 C 8,9 C 80 % 1016,1 hPa 0,0 l/m 24,6 km/h (4 Bft) W-SW 238 0 min 0,000 mm 0,0 UV-I 0 W/m 2,4 C -4,0 C 45,1 km/h (6 Bft) 100,00 %
30.10.2017 03:44 5,6 C 8,9 C 80 % 1016,2 hPa 0,0 l/m 21,5 km/h (4 Bft) W 271 0 min 0,000 mm 0,0 UV-I 0 W/m 2,4 C -3,0 C 30,6 km/h (5 Bft) 100,00 %
30.10.2017 03:46 5,6 C 8,9 C 80 % 1016,3 hPa 0,0 l/m 20,7 km/h (4 Bft) W 263 0 min 0,000 mm 0,0 UV-I 0 W/m 2,4 C -2,7 C 27,4 km/h (4 Bft) 100,00 %
30.10.2017 03:48 5,6 C 8,9 C 81 % 1016,2 hPa 0,0 l/m 22,2 km/h (4 Bft) W-SW 256 0 min 0,000 mm 0,0 UV-I 0 W/m 2,6 C -3,2 C 37,0 km/h (5 Bft) 100,00 %
30.10.2017 03:50 5,6 C 8,9 C 81 % 1016,2 hPa 0,0 l/m 18,3 km/h (3 Bft) W 273 0 min 0,000 mm 0,0 UV-I 0 W/m 2,6 C -1,7 C 27,4 km/h (4 Bft) 100,00 %
30.10.2017 03:52 5,6 C 8,9 C 80 % 1016,3 hPa 0,0 l/m 21,8 km/h (4 Bft) W-SW 241 0 min 0,000 mm 0,0 UV-I 0 W/m 2,4 C -3,1 C 37,0 km/h (5 Bft) 100,00 %
30.10.2017 03:54 5,6 C 8,9 C 80 % 1016,3 hPa 0,0 l/m 19,5 km/h (3 Bft) W 270 0 min 0,000 mm 0,0 UV-I 0 W/m 2,4 C -2,2 C 29,0 km/h (5 Bft) 98,11 %
30.10.2017 03:56 5,6 C 8,9 C 80 % 1016,3 hPa 0,0 l/m 20,0 km/h (4 Bft) W 275 0 min 0,000 mm 0,0 UV-I 0 W/m 2,4 C -2,4 C 32,2 km/h (5 Bft) 97,73 %
30.10.2017 03:58 5,6 C 8,9 C 80 % 1016,4 hPa 0,0 l/m 17,4 km/h (3 Bft) W-SW 238 0 min 0,000 mm 0,0 UV-I 0 W/m 2,4 C -1,3 C 27,4 km/h (4 Bft) 100,00 %
30.10.2017 04:00 5,6 C 8,9 C 80 % 1016,3 hPa 0,0 l/m 21,6 km/h (4 Bft) W 260 0 min 0,051 mm 0,0 UV-I 0 W/m 2,4 C -3,0 C 29,0 km/h (5 Bft) 100,00 %
30.10.2017 04:02 5,6 C 8,9 C 80 % 1016,3 hPa 0,0 l/m 17,7 km/h (3 Bft) W 260 0 min 0,000 mm 0,0 UV-I 0 W/m 2,4 C -1,5 C 30,6 km/h (5 Bft) 100,00 %
30.10.2017 04:04 5,6 C 8,9 C 80 % 1016,4 hPa 0,0 l/m 20,5 km/h (4 Bft) W-SW 255 0 min 0,000 mm 0,0 UV-I 0 W/m 2,4 C -2,6 C 27,4 km/h (4 Bft) 97,56 %
30.10.2017 04:06 5,6 C 8,9 C 81 % 1016,5 hPa 0,0 l/m 14,8 km/h (3 Bft) W-SW 248 0 min 0,000 mm 0,0 UV-I 0 W/m 2,6 C -0,1 C 25,7 km/h (4 Bft) 100,00 %
30.10.2017 04:08 5,5 C 8,9 C 80 % 1016,5 hPa 0,0 l/m 17,8 km/h (3 Bft) W-SW 248 0 min 0,000 mm 0,0 UV-I 0 W/m 2,3 C -1,6 C 27,4 km/h (4 Bft) 100,00 %
30.10.2017 04:10 5,5 C 8,9 C 80 % 1016,5 hPa 0,0 l/m 15,2 km/h (3 Bft) W-SW 246 0 min 0,000 mm 0,0 UV-I 0 W/m 2,3 C -0,4 C 27,4 km/h (4 Bft) 95,12 %
30.10.2017 04:12 5,5 C 8,9 C 80 % 1016,5 hPa 0,0 l/m 12,3 km/h (3 Bft) W-SW 247 0 min 0,000 mm 0,0 UV-I 0 W/m 2,3 C 1,2 C 20,9 km/h (4 Bft) 100,00 %
30.10.2017 04:14 5,5 C 8,9 C 80 % 1016,5 hPa 0,0 l/m 21,2 km/h (4 Bft) W 267 0 min 0,000 mm 0,0 UV-I 0 W/m 2,3 C -3,0 C 33,8 km/h (5 Bft) 96,23 %
30.10.2017 04:16 5,5 C 8,9 C 80 % 1016,5 hPa 0,0 l/m 18,3 km/h (3 Bft) W-SW 246 0 min 0,000 mm 0,0 UV-I 0 W/m 2,3 C -1,8 C 29,0 km/h (5 Bft) 97,14 %
30.10.2017 04:18 5,4 C 8,9 C 80 % 1016,5 hPa 0,0 l/m 17,3 km/h (3 Bft) W-SW 251 0 min 0,000 mm 0,0 UV-I 0 W/m 2,2 C -1,5 C 33,8 km/h (5 Bft) 94,64 %
30.10.2017 04:20 5,4 C 8,9 C 80 % 1016,6 hPa 0,0 l/m 20,5 km/h (4 Bft) W-SW 247 0 min 0,000 mm 0,0 UV-I 0 W/m 2,2 C -2,8 C 30,6 km/h (5 Bft) 95,45 %
30.10.2017 04:22 5,4 C 8,9 C 80 % 1016,6 hPa 0,0 l/m 19,8 km/h (3 Bft) W-SW 250 0 min 0,000 mm 0,0 UV-I 0 W/m 2,2 C -2,6 C 33,8 km/h (5 Bft) 92,45 %
30.10.2017 04:24 5,4 C 8,9 C 80 % 1016,7 hPa 0,0 l/m 20,1 km/h (4 Bft) W-SW 254 0 min 0,000 mm 0,0 UV-I 0 W/m 2,2 C -2,7 C 33,8 km/h (5 Bft) 97,56 %
30.10.2017 04:26 5,4 C 8,9 C 80 % 1016,8 hPa 0,0 l/m 15,6 km/h (3 Bft) W-SW 258 0 min 0,000 mm 0,0 UV-I 0 W/m 2,2 C -0,7 C 22,5 km/h (4 Bft) 93,18 %
30.10.2017 04:28 5,4 C 8,9 C 80 % 1016,8 hPa 0,0 l/m 10,4 km/h (2 Bft) W 281 0 min 0,000 mm 0,0 UV-I 0 W/m 2,2 C 2,2 C 17,7 km/h (3 Bft) 96,00 %
30.10.2017 04:30 5,4 C 8,9 C 80 % 1016,8 hPa 0,0 l/m 14,1 km/h (3 Bft) W-SW 242 0 min 0,000 mm 0,0 UV-I 0 W/m 2,2 C 0,0 C 24,1 km/h (4 Bft) 95,12 %
30.10.2017 04:32 5,3 C 8,9 C 80 % 1016,9 hPa 0,0 l/m 14,5 km/h (3 Bft) W-SW 250 0 min 0,000 mm 0,0 UV-I 0 W/m 2,1 C -0,3 C 29,0 km/h (5 Bft) 96,43 %
30.10.2017 04:34 5,3 C 8,9 C 80 % 1016,7 hPa 0,0 l/m 14,1 km/h (3 Bft) W-SW 250 0 min 0,000 mm 0,0 UV-I 0 W/m 2,1 C -0,1 C 22,5 km/h (4 Bft) 95,12 %
30.10.2017 04:36 5,3 C 8,9 C 80 % 1016,8 hPa 0,0 l/m 15,5 km/h (3 Bft) SW 231 0 min 0,000 mm 0,0 UV-I 0 W/m 2,1 C -0,8 C 24,1 km/h (4 Bft) 92,45 %
30.10.2017 04:38 5,3 C 8,9 C 80 % 1016,8 hPa 0,0 l/m 14,9 km/h (3 Bft) SW 230 0 min 0,000 mm 0,0 UV-I 0 W/m 2,1 C -0,5 C 24,1 km/h (4 Bft) 95,00 %
30.10.2017 04:40 5,3 C 8,9 C 80 % 1016,8 hPa 0,0 l/m 16,8 km/h (3 Bft) W-SW 249 0 min 0,000 mm 0,0 UV-I 0 W/m 2,1 C -1,4 C 24,1 km/h (4 Bft) 94,55 %
30.10.2017 04:42 5,2 C 8,9 C 80 % 1016,8 hPa 0,0 l/m 13,6 km/h (3 Bft) W-SW 253 0 min 0,000 mm 0,0 UV-I 0 W/m 2,0 C 0,1 C 24,1 km/h (4 Bft) 91,67 %
30.10.2017 04:44 5,2 C 8,9 C 80 % 1016,8 hPa 0,0 l/m 18,6 km/h (3 Bft) W 263 0 min 0,000 mm 0,0 UV-I 0 W/m 2,0 C -2,3 C 27,4 km/h (4 Bft) 94,29 %
30.10.2017 04:46 5,2 C 8,9 C 80 % 1016,9 hPa 0,0 l/m 15,6 km/h (3 Bft) W-SW 251 0 min 0,000 mm 0,0 UV-I 0 W/m 2,0 C -1,0 C 29,0 km/h (5 Bft) 96,00 %
30.10.2017 04:48 5,2 C 8,9 C 80 % 1016,9 hPa 0,0 l/m 11,4 km/h (2 Bft) SW 233 0 min 0,000 mm 0,0 UV-I 0 W/m 2,0 C 1,4 C 17,7 km/h (3 Bft) 91,43 %
30.10.2017 04:50 5,1 C 8,9 C 80 % 1016,9 hPa 0,0 l/m 14,5 km/h (3 Bft) W-SW 254 0 min 0,000 mm 0,0 UV-I 0 W/m 1,9 C -0,5 C 22,5 km/h (4 Bft) 96,43 %
30.10.2017 04:52 5,1 C 8,9 C 80 % 1017,0 hPa 0,0 l/m 12,9 km/h (3 Bft) W-SW 250 0 min 0,000 mm 0,0 UV-I 0 W/m 1,9 C 0,3 C 20,9 km/h (4 Bft) 96,43 %
30.10.2017 04:54 5,1 C 8,9 C 80 % 1017,0 hPa 0,0 l/m 14,8 km/h (3 Bft) W 261 0 min 0,000 mm 0,0 UV-I 0 W/m 1,9 C -0,7 C 25,7 km/h (4 Bft) 91,30 %
30.10.2017 04:56 5,1 C 8,9 C 80 % 1017,0 hPa 0,0 l/m 15,3 km/h (3 Bft) SW 228 0 min 0,000 mm 0,0 UV-I 0 W/m 1,9 C -1,0 C 25,7 km/h (4 Bft) 97,06 %
30.10.2017 04:58 5,1 C 8,9 C 80 % 1016,9 hPa 0,0 l/m 17,8 km/h (3 Bft) W-NW 294 0 min 0,000 mm 0,0 UV-I 0 W/m 1,9 C -2,1 C 32,2 km/h (5 Bft) 93,62 %
30.10.2017 05:00 5,1 C 8,9 C 80 % 1017,0 hPa 0,0 l/m 17,2 km/h (3 Bft) W-SW 240 0 min 0,025 mm 0,0 UV-I 0 W/m 1,9 C -1,9 C 25,7 km/h (4 Bft) 95,74 %
30.10.2017 05:02 5,1 C 8,9 C 80 % 1017,0 hPa 0,0 l/m 15,6 km/h (3 Bft) W 259 0 min 0,000 mm 0,0 UV-I 0 W/m 1,9 C -1,1 C 20,9 km/h (4 Bft) 96,00 %
30.10.2017 05:04 5,1 C 8,9 C 80 % 1017,1 hPa 0,0 l/m 13,7 km/h (3 Bft) W 265 0 min 0,000 mm 0,0 UV-I 0 W/m 1,9 C -0,1 C 19,3 km/h (3 Bft) 95,12 %
30.10.2017 05:06 5,1 C 8,9 C 80 % 1017,1 hPa 0,0 l/m 13,2 km/h (3 Bft) W 261 0 min 0,000 mm 0,0 UV-I 0 W/m 1,9 C 0,2 C 22,5 km/h (4 Bft) 96,23 %
30.10.2017 05:08 5,1 C 8,9 C 80 % 1017,1 hPa 0,0 l/m 13,9 km/h (3 Bft) W-NW 290 0 min 0,000 mm 0,0 UV-I 0 W/m 1,9 C -0,2 C 24,1 km/h (4 Bft) 97,73 %
30.10.2017 05:10 5,1 C 8,9 C 80 % 1017,2 hPa 0,0 l/m 12,4 km/h (3 Bft) W-SW 254 0 min 0,000 mm 0,0 UV-I 0 W/m 1,9 C 0,6 C 19,3 km/h (3 Bft) 94,00 %
30.10.2017 05:12 5,1 C 8,9 C 80 % 1017,1 hPa 0,0 l/m 9,0 km/h (2 Bft) W 268 0 min 0,000 mm 0,0 UV-I 0 W/m 1,9 C 2,9 C 16,1 km/h (3 Bft) 97,22 %
30.10.2017 05:14 5,1 C 8,9 C 80 % 1017,1 hPa 0,0 l/m 12,5 km/h (3 Bft) W-SW 254 0 min 0,000 mm 0,0 UV-I 0 W/m 1,9 C 0,6 C 17,7 km/h (3 Bft) 97,96 %
30.10.2017 05:16 5,1 C 8,9 C 80 % 1017,1 hPa 0,0 l/m 10,9 km/h (2 Bft) S-SW 201 0 min 0,000 mm 0,0 UV-I 0 W/m 1,9 C 1,6 C 17,7 km/h (3 Bft) 97,22 %
30.10.2017 05:18 5,1 C 8,9 C 80 % 1017,1 hPa 0,0 l/m 15,2 km/h (3 Bft) S-SW 211 0 min 0,000 mm 0,0 UV-I 0 W/m 1,9 C -0,9 C 29,0 km/h (5 Bft) 98,44 %
30.10.2017 05:20 5,1 C 8,9 C 80 % 1017,1 hPa 0,0 l/m 14,4 km/h (3 Bft) W-SW 239 0 min 0,000 mm 0,0 UV-I 0 W/m 1,9 C -0,5 C 22,5 km/h (4 Bft) 97,44 %
30.10.2017 05:22 5,1 C 8,9 C 80 % 1017,1 hPa 0,0 l/m 15,9 km/h (3 Bft) SW 214 0 min 0,000 mm 0,0 UV-I 0 W/m 1,9 C -1,3 C 24,1 km/h (4 Bft) 100,00 %
30.10.2017 05:24 5,1 C 8,9 C 80 % 1017,0 hPa 0,0 l/m 14,5 km/h (3 Bft) W-SW 253 0 min 0,000 mm 0,0 UV-I 0 W/m 1,9 C -0,5 C 22,5 km/h (4 Bft) 100,00 %
30.10.2017 05:26 5,1 C 8,9 C 80 % 1017,1 hPa 0,0 l/m 16,1 km/h (3 Bft) W 267 0 min 0,000 mm 0,0 UV-I 0 W/m 1,9 C -1,3 C 24,1 km/h (4 Bft) 100,00 %
30.10.2017 05:28 5,1 C 8,9 C 80 % 1017,0 hPa 0,0 l/m 17,5 km/h (3 Bft) W 261 0 min 0,000 mm 0,0 UV-I 0 W/m 1,9 C -2,0 C 25,7 km/h (4 Bft) 100,00 %
30.10.2017 05:30 5,1 C 8,9 C 80 % 1017,1 hPa 0,0 l/m 22,4 km/h (4 Bft) W 270 0 min 0,000 mm 0,0 UV-I 0 W/m 1,9 C -3,9 C 38,6 km/h (5 Bft) 100,00 %
30.10.2017 05:32 5,1 C 8,9 C 80 % 1017,1 hPa 0,0 l/m 19,5 km/h (3 Bft) W 269 0 min 0,000 mm 0,0 UV-I 0 W/m 1,9 C -2,8 C 33,8 km/h (5 Bft) 100,00 %
30.10.2017 05:34 5,1 C 8,9 C 80 % 1017,1 hPa 0,0 l/m 17,1 km/h (3 Bft) SW 232 0 min 0,000 mm 0,0 UV-I 0 W/m 1,9 C -1,8 C 25,7 km/h (4 Bft) 100,00 %
30.10.2017 05:36 5,1 C 8,9 C 80 % 1017,1 hPa 0,0 l/m 15,9 km/h (3 Bft) W 259 0 min 0,000 mm 0,0 UV-I 0 W/m 1,9 C -1,3 C 24,1 km/h (4 Bft) 100,00 %
30.10.2017 05:38 5,1 C 8,9 C 81 % 1017,0 hPa 0,0 l/m 19,4 km/h (3 Bft) W-SW 250 0 min 0,000 mm 0,0 UV-I 0 W/m 2,1 C -2,8 C 27,4 km/h (4 Bft) 100,00 %
30.10.2017 05:40 5,1 C 8,9 C 81 % 1017,1 hPa 0,0 l/m 16,8 km/h (3 Bft) SW 236 0 min 0,000 mm 0,0 UV-I 0 W/m 2,1 C -1,7 C 22,5 km/h (4 Bft) 98,11 %
30.10.2017 05:42 5,1 C 8,9 C 81 % 1017,0 hPa 0,0 l/m 17,3 km/h (3 Bft) SW 229 0 min 0,000 mm 0,0 UV-I 0 W/m 2,1 C -1,9 C 27,4 km/h (4 Bft) 100,00 %
30.10.2017 05:44 5,1 C 8,9 C 81 % 1017,1 hPa 0,0 l/m 17,7 km/h (3 Bft) W-SW 238 0 min 0,000 mm 0,0 UV-I 0 W/m 2,1 C -2,1 C 29,0 km/h (5 Bft) 100,00 %
30.10.2017 05:46 5,1 C 8,9 C 81 % 1017,1 hPa 0,0 l/m 17,7 km/h (3 Bft) W-SW 250 0 min 0,000 mm 0,0 UV-I 0 W/m 2,1 C -2,1 C 27,4 km/h (4 Bft) 97,56 %
30.10.2017 05:48 5,1 C 8,9 C 81 % 1017,2 hPa 0,0 l/m 17,1 km/h (3 Bft) W 261 0 min 0,000 mm 0,0 UV-I 0 W/m 2,1 C -1,8 C 30,6 km/h (5 Bft) 100,00 %
30.10.2017 05:50 5,1 C 8,9 C 81 % 1017,2 hPa 0,0 l/m 19,8 km/h (3 Bft) W-SW 252 0 min 0,000 mm 0,0 UV-I 0 W/m 2,1 C -3,0 C 33,8 km/h (5 Bft) 100,00 %
30.10.2017 05:52 5,1 C 8,9 C 81 % 1017,2 hPa 0,0 l/m 19,0 km/h (3 Bft) SW 229 0 min 0,000 mm 0,0 UV-I 0 W/m 2,1 C -2,6 C 27,4 km/h (4 Bft) 97,87 %
30.10.2017 05:54 5,1 C 8,9 C 81 % 1017,2 hPa 0,0 l/m 17,7 km/h (3 Bft) W 267 0 min 0,000 mm 0,0 UV-I 0 W/m 2,1 C -2,1 C 25,7 km/h (4 Bft) 100,00 %
30.10.2017 05:56 5,1 C 8,9 C 82 % 1017,3 hPa 0,0 l/m 16,8 km/h (3 Bft) W-SW 237 0 min 0,000 mm 0,0 UV-I 0 W/m 2,3 C -1,7 C 27,4 km/h (4 Bft) 100,00 %
30.10.2017 05:58 5,1 C 8,9 C 82 % 1017,2 hPa 0,0 l/m 19,8 km/h (3 Bft) W 275 0 min 0,000 mm 0,0 UV-I 0 W/m 2,3 C -3,0 C 30,6 km/h (5 Bft) 100,00 %
30.10.2017 06:00 5,1 C 8,9 C 82 % 1017,2 hPa 0,0 l/m 18,3 km/h (3 Bft) W-SW 250 0 min 0,026 mm 0,0 UV-I 0 W/m 2,3 C -2,3 C 27,4 km/h (4 Bft) 100,00 %
30.10.2017 06:02 5,2 C 8,9 C 82 % 1017,3 hPa 0,0 l/m 17,1 km/h (3 Bft) W-SW 240 0 min 0,000 mm 0,0 UV-I 0 W/m 2,4 C -1,7 C 25,7 km/h (4 Bft) 100,00 %
30.10.2017 06:04 5,2 C 8,9 C 82 % 1017,2 hPa 0,0 l/m 16,1 km/h (3 Bft) W 263 0 min 0,000 mm 0,0 UV-I 0 W/m 2,4 C -1,2 C 22,5 km/h (4 Bft) 100,00 %
30.10.2017 06:06 5,2 C 8,9 C 82 % 1017,3 hPa 0,0 l/m 17,6 km/h (3 Bft) SW 223 0 min 0,000 mm 0,0 UV-I 0 W/m 2,4 C -1,9 C 24,1 km/h (4 Bft) 100,00 %
30.10.2017 06:08 5,2 C 8,9 C 82 % 1017,3 hPa 0,0 l/m 15,5 km/h (3 Bft) W 261 0 min 0,000 mm 0,0 UV-I 0 W/m 2,4 C -0,9 C 22,5 km/h (4 Bft) 100,00 %
30.10.2017 06:10 5,2 C 8,9 C 82 % 1017,2 hPa 0,0 l/m 13,6 km/h (3 Bft) W 271 0 min 0,000 mm 0,0 UV-I 0 W/m 2,4 C 0,1 C 17,7 km/h (3 Bft) 100,00 %
30.10.2017 06:12 5,2 C 8,9 C 82 % 1017,3 hPa 0,0 l/m 15,7 km/h (3 Bft) W-SW 258 0 min 0,000 mm 0,0 UV-I 0 W/m 2,4 C -1,0 C 27,4 km/h (4 Bft) 97,87 %
30.10.2017 06:14 5,2 C 8,9 C 82 % 1017,3 hPa 0,0 l/m 14,4 km/h (3 Bft) W-SW 256 0 min 0,000 mm 0,0 UV-I 0 W/m 2,4 C -0,4 C 20,9 km/h (4 Bft) 100,00 %
30.10.2017 06:16 5,3 C 8,9 C 82 % 1017,3 hPa 0,0 l/m 15,4 km/h (3 Bft) W-SW 238 0 min 0,000 mm 0,0 UV-I 0 W/m 2,5 C -0,8 C 25,7 km/h (4 Bft) 100,00 %
30.10.2017 06:18 5,3 C 8,9 C 82 % 1017,3 hPa 0,0 l/m 20,1 km/h (4 Bft) W-NW 284 0 min 0,000 mm 0,0 UV-I 0 W/m 2,5 C -2,8 C 29,0 km/h (5 Bft) 100,00 %
30.10.2017 06:20 5,3 C 8,9 C 82 % 1017,4 hPa 0,0 l/m 23,9 km/h (4 Bft) W 267 0 min 0,000 mm 0,0 UV-I 0 W/m 2,5 C -4,2 C 40,2 km/h (6 Bft) 100,00 %
30.10.2017 06:22 5,3 C 8,9 C 82 % 1017,4 hPa 0,0 l/m 20,9 km/h (4 Bft) W 273 0 min 0,000 mm 0,0 UV-I 0 W/m 2,5 C -3,1 C 32,2 km/h (5 Bft) 98,00 %
30.10.2017 06:24 5,4 C 8,9 C 81 % 1017,3 hPa 0,0 l/m 20,4 km/h (4 Bft) W 268 0 min 0,000 mm 0,0 UV-I 0 W/m 2,4 C -2,8 C 32,2 km/h (5 Bft) 95,74 %
30.10.2017 06:26 5,4 C 8,9 C 81 % 1017,4 hPa 0,0 l/m 27,7 km/h (4 Bft) W-SW 257 0 min 0,000 mm 0,0 UV-I 0 W/m 2,4 C -5,2 C 37,0 km/h (5 Bft) 95,45 %
30.10.2017 06:28 5,4 C 8,9 C 81 % 1017,4 hPa 0,0 l/m 19,1 km/h (3 Bft) W 265 0 min 0,000 mm 0,0 UV-I 0 W/m 2,4 C -2,3 C 35,4 km/h (5 Bft) 98,00 %
30.10.2017 06:30 5,5 C 8,9 C 81 % 1017,5 hPa 0,0 l/m 19,4 km/h (3 Bft) W 262 0 min 0,000 mm 0,0 UV-I 0 W/m 2,5 C -2,3 C 27,4 km/h (4 Bft) 97,56 %
30.10.2017 06:32 5,5 C 8,9 C 81 % 1017,5 hPa 0,0 l/m 16,3 km/h (3 Bft) W 268 0 min 0,000 mm 0,0 UV-I 0 W/m 2,5 C -0,9 C 22,5 km/h (4 Bft) 97,62 %
30.10.2017 06:34 5,5 C 8,9 C 81 % 1017,5 hPa 0,0 l/m 17,2 km/h (3 Bft) W-SW 244 0 min 0,000 mm 0,0 UV-I 0 W/m 2,5 C -1,4 C 25,7 km/h (4 Bft) 98,18 %
30.10.2017 06:36 5,5 C 8,9 C 81 % 1017,5 hPa 0,0 l/m 15,0 km/h (3 Bft) W-SW 247 0 min 0,000 mm 0,0 UV-I 0 W/m 2,5 C -0,3 C 22,5 km/h (4 Bft) 97,78 %
30.10.2017 06:38 5,5 C 8,9 C 81 % 1017,6 hPa 0,0 l/m 20,0 km/h (4 Bft) W-SW 248 0 min 0,000 mm 0,0 UV-I 0 W/m 2,5 C -2,5 C 29,0 km/h (5 Bft) 97,56 %
30.10.2017 06:40 5,5 C 8,9 C 81 % 1017,6 hPa 0,0 l/m 18,9 km/h (3 Bft) W 267 0 min 0,000 mm 0,0 UV-I 0 W/m 2,5 C -2,1 C 30,6 km/h (5 Bft) 94,00 %
30.10.2017 06:42 5,6 C 8,9 C 81 % 1017,8 hPa 0,0 l/m 22,0 km/h (4 Bft) W-SW 254 0 min 0,000 mm 0,0 UV-I 0 W/m 2,6 C -3,1 C 32,2 km/h (5 Bft) 93,62 %
30.10.2017 06:44 5,5 C 8,9 C 82 % 1017,7 hPa 0,0 l/m 14,5 km/h (3 Bft) W 259 0 min 0,000 mm 0,0 UV-I 0 W/m 2,7 C -0,1 C 20,9 km/h (4 Bft) 94,00 %
30.10.2017 06:46 5,5 C 8,9 C 83 % 1017,7 hPa 0,0 l/m 15,5 km/h (3 Bft) W 259 0 min 0,000 mm 0,0 UV-I 2 W/m 2,8 C -0,6 C 25,7 km/h (4 Bft) 95,12 %
30.10.2017 06:48 5,4 C 8,9 C 84 % 1017,7 hPa 0,0 l/m 20,8 km/h (4 Bft) W-SW 253 0 min 0,000 mm 0,0 UV-I 5 W/m 2,9 C -3,0 C 40,2 km/h (6 Bft) 98,21 %
30.10.2017 06:50 5,4 C 8,9 C 84 % 1017,6 hPa 0,0 l/m 22,5 km/h (4 Bft) W 266 0 min 0,000 mm 0,0 UV-I 5 W/m 2,9 C -3,6 C 30,6 km/h (5 Bft) 97,37 %
30.10.2017 06:52 5,3 C 8,9 C 84 % 1017,7 hPa 0,0 l/m 23,1 km/h (4 Bft) W-SW 252 0 min 0,000 mm 0,0 UV-I 5 W/m 2,8 C -3,9 C 37,0 km/h (5 Bft) 97,56 %
30.10.2017 06:54 5,3 C 8,9 C 84 % 1017,6 hPa 0,0 l/m 18,1 km/h (3 Bft) SW 228 0 min 0,000 mm 0,0 UV-I 6 W/m 2,8 C -2,0 C 40,2 km/h (6 Bft) 96,23 %
30.10.2017 06:56 5,3 C 8,9 C 84 % 1017,7 hPa 0,0 l/m 27,2 km/h (4 Bft) W-NW 284 0 min 0,000 mm 0,0 UV-I 7 W/m 2,8 C -5,2 C 41,8 km/h (6 Bft) 98,00 %
30.10.2017 06:58 5,2 C 8,9 C 84 % 1017,7 hPa 0,0 l/m 19,7 km/h (3 Bft) W 267 0 min 0,000 mm 0,0 UV-I 9 W/m 2,7 C -2,8 C 35,4 km/h (5 Bft) 97,87 %
30.10.2017 07:00 5,3 C 8,9 C 84 % 1017,8 hPa 0,0 l/m 16,7 km/h (3 Bft) W 260 0 min 0,025 mm 0,0 UV-I 9 W/m 2,8 C -1,4 C 22,5 km/h (4 Bft) 91,67 %
30.10.2017 07:02 5,2 C 8,9 C 84 % 1017,8 hPa 0,0 l/m 18,9 km/h (3 Bft) W 271 0 min 0,000 mm 0,0 UV-I 9 W/m 2,7 C -2,5 C 30,6 km/h (5 Bft) 98,68 %
30.10.2017 07:04 5,2 C 8,9 C 84 % 1017,9 hPa 0,0 l/m 16,7 km/h (3 Bft) W-NW 290 0 min 0,000 mm 0,0 UV-I 11 W/m 2,7 C -1,5 C 25,7 km/h (4 Bft) 98,00 %
30.10.2017 07:06 5,2 C 8,9 C 84 % 1017,9 hPa 0,0 l/m 17,5 km/h (3 Bft) W-SW 253 0 min 0,000 mm 0,0 UV-I 11 W/m 2,7 C -1,9 C 25,7 km/h (4 Bft) 100,00 %
30.10.2017 07:08 5,2 C 8,9 C 84 % 1017,9 hPa 0,0 l/m 17,3 km/h (3 Bft) W-NW 283 0 min 0,000 mm 0,0 UV-I 11 W/m 2,7 C -1,8 C 24,1 km/h (4 Bft) 100,00 %
30.10.2017 07:10 5,3 C 8,9 C 84 % 1018,0 hPa 0,0 l/m 14,6 km/h (3 Bft) W 264 0 min 0,000 mm 0,0 UV-I 11 W/m 2,8 C -0,4 C 24,1 km/h (4 Bft) 100,00 %
30.10.2017 07:12 5,3 C 8,9 C 84 % 1018,2 hPa 0,0 l/m 19,2 km/h (3 Bft) W-SW 245 0 min 0,000 mm 0,0 UV-I 11 W/m 2,8 C -2,5 C 30,6 km/h (5 Bft) 98,00 %
30.10.2017 07:14 5,3 C 8,9 C 84 % 1018,1 hPa 0,0 l/m 23,3 km/h (4 Bft) W-SW 257 0 min 0,000 mm 0,0 UV-I 11 W/m 2,8 C -4,0 C 32,2 km/h (5 Bft) 100,00 %
30.10.2017 07:16 5,3 C 8,9 C 83 % 1018,1 hPa 0,0 l/m 20,8 km/h (4 Bft) W 267 0 min 0,000 mm 0,0 UV-I 13 W/m 2,7 C -3,1 C 29,0 km/h (5 Bft) 100,00 %
30.10.2017 07:18 5,3 C 8,9 C 83 % 1018,2 hPa 0,0 l/m 16,3 km/h (3 Bft) W-NW 290 0 min 0,000 mm 0,0 UV-I 13 W/m 2,7 C -1,2 C 20,9 km/h (4 Bft) 97,44 %
30.10.2017 07:20 5,3 C 8,9 C 83 % 1018,1 hPa 0,0 l/m 16,1 km/h (3 Bft) W-SW 247 0 min 0,000 mm 0,0 UV-I 13 W/m 2,7 C -1,1 C 25,7 km/h (4 Bft) 100,00 %
30.10.2017 07:22 5,4 C 8,9 C 83 % 1018,2 hPa 0,0 l/m 18,4 km/h (3 Bft) W-NW 294 0 min 0,000 mm 0,0 UV-I 12 W/m 2,7 C -2,0 C 30,6 km/h (5 Bft) 98,21 %
30.10.2017 07:24 5,4 C 8,9 C 83 % 1018,5 hPa 0,0 l/m 20,5 km/h (4 Bft) W 278 0 min 0,000 mm 0,0 UV-I 12 W/m 2,7 C -2,8 C 32,2 km/h (5 Bft) 97,87 %
30.10.2017 07:26 5,4 C 8,9 C 83 % 1018,5 hPa 0,0 l/m 25,7 km/h (4 Bft) W-SW 250 0 min 0,000 mm 0,0 UV-I 14 W/m 2,7 C -4,6 C 37,0 km/h (5 Bft) 100,00 %
30.10.2017 07:28 5,4 C 8,9 C 83 % 1018,4 hPa 0,0 l/m 15,1 km/h (3 Bft) W-SW 245 0 min 0,000 mm 0,0 UV-I 15 W/m 2,7 C -0,5 C 20,9 km/h (4 Bft) 100,00 %
30.10.2017 07:30 5,4 C 8,9 C 83 % 1018,4 hPa 0,0 l/m 20,2 km/h (4 Bft) W-SW 257 0 min 0,000 mm 0,0 UV-I 16 W/m 2,7 C -2,7 C 38,6 km/h (5 Bft) 100,00 %
30.10.2017 07:32 5,4 C 8,9 C 83 % 1018,3 hPa 0,0 l/m 21,0 km/h (4 Bft) NW 321 0 min 0,000 mm 0,0 UV-I 21 W/m 2,7 C -3,0 C 32,2 km/h (5 Bft) 97,56 %
30.10.2017 07:34 5,4 C 8,9 C 83 % 1018,3 hPa 0,0 l/m 22,5 km/h (4 Bft) W-SW 252 0 min 0,000 mm 0,0 UV-I 25 W/m 2,7 C -3,6 C 45,1 km/h (6 Bft) 100,00 %
30.10.2017 07:36 5,4 C 8,9 C 83 % 1018,3 hPa 0,0 l/m 26,9 km/h (4 Bft) W 265 0 min 0,000 mm 0,0 UV-I 26 W/m 2,7 C -5,0 C 45,1 km/h (6 Bft) 100,00 %
30.10.2017 07:38 5,4 C 8,9 C 83 % 1018,4 hPa 0,0 l/m 16,7 km/h (3 Bft) W-SW 252 0 min 0,000 mm 0,0 UV-I 30 W/m 2,7 C -1,3 C 30,6 km/h (5 Bft) 100,00 %
30.10.2017 07:40 5,3 C 8,9 C 83 % 1018,5 hPa 0,0 l/m 19,3 km/h (3 Bft) W-SW 254 0 min 0,000 mm 0,0 UV-I 37 W/m 2,7 C -2,5 C 29,0 km/h (5 Bft) 97,56 %
30.10.2017 07:42 5,3 C 8,9 C 83 % 1018,5 hPa 0,0 l/m 25,0 km/h (4 Bft) W-SW 252 0 min 0,000 mm 0,0 UV-I 39 W/m 2,7 C -4,5 C 35,4 km/h (5 Bft) 100,00 %
30.10.2017 07:44 5,3 C 8,9 C 83 % 1018,5 hPa 0,0 l/m 16,5 km/h (3 Bft) W-SW 254 0 min 0,000 mm 0,0 UV-I 42 W/m 2,7 C -1,3 C 40,2 km/h (6 Bft) 100,00 %
30.10.2017 07:46 5,4 C 8,9 C 83 % 1018,5 hPa 0,0 l/m 18,5 km/h (3 Bft) SW 229 0 min 0,000 mm 0,0 UV-I 47 W/m 2,7 C -2,0 C 29,0 km/h (5 Bft) 100,00 %
30.10.2017 07:48 5,4 C 8,9 C 83 % 1018,6 hPa 0,0 l/m 21,7 km/h (4 Bft) W 262 0 min 0,000 mm 0,0 UV-I 48 W/m 2,7 C -3,3 C 32,2 km/h (5 Bft) 98,11 %
30.10.2017 07:50 5,4 C 8,9 C 83 % 1018,6 hPa 0,0 l/m 22,1 km/h (4 Bft) W 279 0 min 0,000 mm 0,0 UV-I 46 W/m 2,7 C -3,4 C 33,8 km/h (5 Bft) 96,67 %
30.10.2017 07:52 5,4 C 8,9 C 83 % 1018,7 hPa 0,0 l/m 21,7 km/h (4 Bft) W-SW 246 0 min 0,000 mm 0,0 UV-I 50 W/m 2,7 C -3,3 C 30,6 km/h (5 Bft) 98,44 %
30.10.2017 07:54 5,4 C 8,9 C 83 % 1018,7 hPa 0,0 l/m 18,1 km/h (3 Bft) W-SW 244 0 min 0,000 mm 0,0 UV-I 52 W/m 2,7 C -1,9 C 32,2 km/h (5 Bft) 100,00 %
30.10.2017 07:56 5,4 C 8,9 C 82 % 1018,7 hPa 0,0 l/m 19,8 km/h (3 Bft) W 267 0 min 0,000 mm 0,0 UV-I 54 W/m 2,6 C -2,6 C 32,2 km/h (5 Bft) 100,00 %
30.10.2017 07:58 5,4 C 8,9 C 82 % 1018,7 hPa 0,0 l/m 27,3 km/h (4 Bft) W-SW 256 0 min 0,000 mm 0,0 UV-I 58 W/m 2,6 C -5,1 C 45,1 km/h (6 Bft) 100,00 %
30.10.2017 08:00 5,4 C 8,9 C 82 % 1018,7 hPa 0,0 l/m 21,8 km/h (4 Bft) W 263 0 min 0,051 mm 0,0 UV-I 68 W/m 2,6 C -3,3 C 33,8 km/h (5 Bft) 96,00 %
30.10.2017 08:02 5,4 C 8,9 C 82 % 1018,7 hPa 0,0 l/m 24,4 km/h (4 Bft) W-SW 243 0 min 0,000 mm 0,0 UV-I 71 W/m 2,6 C -4,2 C 33,8 km/h (5 Bft) 97,37 %
30.10.2017 08:04 5,5 C 8,9 C 81 % 1018,8 hPa 0,0 l/m 24,8 km/h (4 Bft) W-SW 246 0 min 0,000 mm 0,0 UV-I 73 W/m 2,5 C -4,2 C 40,2 km/h (6 Bft) 100,00 %
30.10.2017 08:06 5,5 C 8,9 C 81 % 1018,9 hPa 0,0 l/m 20,4 km/h (4 Bft) W-SW 251 0 min 0,000 mm 0,0 UV-I 71 W/m 2,5 C -2,7 C 29,0 km/h (5 Bft) 100,00 %
30.10.2017 08:08 5,6 C 8,9 C 82 % 1018,9 hPa 0,0 l/m 16,8 km/h (3 Bft) W 261 0 min 0,000 mm 0,0 UV-I 66 W/m 2,8 C -1,1 C 25,7 km/h (4 Bft) 98,00 %
30.10.2017 08:10 5,6 C 8,9 C 81 % 1018,9 hPa 0,0 l/m 18,3 km/h (3 Bft) W-SW 254 0 min 0,000 mm 0,0 UV-I 71 W/m 2,6 C -1,7 C 29,0 km/h (5 Bft) 97,87 %
30.10.2017 08:12 5,6 C 8,9 C 81 % 1018,9 hPa 0,0 l/m 22,4 km/h (4 Bft) W-SW 251 0 min 0,000 mm 0,0 UV-I 76 W/m 2,6 C -3,3 C 33,8 km/h (5 Bft) 95,45 %
30.10.2017 08:14 5,6 C 8,9 C 81 % 1018,9 hPa 0,0 l/m 23,6 km/h (4 Bft) S-SW 212 0 min 0,000 mm 0,0 UV-I 78 W/m 2,6 C -3,7 C 40,2 km/h (6 Bft) 98,00 %
30.10.2017 08:16 5,6 C 8,9 C 81 % 1019,0 hPa 0,0 l/m 25,3 km/h (4 Bft) W 265 0 min 0,000 mm 0,0 UV-I 80 W/m 2,6 C -4,2 C 40,2 km/h (6 Bft) 97,56 %
30.10.2017 08:18 5,6 C 8,9 C 81 % 1019,1 hPa 0,0 l/m 21,2 km/h (4 Bft) W-SW 248 0 min 0,000 mm 0,0 UV-I 82 W/m 2,6 C -2,8 C 29,0 km/h (5 Bft) 98,11 %
30.10.2017 08:20 5,7 C 8,9 C 81 % 1019,1 hPa 0,0 l/m 21,2 km/h (4 Bft) W 261 0 min 0,000 mm 0,0 UV-I 75 W/m 2,7 C -2,7 C 37,0 km/h (5 Bft) 97,56 %
30.10.2017 08:22 5,7 C 8,9 C 80 % 1019,2 hPa 0,0 l/m 20,3 km/h (4 Bft) W-SW 258 0 min 0,000 mm 0,0 UV-I 63 W/m 2,5 C -2,4 C 30,6 km/h (5 Bft) 98,00 %
30.10.2017 08:24 5,7 C 8,9 C 80 % 1019,2 hPa 0,0 l/m 18,6 km/h (3 Bft) W 266 0 min 0,000 mm 0,0 UV-I 48 W/m 2,5 C -1,7 C 29,0 km/h (5 Bft) 97,73 %
30.10.2017 08:26 5,7 C 8,9 C 80 % 1019,2 hPa 0,0 l/m 21,6 km/h (4 Bft) W-SW 255 0 min 0,000 mm 0,0 UV-I 50 W/m 2,5 C -2,9 C 30,6 km/h (5 Bft) 96,43 %
30.10.2017 08:28 5,7 C 8,9 C 80 % 1019,2 hPa 0,0 l/m 24,4 km/h (4 Bft) W-SW 257 0 min 0,000 mm 0,0 UV-I 61 W/m 2,5 C -3,8 C 48,3 km/h (6 Bft) 97,37 %
30.10.2017 08:30 5,7 C 8,9 C 80 % 1019,2 hPa 0,0 l/m 24,4 km/h (4 Bft) W 261 0 min 0,000 mm 0,0 UV-I 72 W/m 2,5 C -3,8 C 40,2 km/h (6 Bft) 94,34 %
30.10.2017 08:32 5,7 C 8,9 C 79 % 1019,2 hPa 0,0 l/m 19,1 km/h (3 Bft) W-SW 245 0 min 0,000 mm 0,0 UV-I 95 W/m 2,3 C -1,9 C 29,0 km/h (5 Bft) 95,24 %
30.10.2017 08:34 5,7 C 8,9 C 79 % 1019,2 hPa 0,0 l/m 22,7 km/h (4 Bft) W 259 0 min 0,000 mm 0,0 UV-I 120 W/m 2,3 C -3,2 C 33,8 km/h (5 Bft) 92,31 %
30.10.2017 08:36 5,8 C 8,9 C 79 % 1019,2 hPa 0,0 l/m 20,4 km/h (4 Bft) W-SW 252 0 min 0,000 mm 0,0 UV-I 130 W/m 2,4 C -2,3 C 29,0 km/h (5 Bft) 97,22 %
30.10.2017 08:38 5,8 C 8,9 C 79 % 1019,2 hPa 0,0 l/m 17,8 km/h (3 Bft) W 264 0 min 0,000 mm 0,0 UV-I 126 W/m 2,4 C -1,2 C 25,7 km/h (4 Bft) 95,16 %
30.10.2017 08:40 5,8 C 8,9 C 79 % 1019,2 hPa 0,0 l/m 17,1 km/h (3 Bft) W 260 0 min 0,000 mm 0,0 UV-I 122 W/m 2,4 C -0,9 C 29,0 km/h (5 Bft) 94,74 %
30.10.2017 08:42 5,8 C 8,9 C 79 % 1019,3 hPa 0,0 l/m 19,3 km/h (3 Bft) W 271 0 min 0,000 mm 0,0 UV-I 128 W/m 2,4 C -1,9 C 27,4 km/h (4 Bft) 95,74 %
30.10.2017 08:44 5,9 C 8,9 C 79 % 1019,2 hPa 0,0 l/m 19,8 km/h (3 Bft) W 265 2 min 0,000 mm 0,0 UV-I 161 W/m 2,5 C -1,9 C 37,0 km/h (5 Bft) 96,00 %
30.10.2017 08:46 5,9 C 8,9 C 78 % 1019,3 hPa 0,0 l/m 22,9 km/h (4 Bft) W 259 2 min 0,000 mm 0,0 UV-I 196 W/m 2,4 C -3,0 C 32,2 km/h (5 Bft) 95,12 %
30.10.2017 08:48 6,0 C 8,9 C 78 % 1019,3 hPa 0,0 l/m 20,5 km/h (4 Bft) W-SW 240 2 min 0,000 mm 0,0 UV-I 214 W/m 2,5 C -2,1 C 30,6 km/h (5 Bft) 94,64 %
30.10.2017 08:50 6,1 C 8,9 C 78 % 1019,3 hPa 0,0 l/m 18,5 km/h (3 Bft) W-SW 242 2 min 0,000 mm 0,0 UV-I 231 W/m 2,6 C -1,2 C 32,2 km/h (5 Bft) 95,12 %
30.10.2017 08:52 6,1 C 8,9 C 78 % 1019,4 hPa 0,0 l/m 19,3 km/h (3 Bft) W-SW 242 2 min 0,000 mm 0,0 UV-I 201 W/m 2,6 C -1,5 C 32,2 km/h (5 Bft) 96,00 %
30.10.2017 08:54 6,2 C 8,9 C 78 % 1019,5 hPa 0,0 l/m 19,2 km/h (3 Bft) W-SW 256 2 min 0,000 mm 0,0 UV-I 213 W/m 2,7 C -1,3 C 32,2 km/h (5 Bft) 94,00 %
30.10.2017 08:56 6,2 C 8,9 C 78 % 1019,4 hPa 0,0 l/m 21,6 km/h (4 Bft) W 277 2 min 0,000 mm 0,0 UV-I 194 W/m 2,7 C -2,2 C 29,0 km/h (5 Bft) 97,14 %
30.10.2017 08:58 6,2 C 8,9 C 78 % 1019,4 hPa 0,0 l/m 20,5 km/h (4 Bft) W 263 2 min 0,000 mm 0,0 UV-I 182 W/m 2,7 C -1,8 C 37,0 km/h (5 Bft) 94,92 %
30.10.2017 09:00 6,2 C 8,9 C 77 % 1019,4 hPa 0,0 l/m 25,5 km/h (4 Bft) W-SW 251 0 min 0,076 mm 0,0 UV-I 166 W/m 2,5 C -3,5 C 41,8 km/h (6 Bft) 95,12 %
30.10.2017 09:02 6,2 C 8,9 C 78 % 1019,4 hPa 0,0 l/m 19,6 km/h (3 Bft) W 269 0 min 0,000 mm 0,0 UV-I 156 W/m 2,7 C -1,5 C 37,0 km/h (5 Bft) 94,34 %
30.10.2017 09:04 6,2 C 8,9 C 78 % 1019,4 hPa 0,0 l/m 18,4 km/h (3 Bft) W-SW 251 0 min 0,000 mm 0,0 UV-I 145 W/m 2,7 C -1,0 C 30,6 km/h (5 Bft) 97,87 %
30.10.2017 09:06 6,2 C 8,9 C 78 % 1019,4 hPa 0,0 l/m 18,0 km/h (3 Bft) W 259 0 min 0,000 mm 0,0 UV-I 144 W/m 2,7 C -0,8 C 27,4 km/h (4 Bft) 95,74 %
30.10.2017 09:08 6,2 C 8,9 C 78 % 1019,4 hPa 0,0 l/m 19,7 km/h (3 Bft) W 264 0 min 0,000 mm 0,0 UV-I 148 W/m 2,7 C -1,5 C 32,2 km/h (5 Bft) 95,74 %
30.10.2017 09:10 6,1 C 8,9 C 78 % 1019,4 hPa 0,0 l/m 22,9 km/h (4 Bft) W-NW 284 0 min 0,000 mm 0,0 UV-I 161 W/m 2,6 C -2,8 C 43,5 km/h (6 Bft) 97,37 %
30.10.2017 09:12 6,1 C 8,9 C 78 % 1019,4 hPa 0,0 l/m 20,4 km/h (4 Bft) W-SW 254 0 min 0,000 mm 0,1 UV-I 175 W/m 2,6 C -1,9 C 33,8 km/h (5 Bft) 98,11 %
30.10.2017 09:14 6,1 C 8,9 C 78 % 1019,3 hPa 0,0 l/m 23,2 km/h (4 Bft) W 265 0 min 0,000 mm 0,5 UV-I 183 W/m 2,6 C -2,9 C 35,4 km/h (5 Bft) 94,87 %
30.10.2017 09:16 6,1 C 8,9 C 78 % 1019,4 hPa 0,0 l/m 24,8 km/h (4 Bft) W 273 2 min 0,000 mm 0,5 UV-I 189 W/m 2,6 C -3,4 C 33,8 km/h (5 Bft) 98,04 %
30.10.2017 09:18 6,2 C 8,9 C 78 % 1019,4 hPa 0,0 l/m 21,8 km/h (4 Bft) W 271 2 min 0,000 mm 0,5 UV-I 196 W/m 2,7 C -2,3 C 33,8 km/h (5 Bft) 95,12 %
30.10.2017 09:20 6,2 C 8,9 C 78 % 1019,4 hPa 0,0 l/m 23,0 km/h (4 Bft) W-SW 254 2 min 0,000 mm 0,6 UV-I 298 W/m 2,7 C -2,7 C 33,8 km/h (5 Bft) 100,00 %
30.10.2017 09:22 6,3 C 8,9 C 78 % 1019,3 hPa 0,0 l/m 22,8 km/h (4 Bft) W 279 2 min 0,000 mm 0,6 UV-I 367 W/m 2,8 C -2,5 C 37,0 km/h (5 Bft) 100,00 %
30.10.2017 09:24 6,3 C 8,9 C 77 % 1019,3 hPa 0,0 l/m 26,4 km/h (4 Bft) W-SW 252 2 min 0,000 mm 0,6 UV-I 451 W/m 2,6 C -3,6 C 35,4 km/h (5 Bft) 100,00 %
30.10.2017 09:26 6,4 C 8,9 C 78 % 1019,3 hPa 0,0 l/m 22,6 km/h (4 Bft) W 263 2 min 0,000 mm 0,6 UV-I 370 W/m 2,8 C -2,3 C 32,2 km/h (5 Bft) 100,00 %
30.10.2017 09:28 6,6 C 8,9 C 78 % 1019,5 hPa 0,0 l/m 19,5 km/h (3 Bft) W-SW 255 2 min 0,000 mm 0,5 UV-I 275 W/m 3,0 C -0,9 C 33,8 km/h (5 Bft) 100,00 %
30.10.2017 09:30 6,6 C 8,9 C 77 % 1019,4 hPa 0,0 l/m 29,9 km/h (5 Bft) W-SW 257 0 min 0,000 mm 0,5 UV-I 198 W/m 2,9 C -4,1 C 46,7 km/h (6 Bft) 100,00 %
30.10.2017 09:32 6,5 C 8,9 C 76 % 1019,4 hPa 0,0 l/m 22,2 km/h (4 Bft) W 259 0 min 0,000 mm 0,5 UV-I 178 W/m 2,6 C -2,0 C 37,0 km/h (5 Bft) 97,06 %
30.10.2017 09:34 6,4 C 8,9 C 77 % 1019,4 hPa 0,0 l/m 19,4 km/h (3 Bft) W-SW 251 0 min 0,000 mm 0,5 UV-I 168 W/m 2,7 C -1,1 C 27,4 km/h (4 Bft) 97,73 %
30.10.2017 09:36 6,3 C 8,9 C 77 % 1019,6 hPa 0,0 l/m 18,8 km/h (3 Bft) W-SW 244 0 min 0,000 mm 0,6 UV-I 149 W/m 2,6 C -1,0 C 29,0 km/h (5 Bft) 100,00 %
30.10.2017 09:38 6,3 C 8,9 C 77 % 1019,5 hPa 0,0 l/m 29,0 km/h (5 Bft) W 267 0 min 0,000 mm 0,6 UV-I 150 W/m 2,6 C -4,3 C 51,5 km/h (7 Bft) 97,56 %
30.10.2017 09:40 6,3 C 8,9 C 77 % 1019,6 hPa 0,0 l/m 29,4 km/h (5 Bft) SW 236 0 min 0,000 mm 0,6 UV-I 161 W/m 2,6 C -4,4 C 53,1 km/h (7 Bft) 98,00 %
30.10.2017 09:42 6,3 C 8,9 C 77 % 1019,5 hPa 0,0 l/m 21,6 km/h (4 Bft) W 259 2 min 0,000 mm 0,6 UV-I 224 W/m 2,6 C -2,1 C 30,6 km/h (5 Bft) 100,00 %
30.10.2017 09:44 6,3 C 8,9 C 77 % 1019,6 hPa 0,0 l/m 23,6 km/h (4 Bft) W 265 2 min 0,000 mm 0,6 UV-I 242 W/m 2,6 C -2,7 C 43,5 km/h (6 Bft) 100,00 %
30.10.2017 09:46 6,3 C 8,9 C 77 % 1019,7 hPa 0,0 l/m 21,1 km/h (4 Bft) W-SW 250 0 min 0,000 mm 0,5 UV-I 180 W/m 2,6 C -1,9 C 32,2 km/h (5 Bft) 100,00 %
30.10.2017 09:48 6,3 C 8,9 C 77 % 1019,7 hPa 0,0 l/m 22,9 km/h (4 Bft) W 268 0 min 0,000 mm 0,6 UV-I 186 W/m 2,6 C -2,5 C 35,4 km/h (5 Bft) 100,00 %
30.10.2017 09:50 6,4 C 8,9 C 77 % 1019,7 hPa 0,0 l/m 20,7 km/h (4 Bft) W-SW 255 0 min 0,000 mm 0,5 UV-I 188 W/m 2,7 C -1,6 C 35,4 km/h (5 Bft) 100,00 %
30.10.2017 09:52 6,3 C 8,9 C 77 % 1019,8 hPa 0,0 l/m 27,0 km/h (4 Bft) W 263 0 min 0,000 mm 0,5 UV-I 188 W/m 2,6 C -3,8 C 45,1 km/h (6 Bft) 100,00 %
30.10.2017 09:54 6,3 C 8,9 C 77 % 1019,8 hPa 0,0 l/m 22,6 km/h (4 Bft) W 264 0 min 0,000 mm 0,6 UV-I 194 W/m 2,6 C -2,4 C 37,0 km/h (5 Bft) 100,00 %
30.10.2017 09:56 6,3 C 8,9 C 77 % 1019,7 hPa 0,2 l/m 31,8 km/h (5 Bft) W-SW 244 0 min 0,000 mm 0,6 UV-I 202 W/m 2,6 C -5,0 C 48,3 km/h (6 Bft) 98,36 %
30.10.2017 09:58 6,3 C 8,9 C 76 % 1019,6 hPa 0,0 l/m 31,0 km/h (5 Bft) W-SW 258 0 min 0,000 mm 0,6 UV-I 201 W/m 2,4 C -4,8 C 49,9 km/h (6 Bft) 100,00 %
30.10.2017 10:00 6,2 C 8,9 C 77 % 1019,6 hPa 0,0 l/m 31,0 km/h (5 Bft) W-SW 248 0 min 0,127 mm 0,6 UV-I 195 W/m 2,5 C -4,9 C 46,7 km/h (6 Bft) 100,00 %
30.10.2017 10:02 6,2 C 8,9 C 77 % 1019,7 hPa 0,0 l/m 25,4 km/h (4 Bft) W-SW 254 0 min 0,000 mm 0,7 UV-I 189 W/m 2,5 C -3,4 C 38,6 km/h (5 Bft) 100,00 %
30.10.2017 10:04 6,2 C 8,9 C 77 % 1019,7 hPa 0,0 l/m 24,9 km/h (4 Bft) W 268 0 min 0,000 mm 0,7 UV-I 197 W/m 2,5 C -3,3 C 37,0 km/h (5 Bft) 100,00 %
30.10.2017 10:06 6,2 C 8,9 C 77 % 1019,7 hPa 0,0 l/m 31,1 km/h (5 Bft) W-SW 240 0 min 0,000 mm 0,7 UV-I 190 W/m 2,5 C -5,0 C 46,7 km/h (6 Bft) 100,00 %
30.10.2017 10:08 6,2 C 8,9 C 78 % 1019,7 hPa 0,0 l/m 28,1 km/h (4 Bft) W-SW 239 0 min 0,000 mm 0,7 UV-I 188 W/m 2,7 C -4,2 C 38,6 km/h (5 Bft) 100,00 %
30.10.2017 10:10 6,2 C 8,9 C 78 % 1019,7 hPa 0,0 l/m 26,6 km/h (4 Bft) W-SW 255 0 min 0,000 mm 0,7 UV-I 194 W/m 2,7 C -3,8 C 35,4 km/h (5 Bft) 100,00 %
30.10.2017 10:12 6,2 C 8,9 C 77 % 1019,8 hPa 0,0 l/m 28,3 km/h (4 Bft) W 263 0 min 0,000 mm 0,7 UV-I 183 W/m 2,5 C -4,3 C 48,3 km/h (6 Bft) 100,00 %
30.10.2017 10:14 6,2 C 8,9 C 78 % 1019,9 hPa 0,0 l/m 20,0 km/h (4 Bft) SW 226 0 min 0,000 mm 0,7 UV-I 177 W/m 2,7 C -1,6 C 29,0 km/h (5 Bft) 100,00 %
30.10.2017 10:16 6,2 C 8,9 C 78 % 1019,9 hPa 0,0 l/m 24,9 km/h (4 Bft) W-SW 242 0 min 0,000 mm 0,7 UV-I 171 W/m 2,7 C -3,3 C 43,5 km/h (6 Bft) 98,00 %
30.10.2017 10:18 6,2 C 8,9 C 78 % 1019,9 hPa 0,0 l/m 19,5 km/h (3 Bft) W-SW 244 0 min 0,000 mm 0,7 UV-I 159 W/m 2,7 C -1,4 C 27,4 km/h (4 Bft) 100,00 %
30.10.2017 10:20 6,2 C 8,9 C 78 % 1019,9 hPa 0,0 l/m 25,2 km/h (4 Bft) W-SW 254 0 min 0,000 mm 0,7 UV-I 154 W/m 2,7 C -3,4 C 41,8 km/h (6 Bft) 100,00 %
30.10.2017 10:22 6,2 C 8,9 C 78 % 1019,9 hPa 0,0 l/m 20,2 km/h (4 Bft) W 272 0 min 0,000 mm 0,7 UV-I 162 W/m 2,7 C -1,7 C 29,0 km/h (5 Bft) 98,00 %
30.10.2017 10:24 6,2 C 8,9 C 78 % 1019,9 hPa 0,0 l/m 20,3 km/h (4 Bft) W-SW 252 0 min 0,000 mm 0,7 UV-I 148 W/m 2,7 C -1,7 C 30,6 km/h (5 Bft) 97,37 %
30.10.2017 10:26 6,2 C 8,9 C 78 % 1020,0 hPa 0,0 l/m 25,7 km/h (4 Bft) W 269 0 min 0,000 mm 0,7 UV-I 163 W/m 2,7 C -3,5 C 41,8 km/h (6 Bft) 98,11 %
30.10.2017 10:28 6,2 C 8,9 C 78 % 1020,0 hPa 0,0 l/m 17,4 km/h (3 Bft) SW 234 0 min 0,000 mm 0,8 UV-I 164 W/m 2,7 C -0,6 C 32,2 km/h (5 Bft) 96,30 %
30.10.2017 10:30 6,3 C 8,9 C 78 % 1020,0 hPa 0,0 l/m 16,1 km/h (3 Bft) W 273 0 min 0,000 mm 0,8 UV-I 168 W/m 2,8 C 0,1 C 24,1 km/h (4 Bft) 96,72 %
30.10.2017 10:32 6,3 C 8,9 C 78 % 1020,1 hPa 0,0 l/m 19,0 km/h (3 Bft) W-SW 250 0 min 0,000 mm 0,7 UV-I 162 W/m 2,8 C -1,1 C 24,1 km/h (4 Bft) 100,00 %
30.10.2017 10:34 6,3 C 8,9 C 78 % 1020,1 hPa 0,0 l/m 18,6 km/h (3 Bft) W 278 0 min 0,000 mm 0,7 UV-I 155 W/m 2,8 C -0,9 C 33,8 km/h (5 Bft) 96,61 %
30.10.2017 10:36 6,4 C 8,9 C 78 % 1020,1 hPa 0,0 l/m 18,7 km/h (3 Bft) W 260 0 min 0,000 mm 0,7 UV-I 157 W/m 2,8 C -0,9 C 29,0 km/h (5 Bft) 97,37 %
30.10.2017 10:38 6,4 C 8,9 C 78 % 1020,1 hPa 0,0 l/m 19,8 km/h (3 Bft) W 269 0 min 0,000 mm 0,7 UV-I 155 W/m 2,8 C -1,3 C 27,4 km/h (4 Bft) 96,23 %
30.10.2017 10:40 6,4 C 8,9 C 78 % 1020,1 hPa 0,0 l/m 19,3 km/h (3 Bft) W-SW 247 0 min 0,000 mm 0,8 UV-I 156 W/m 2,8 C -1,1 C 32,2 km/h (5 Bft) 99,12 %
30.10.2017 10:42 6,4 C 8,9 C 77 % 1020,1 hPa 0,0 l/m 24,2 km/h (4 Bft) W 261 0 min 0,000 mm 0,8 UV-I 154 W/m 2,7 C -2,8 C 41,8 km/h (6 Bft) 97,98 %
30.10.2017 10:44 6,4 C 8,9 C 77 % 1020,1 hPa 0,0 l/m 25,2 km/h (4 Bft) W 262 0 min 0,000 mm 0,9 UV-I 187 W/m 2,7 C -3,1 C 35,4 km/h (5 Bft) 92,68 %
30.10.2017 10:46 6,5 C 8,9 C 76 % 1020,1 hPa 0,0 l/m 28,4 km/h (4 Bft) W-SW 257 0 min 0,000 mm 0,8 UV-I 191 W/m 2,6 C -3,9 C 37,0 km/h (5 Bft) 96,00 %
30.10.2017 10:48 6,5 C 8,9 C 77 % 1020,1 hPa 0,0 l/m 26,9 km/h (4 Bft) W 273 0 min 0,000 mm 0,8 UV-I 190 W/m 2,8 C -3,5 C 43,5 km/h (6 Bft) 98,00 %
30.10.2017 10:50 6,6 C 8,9 C 76 % 1020,1 hPa 0,0 l/m 24,8 km/h (4 Bft) W-SW 251 0 min 0,000 mm 0,7 UV-I 191 W/m 2,7 C -2,7 C 40,2 km/h (6 Bft) 97,37 %
30.10.2017 10:52 6,6 C 8,9 C 75 % 1020,2 hPa 0,0 l/m 25,7 km/h (4 Bft) W 279 0 min 0,000 mm 0,6 UV-I 168 W/m 2,5 C -3,0 C 38,6 km/h (5 Bft) 98,04 %
30.10.2017 10:54 6,6 C 8,9 C 75 % 1020,1 hPa 0,0 l/m 20,6 km/h (4 Bft) W-SW 253 0 min 0,000 mm 0,5 UV-I 145 W/m 2,5 C -1,3 C 33,8 km/h (5 Bft) 98,11 %
30.10.2017 10:56 6,6 C 8,9 C 75 % 1020,1 hPa 0,0 l/m 21,7 km/h (4 Bft) W 262 0 min 0,000 mm 0,6 UV-I 157 W/m 2,5 C -1,7 C 35,4 km/h (5 Bft) 94,29 %
30.10.2017 10:58 6,7 C 8,9 C 76 % 1020,1 hPa 0,0 l/m 20,2 km/h (4 Bft) W-SW 242 0 min 0,000 mm 0,8 UV-I 195 W/m 2,8 C -1,1 C 29,0 km/h (5 Bft) 100,00 %
30.10.2017 11:00 6,7 C 8,9 C 77 % 1020,1 hPa 0,0 l/m 20,4 km/h (4 Bft) SW 223 0 min 0,127 mm 0,8 UV-I 211 W/m 3,0 C -1,1 C 33,8 km/h (5 Bft) 98,39 %
30.10.2017 11:04 6,8 C 8,9 C 76 % 1020,1 hPa 0,0 l/m 27,8 km/h (4 Bft) W-SW 239 0 min 0,000 mm 1,0 UV-I 250 W/m 2,9 C -3,3 C 40,2 km/h (6 Bft) 98,86 %
30.10.2017 11:06 6,8 C 8,9 C 76 % 1020,1 hPa 0,0 l/m 19,3 km/h (3 Bft) W-SW 239 2 min 0,000 mm 1,0 UV-I 278 W/m 2,9 C -0,6 C 29,0 km/h (5 Bft) 98,00 %
30.10.2017 11:08 6,9 C 8,9 C 75 % 1020,1 hPa 0,0 l/m 24,3 km/h (4 Bft) W-SW 254 2 min 0,000 mm 0,9 UV-I 257 W/m 2,8 C -2,2 C 33,8 km/h (5 Bft) 100,00 %
30.10.2017 11:10 6,9 C 8,9 C 76 % 1020,1 hPa 0,0 l/m 23,2 km/h (4 Bft) W-SW 254 0 min 0,000 mm 0,9 UV-I 215 W/m 3,0 C -1,8 C 30,6 km/h (5 Bft) 100,00 %
30.10.2017 11:12 6,9 C 8,9 C 76 % 1020,2 hPa 0,0 l/m 25,1 km/h (4 Bft) W 265 0 min 0,000 mm 0,7 UV-I 167 W/m 3,0 C -2,4 C 40,2 km/h (6 Bft) 100,00 %
30.10.2017 11:15 6,8 C 8,9 C 75 % 1020,3 hPa 0,0 l/m 26,2 km/h (4 Bft) W 281 0 min 0,000 mm 0,5 UV-I 130 W/m 2,7 C -2,9 C 45,1 km/h (6 Bft) 100,00 %
30.10.2017 11:16 6,8 C 8,9 C 75 % 1020,3 hPa 0,0 l/m 27,2 km/h (4 Bft) W 262 0 min 0,000 mm 0,7 UV-I 142 W/m 2,7 C -3,1 C 30,6 km/h (5 Bft) 100,00 %
30.10.2017 11:18 6,8 C 8,9 C 76 % 1020,1 hPa 0,0 l/m 23,5 km/h (4 Bft) SW 230 0 min 0,000 mm 0,7 UV-I 154 W/m 2,9 C -2,0 C 35,4 km/h (5 Bft) 100,00 %
30.10.2017 11:20 6,7 C 8,9 C 76 % 1020,1 hPa 0,0 l/m 30,4 km/h (5 Bft) W 271 0 min 0,000 mm 0,7 UV-I 140 W/m 2,8 C -4,1 C 48,3 km/h (6 Bft) 100,00 %
30.10.2017 11:22 6,7 C 8,9 C 76 % 1020,2 hPa 0,0 l/m 29,8 km/h (5 Bft) W 259 0 min 0,000 mm 0,8 UV-I 181 W/m 2,8 C -3,9 C 45,1 km/h (6 Bft) 100,00 %
30.10.2017 11:24 6,7 C 8,9 C 76 % 1020,3 hPa 0,0 l/m 24,6 km/h (4 Bft) W-SW 254 0 min 0,000 mm 0,8 UV-I 152 W/m 2,8 C -2,5 C 38,6 km/h (5 Bft) 100,00 %
30.10.2017 11:26 6,7 C 8,9 C 76 % 1020,1 hPa 0,0 l/m 25,4 km/h (4 Bft) W 261 0 min 0,000 mm 0,9 UV-I 193 W/m 2,8 C -2,8 C 40,2 km/h (6 Bft) 97,37 %
30.10.2017 11:28 6,7 C 8,9 C 77 % 1020,2 hPa 0,0 l/m 17,4 km/h (3 Bft) W 279 0 min 0,000 mm 1,1 UV-I 229 W/m 3,0 C 0,1 C 27,4 km/h (4 Bft) 100,00 %
30.10.2017 11:30 6,8 C 8,9 C 76 % 1020,2 hPa 0,0 l/m 27,4 km/h (4 Bft) W 262 0 min 0,000 mm 1,2 UV-I 247 W/m 2,9 C -3,2 C 41,8 km/h (6 Bft) 100,00 %
30.10.2017 11:32 6,8 C 8,9 C 77 % 1020,2 hPa 0,0 l/m 17,8 km/h (3 Bft) SW 233 0 min 0,000 mm 1,2 UV-I 215 W/m 3,1 C 0,0 C 25,7 km/h (4 Bft) 97,87 %
30.10.2017 11:34 6,8 C 8,9 C 76 % 1020,3 hPa 0,0 l/m 19,8 km/h (3 Bft) W 265 0 min 0,000 mm 1,2 UV-I 227 W/m 2,9 C -0,8 C 33,8 km/h (5 Bft) 100,00 %
30.10.2017 11:36 6,9 C 8,9 C 76 % 1020,1 hPa 0,0 l/m 25,4 km/h (4 Bft) W 263 0 min 0,000 mm 1,0 UV-I 249 W/m 3,0 C -2,5 C 48,3 km/h (6 Bft) 100,00 %
30.10.2017 11:38 6,9 C 8,9 C 75 % 1020,2 hPa 0,0 l/m 27,9 km/h (4 Bft) W-SW 257 0 min 0,000 mm 1,0 UV-I 190 W/m 2,8 C -3,2 C 45,1 km/h (6 Bft) 98,00 %
30.10.2017 11:40 6,9 C 8,9 C 76 % 1020,2 hPa 0,0 l/m 19,5 km/h (3 Bft) W 280 0 min 0,000 mm 1,3 UV-I 244 W/m 3,0 C -0,5 C 29,0 km/h (5 Bft) 100,00 %
30.10.2017 11:42 7,1 C 8,9 C 76 % 1020,1 hPa 0,0 l/m 24,5 km/h (4 Bft) W 269 2 min 0,000 mm 1,5 UV-I 431 W/m 3,2 C -1,9 C 37,0 km/h (5 Bft) 100,00 %
30.10.2017 11:44 7,3 C 8,9 C 75 % 1020,3 hPa 0,0 l/m 24,3 km/h (4 Bft) W-SW 242 2 min 0,000 mm 1,5 UV-I 566 W/m 3,2 C -1,6 C 38,6 km/h (5 Bft) 97,37 %
30.10.2017 11:46 7,4 C 8,9 C 74 % 1020,2 hPa 0,0 l/m 24,8 km/h (4 Bft) W-SW 238 2 min 0,000 mm 1,5 UV-I 533 W/m 3,1 C -1,6 C 38,6 km/h (5 Bft) 100,00 %
30.10.2017 11:48 7,4 C 8,9 C 73 % 1020,2 hPa 0,0 l/m 25,1 km/h (4 Bft) W 261 2 min 0,000 mm 1,5 UV-I 524 W/m 2,9 C -1,7 C 32,2 km/h (5 Bft) 100,00 %
30.10.2017 11:50 7,4 C 8,9 C 74 % 1020,4 hPa 0,0 l/m 23,2 km/h (4 Bft) W 281 2 min 0,000 mm 1,5 UV-I 504 W/m 3,1 C -1,1 C 33,8 km/h (5 Bft) 98,11 %
30.10.2017 11:52 7,4 C 8,9 C 74 % 1020,3 hPa 0,0 l/m 24,2 km/h (4 Bft) W-SW 250 2 min 0,000 mm 1,5 UV-I 488 W/m 3,1 C -1,5 C 35,4 km/h (5 Bft) 100,00 %
30.10.2017 11:54 7,5 C 8,9 C 75 % 1020,4 hPa 0,0 l/m 20,2 km/h (4 Bft) W-SW 251 2 min 0,000 mm 1,5 UV-I 516 W/m 3,4 C -0,0 C 27,4 km/h (4 Bft) 100,00 %
30.10.2017 11:56 7,5 C 8,9 C 74 % 1020,2 hPa 0,0 l/m 20,2 km/h (4 Bft) W-SW 244 2 min 0,000 mm 1,5 UV-I 519 W/m 3,2 C -0,0 C 33,8 km/h (5 Bft) 100,00 %
30.10.2017 11:58 7,6 C 8,9 C 75 % 1020,3 hPa 0,0 l/m 19,4 km/h (3 Bft) W 270 2 min 0,000 mm 1,5 UV-I 524 W/m 3,5 C 0,4 C 27,4 km/h (4 Bft) 100,00 %
30.10.2017 12:00 7,7 C 8,9 C 75 % 1020,1 hPa 0,0 l/m 19,9 km/h (4 Bft) W-SW 246 2 min 0,178 mm 1,4 UV-I 534 W/m 3,6 C 0,4 C 43,5 km/h (6 Bft) 98,11 %
30.10.2017 12:02 7,7 C 8,9 C 74 % 1020,1 hPa 0,0 l/m 22,2 km/h (4 Bft) W 267 2 min 0,000 mm 1,5 UV-I 561 W/m 3,4 C -0,4 C 38,6 km/h (5 Bft) 100,00 %
30.10.2017 12:04 7,7 C 8,9 C 73 % 1020,1 hPa 0,0 l/m 22,0 km/h (4 Bft) W 268 2 min 0,000 mm 1,3 UV-I 427 W/m 3,2 C -0,4 C 37,0 km/h (5 Bft) 100,00 %
30.10.2017 12:06 7,6 C 8,9 C 73 % 1020,2 hPa 0,0 l/m 22,4 km/h (4 Bft) W-SW 246 2 min 0,000 mm 1,3 UV-I 287 W/m 3,1 C -0,6 C 37,0 km/h (5 Bft) 100,00 %
30.10.2017 12:08 7,5 C 8,9 C 73 % 1020,2 hPa 0,0 l/m 20,3 km/h (4 Bft) W-SW 250 2 min 0,000 mm 1,2 UV-I 275 W/m 3,0 C -0,1 C 29,0 km/h (5 Bft) 97,37 %
30.10.2017 12:10 7,5 C 8,9 C 73 % 1020,1 hPa 0,0 l/m 25,0 km/h (4 Bft) W-SW 240 2 min 0,000 mm 1,2 UV-I 394 W/m 3,0 C -1,6 C 35,4 km/h (5 Bft) 100,00 %
30.10.2017 12:12 7,5 C 8,9 C 74 % 1020,2 hPa 0,0 l/m 19,7 km/h (3 Bft) W-SW 256 2 min 0,000 mm 1,2 UV-I 323 W/m 3,2 C 0,2 C 29,0 km/h (5 Bft) 95,31 %
30.10.2017 12:14 7,6 C 8,9 C 73 % 1020,1 hPa 0,0 l/m 17,5 km/h (3 Bft) SW 227 2 min 0,000 mm 1,0 UV-I 323 W/m 3,1 C 1,1 C 29,0 km/h (5 Bft) 97,87 %
30.10.2017 12:16 7,8 C 8,9 C 74 % 1020,1 hPa 0,0 l/m 18,3 km/h (3 Bft) W 273 2 min 0,000 mm 1,2 UV-I 323 W/m 3,5 C 1,1 C 30,6 km/h (5 Bft) 97,22 %
30.10.2017 12:18 7,9 C 8,9 C 73 % 1020,0 hPa 0,0 l/m 25,3 km/h (4 Bft) SW 234 0 min 0,000 mm 0,6 UV-I 238 W/m 3,4 C -1,1 C 35,4 km/h (5 Bft) 98,08 %
30.10.2017 12:20 7,8 C 8,9 C 72 % 1020,1 hPa 0,0 l/m 24,7 km/h (4 Bft) W 265 0 min 0,000 mm 0,5 UV-I 160 W/m 3,1 C -1,1 C 43,5 km/h (6 Bft) 98,00 %
30.10.2017 12:22 7,7 C 8,9 C 72 % 1020,1 hPa 0,0 l/m 21,6 km/h (4 Bft) W 259 0 min 0,000 mm 0,6 UV-I 170 W/m 3,0 C -0,2 C 38,6 km/h (5 Bft) 97,56 %
30.10.2017 12:24 7,6 C 8,9 C 73 % 1020,1 hPa 0,0 l/m 20,3 km/h (4 Bft) W 266 0 min 0,000 mm 0,8 UV-I 175 W/m 3,1 C 0,1 C 32,2 km/h (5 Bft) 98,21 %
30.10.2017 12:26 7,5 C 8,9 C 73 % 1020,3 hPa 0,0 l/m 18,0 km/h (3 Bft) W 267 0 min 0,000 mm 0,8 UV-I 148 W/m 3,0 C 0,8 C 32,2 km/h (5 Bft) 97,37 %
30.10.2017 12:28 7,4 C 8,9 C 73 % 1020,2 hPa 0,0 l/m 28,1 km/h (4 Bft) W-NW 287 0 min 0,000 mm 0,9 UV-I 111 W/m 2,9 C -2,5 C 37,0 km/h (5 Bft) 98,11 %
30.10.2017 12:30 7,3 C 8,9 C 73 % 1020,2 hPa 0,0 l/m 26,7 km/h (4 Bft) W 269 0 min 0,000 mm 0,9 UV-I 130 W/m 2,8 C -2,3 C 51,5 km/h (7 Bft) 95,45 %
30.10.2017 12:32 7,2 C 8,9 C 74 % 1020,3 hPa 0,0 l/m 21,0 km/h (4 Bft) W-SW 256 0 min 0,000 mm 1,1 UV-I 186 W/m 2,9 C -0,7 C 37,0 km/h (5 Bft) 100,00 %
30.10.2017 12:34 7,2 C 8,9 C 74 % 1020,3 hPa 0,0 l/m 27,1 km/h (4 Bft) W-SW 252 0 min 0,000 mm 1,1 UV-I 247 W/m 2,9 C -2,5 C 38,6 km/h (5 Bft) 96,92 %
30.10.2017 12:36 7,2 C 8,9 C 74 % 1020,5 hPa 0,0 l/m 24,8 km/h (4 Bft) W 262 2 min 0,000 mm 1,3 UV-I 291 W/m 2,9 C -1,9 C 35,4 km/h (5 Bft) 97,56 %
30.10.2017 12:38 7,2 C 8,9 C 74 % 1020,3 hPa 0,0 l/m 19,1 km/h (3 Bft) W-SW 248 0 min 0,000 mm 1,1 UV-I 215 W/m 2,9 C 0,0 C 27,4 km/h (4 Bft) 98,11 %
30.10.2017 12:40 7,2 C 8,9 C 75 % 1020,3 hPa 0,0 l/m 17,0 km/h (3 Bft) W 267 0 min 0,000 mm 1,0 UV-I 168 W/m 3,1 C 0,8 C 22,5 km/h (4 Bft) 97,73 %
30.10.2017 12:42 7,2 C 8,9 C 75 % 1020,4 hPa 0,0 l/m 18,7 km/h (3 Bft) SW 218 0 min 0,000 mm 1,0 UV-I 150 W/m 3,1 C 0,2 C 32,2 km/h (5 Bft) 98,21 %
30.10.2017 12:44 7,2 C 8,9 C 75 % 1020,4 hPa 0,0 l/m 22,1 km/h (4 Bft) W 270 0 min 0,000 mm 0,9 UV-I 177 W/m 3,1 C -1,1 C 33,8 km/h (5 Bft) 92,11 %
30.10.2017 12:46 7,2 C 8,9 C 75 % 1020,4 hPa 0,0 l/m 19,0 km/h (3 Bft) S 188 0 min 0,000 mm 0,9 UV-I 181 W/m 3,1 C 0,0 C 29,0 km/h (5 Bft) 100,00 %
30.10.2017 12:48 7,2 C 8,9 C 75 % 1020,4 hPa 0,0 l/m 21,1 km/h (4 Bft) W-SW 257 0 min 0,000 mm 1,0 UV-I 203 W/m 3,1 C -0,7 C 37,0 km/h (5 Bft) 100,00 %
30.10.2017 12:50 7,2 C 8,9 C 74 % 1020,2 hPa 0,0 l/m 29,0 km/h (5 Bft) SW 229 0 min 0,000 mm 1,2 UV-I 206 W/m 2,9 C -3,0 C 46,7 km/h (6 Bft) 100,00 %
30.10.2017 12:52 7,3 C 8,9 C 74 % 1020,4 hPa 0,0 l/m 19,0 km/h (3 Bft) W-SW 238 0 min 0,000 mm 1,1 UV-I 231 W/m 3,0 C 0,2 C 30,6 km/h (5 Bft) 96,23 %
30.10.2017 12:54 7,3 C 8,9 C 74 % 1020,4 hPa 0,0 l/m 16,0 km/h (3 Bft) W-SW 237 2 min 0,000 mm 1,1 UV-I 279 W/m 3,0 C 1,4 C 25,7 km/h (4 Bft) 95,45 %
30.10.2017 12:56 7,4 C 8,9 C 75 % 1020,4 hPa 0,0 l/m 19,2 km/h (3 Bft) W-SW 242 2 min 0,000 mm 1,0 UV-I 284 W/m 3,3 C 0,2 C 29,0 km/h (5 Bft) 97,62 %
30.10.2017 12:58 7,4 C 8,9 C 75 % 1020,4 hPa 0,0 l/m 23,7 km/h (4 Bft) SW 232 2 min 0,000 mm 1,1 UV-I 298 W/m 3,3 C -1,3 C 41,8 km/h (6 Bft) 98,00 %
30.10.2017 13:00 7,4 C 8,9 C 75 % 1020,4 hPa 0,0 l/m 26,8 km/h (4 Bft) W 264 2 min 0,178 mm 1,1 UV-I 285 W/m 3,3 C -2,2 C 35,4 km/h (5 Bft) 98,00 %
30.10.2017 13:02 7,3 C 8,9 C 75 % 1020,5 hPa 0,0 l/m 31,4 km/h (5 Bft) W-SW 251 2 min 0,000 mm 1,2 UV-I 307 W/m 3,2 C -3,5 C 46,7 km/h (6 Bft) 97,87 %
30.10.2017 13:04 7,3 C 8,9 C 76 % 1020,5 hPa 0,0 l/m 25,9 km/h (4 Bft) W 263 2 min 0,000 mm 1,2 UV-I 325 W/m 3,4 C -2,1 C 41,8 km/h (6 Bft) 92,11 %
30.10.2017 13:06 7,3 C 8,9 C 76 % 1020,5 hPa 0,0 l/m 24,0 km/h (4 Bft) W 273 2 min 0,000 mm 1,1 UV-I 308 W/m 3,4 C -1,5 C 41,8 km/h (6 Bft) 97,73 %
30.10.2017 13:08 7,3 C 8,9 C 76 % 1020,5 hPa 0,0 l/m 23,2 km/h (4 Bft) SW 220 2 min 0,000 mm 1,2 UV-I 419 W/m 3,4 C -1,3 C 40,2 km/h (6 Bft) 98,11 %
30.10.2017 13:10 7,4 C 8,9 C 76 % 1020,5 hPa 0,0 l/m 24,1 km/h (4 Bft) W-SW 248 2 min 0,000 mm 1,2 UV-I 510 W/m 3,5 C -1,4 C 38,6 km/h (5 Bft) 97,56 %
30.10.2017 13:12 7,5 C 8,9 C 76 % 1020,6 hPa 0,0 l/m 25,4 km/h (4 Bft) SW 215 2 min 0,000 mm 1,0 UV-I 375 W/m 3,5 C -1,7 C 46,7 km/h (6 Bft) 100,00 %
30.10.2017 13:14 7,5 C 8,9 C 76 % 1020,6 hPa 0,0 l/m 27,5 km/h (4 Bft) W-SW 246 2 min 0,000 mm 1,0 UV-I 316 W/m 3,5 C -2,2 C 41,8 km/h (6 Bft) 96,43 %
30.10.2017 13:16 7,4 C 8,9 C 75 % 1020,7 hPa 0,0 l/m 27,7 km/h (4 Bft) W 264 2 min 0,000 mm 0,9 UV-I 292 W/m 3,3 C -2,4 C 41,8 km/h (6 Bft) 98,00 %
30.10.2017 13:18 7,4 C 8,9 C 76 % 1020,7 hPa 0,0 l/m 21,3 km/h (4 Bft) W-SW 254 2 min 0,000 mm 0,8 UV-I 249 W/m 3,5 C -0,5 C 33,8 km/h (5 Bft) 97,87 %
30.10.2017 13:20 7,3 C 8,9 C 76 % 1020,6 hPa 0,0 l/m 20,6 km/h (4 Bft) SW 233 2 min 0,000 mm 0,8 UV-I 240 W/m 3,4 C -0,4 C 33,8 km/h (5 Bft) 97,56 %
30.10.2017 13:22 7,3 C 8,9 C 76 % 1020,6 hPa 0,0 l/m 23,2 km/h (4 Bft) W 267 2 min 0,000 mm 0,8 UV-I 240 W/m 3,4 C -1,3 C 35,4 km/h (5 Bft) 98,00 %
30.10.2017 13:24 7,3 C 8,9 C 76 % 1020,6 hPa 0,0 l/m 22,4 km/h (4 Bft) W-SW 238 2 min 0,000 mm 0,8 UV-I 248 W/m 3,4 C -1,0 C 27,4 km/h (4 Bft) 97,56 %
30.10.2017 13:26 7,3 C 8,9 C 76 % 1020,6 hPa 0,0 l/m 22,5 km/h (4 Bft) W 261 2 min 0,000 mm 0,7 UV-I 243 W/m 3,4 C -1,1 C 37,0 km/h (5 Bft) 96,43 %
30.10.2017 13:28 7,3 C 8,9 C 76 % 1020,6 hPa 0,0 l/m 22,2 km/h (4 Bft) W-SW 254 2 min 0,000 mm 0,6 UV-I 230 W/m 3,4 C -1,0 C 30,6 km/h (5 Bft) 95,12 %
30.10.2017 13:30 7,3 C 8,9 C 76 % 1020,6 hPa 0,0 l/m 25,1 km/h (4 Bft) SW 236 2 min 0,000 mm 0,7 UV-I 236 W/m 3,4 C -1,9 C 37,0 km/h (5 Bft) 97,62 %
30.10.2017 13:32 7,3 C 8,9 C 76 % 1020,5 hPa 0,0 l/m 22,9 km/h (4 Bft) W 275 2 min 0,000 mm 0,8 UV-I 255 W/m 3,4 C -1,2 C 38,6 km/h (5 Bft) 96,55 %
30.10.2017 13:34 7,4 C 8,9 C 75 % 1020,5 hPa 0,0 l/m 25,3 km/h (4 Bft) SW 232 2 min 0,000 mm 0,9 UV-I 395 W/m 3,3 C -1,8 C 46,7 km/h (6 Bft) 97,62 %
30.10.2017 13:36 7,7 C 8,9 C 74 % 1020,6 hPa 0,0 l/m 17,0 km/h (3 Bft) W-SW 245 2 min 0,000 mm 0,9 UV-I 564 W/m 3,4 C 1,5 C 33,8 km/h (5 Bft) 96,00 %
30.10.2017 13:38 7,9 C 8,9 C 75 % 1020,7 hPa 0,0 l/m 20,0 km/h (4 Bft) W-NW 296 2 min 0,000 mm 0,7 UV-I 422 W/m 3,7 C 0,6 C 29,0 km/h (5 Bft) 100,00 %
30.10.2017 13:40 8,0 C 8,9 C 74 % 1020,7 hPa 0,0 l/m 16,9 km/h (3 Bft) W-SW 254 0 min 0,000 mm 0,0 UV-I 138 W/m 3,7 C 1,9 C 25,7 km/h (4 Bft) 96,23 %
30.10.2017 13:42 8,0 C 8,9 C 74 % 1020,8 hPa 0,0 l/m 14,6 km/h (3 Bft) W-SW 258 0 min 0,000 mm 0,0 UV-I 133 W/m 3,7 C 2,9 C 20,9 km/h (4 Bft) 95,74 %
30.10.2017 13:44 7,9 C 8,9 C 74 % 1020,7 hPa 0,0 l/m 13,6 km/h (3 Bft) W-SW 248 0 min 0,000 mm 0,0 UV-I 132 W/m 3,6 C 3,3 C 19,3 km/h (3 Bft) 94,74 %
30.10.2017 13:46 7,8 C 8,9 C 74 % 1020,8 hPa 0,0 l/m 16,6 km/h (3 Bft) W 263 0 min 0,000 mm 0,0 UV-I 100 W/m 3,5 C 1,8 C 27,4 km/h (4 Bft) 96,23 %
30.10.2017 13:48 7,7 C 8,9 C 73 % 1020,9 hPa 0,0 l/m 23,2 km/h (4 Bft) W 273 0 min 0,000 mm 0,0 UV-I 83 W/m 3,2 C -0,7 C 35,4 km/h (5 Bft) 98,00 %
30.10.2017 13:50 7,6 C 8,9 C 73 % 1020,7 hPa 0,0 l/m 27,8 km/h (4 Bft) W-NW 298 0 min 0,000 mm 0,0 UV-I 108 W/m 3,1 C -2,2 C 40,2 km/h (6 Bft) 100,00 %
30.10.2017 13:52 7,4 C 8,9 C 74 % 1020,7 hPa 0,0 l/m 22,4 km/h (4 Bft) W-NW 285 0 min 0,000 mm 0,0 UV-I 112 W/m 3,1 C -0,9 C 35,4 km/h (5 Bft) 97,73 %
30.10.2017 13:54 7,3 C 8,9 C 74 % 1020,7 hPa 0,0 l/m 28,8 km/h (4 Bft) W 266 0 min 0,000 mm 0,0 UV-I 84 W/m 3,0 C -2,8 C 40,2 km/h (6 Bft) 97,56 %
30.10.2017 13:56 7,2 C 8,9 C 74 % 1020,7 hPa 0,0 l/m 24,0 km/h (4 Bft) W-SW 247 0 min 0,000 mm 0,0 UV-I 80 W/m 2,9 C -1,7 C 38,6 km/h (5 Bft) 94,34 %
30.10.2017 13:58 7,2 C 8,9 C 74 % 1020,7 hPa 0,0 l/m 25,4 km/h (4 Bft) W-SW 247 0 min 0,000 mm 0,0 UV-I 91 W/m 2,9 C -2,1 C 40,2 km/h (6 Bft) 94,00 %
30.10.2017 14:00 7,2 C 8,9 C 74 % 1020,7 hPa 0,0 l/m 25,9 km/h (4 Bft) W-SW 257 0 min 0,152 mm 0,0 UV-I 100 W/m 2,9 C -2,2 C 33,8 km/h (5 Bft) 93,62 %
30.10.2017 14:02 7,2 C 8,9 C 74 % 1020,7 hPa 0,0 l/m 20,6 km/h (4 Bft) SW 221 0 min 0,000 mm 0,0 UV-I 88 W/m 2,9 C -0,5 C 33,8 km/h (5 Bft) 95,74 %
30.10.2017 14:04 7,2 C 8,9 C 74 % 1020,7 hPa 0,0 l/m 24,4 km/h (4 Bft) SW 229 0 min 0,000 mm 0,0 UV-I 70 W/m 2,9 C -1,8 C 38,6 km/h (5 Bft) 94,74 %
30.10.2017 14:06 7,2 C 8,9 C 73 % 1020,8 hPa 0,0 l/m 23,9 km/h (4 Bft) W-SW 250 0 min 0,000 mm 0,0 UV-I 73 W/m 2,7 C -1,6 C 43,5 km/h (6 Bft) 96,23 %
30.10.2017 14:08 7,2 C 8,9 C 73 % 1020,8 hPa 0,0 l/m 31,8 km/h (5 Bft) W 267 0 min 0,000 mm 0,0 UV-I 103 W/m 2,7 C -3,7 C 46,7 km/h (6 Bft) 95,12 %
30.10.2017 14:10 7,2 C 8,9 C 73 % 1021,0 hPa 0,0 l/m 24,5 km/h (4 Bft) W-SW 253 0 min 0,000 mm 0,0 UV-I 189 W/m 2,7 C -1,8 C 32,2 km/h (5 Bft) 95,24 %
30.10.2017 14:12 7,3 C 8,9 C 74 % 1021,0 hPa 0,0 l/m 19,7 km/h (3 Bft) W-SW 250 0 min 0,000 mm 0,0 UV-I 190 W/m 3,0 C -0,1 C 29,0 km/h (5 Bft) 96,23 %
30.10.2017 14:14 7,4 C 8,9 C 74 % 1021,0 hPa 0,0 l/m 16,8 km/h (3 Bft) SW 229 2 min 0,000 mm 0,0 UV-I 291 W/m 3,1 C 1,2 C 25,7 km/h (4 Bft) 93,62 %
30.10.2017 14:16 7,4 C 8,9 C 74 % 1021,1 hPa 0,0 l/m 13,8 km/h (3 Bft) W 259 0 min 0,000 mm 0,0 UV-I 73 W/m 3,1 C 2,6 C 24,1 km/h (4 Bft) 94,34 %
30.10.2017 14:18 7,4 C 8,9 C 74 % 1021,1 hPa 0,0 l/m 11,5 km/h (2 Bft) NW 311 0 min 0,000 mm 0,0 UV-I 62 W/m 3,1 C 3,8 C 17,7 km/h (3 Bft) 97,37 %
30.10.2017 14:20 7,4 C 8,9 C 74 % 1021,1 hPa 0,0 l/m 14,5 km/h (3 Bft) W-SW 240 0 min 0,000 mm 0,0 UV-I 61 W/m 3,1 C 2,2 C 25,7 km/h (4 Bft) 95,45 %
30.10.2017 14:22 7,4 C 8,9 C 73 % 1021,1 hPa 0,0 l/m 21,7 km/h (4 Bft) W-NW 287 0 min 0,000 mm 0,0 UV-I 75 W/m 2,9 C -0,7 C 33,8 km/h (5 Bft) 98,21 %
30.10.2017 14:24 7,3 C 8,9 C 74 % 1021,2 hPa 0,0 l/m 15,9 km/h (3 Bft) W-SW 257 0 min 0,000 mm 0,0 UV-I 94 W/m 3,0 C 1,5 C 30,6 km/h (5 Bft) 95,12 %
30.10.2017 14:26 7,3 C 8,9 C 73 % 1021,1 hPa 0,0 l/m 18,7 km/h (3 Bft) W-SW 245 0 min 0,000 mm 0,0 UV-I 139 W/m 2,8 C 0,3 C 30,6 km/h (5 Bft) 98,11 %
30.10.2017 14:28 7,3 C 8,9 C 73 % 1021,2 hPa 0,0 l/m 14,1 km/h (3 Bft) W-SW 245 0 min 0,000 mm 0,0 UV-I 135 W/m 2,8 C 2,3 C 25,7 km/h (4 Bft) 98,00 %
30.10.2017 14:30 7,3 C 8,9 C 74 % 1021,2 hPa 0,0 l/m 16,5 km/h (3 Bft) W-SW 250 0 min 0,000 mm 0,0 UV-I 126 W/m 3,0 C 1,2 C 22,5 km/h (4 Bft) 97,56 %
30.10.2017 14:32 7,4 C 8,9 C 74 % 1021,3 hPa 0,0 l/m 11,5 km/h (2 Bft) W-SW 255 0 min 0,000 mm 0,0 UV-I 89 W/m 3,1 C 3,8 C 19,3 km/h (3 Bft) 95,45 %
30.10.2017 14:34 7,3 C 8,9 C 73 % 1021,4 hPa 0,0 l/m 24,5 km/h (4 Bft) W-SW 248 0 min 0,000 mm 0,0 UV-I 53 W/m 2,8 C -1,7 C 37,0 km/h (5 Bft) 100,00 %
30.10.2017 14:36 7,3 C 8,9 C 74 % 1021,4 hPa 0,0 l/m 27,8 km/h (4 Bft) W-SW 257 0 min 0,000 mm 0,0 UV-I 36 W/m 3,0 C -2,6 C 43,5 km/h (6 Bft) 100,00 %
30.10.2017 14:38 7,2 C 8,9 C 75 % 1021,4 hPa 0,0 l/m 22,3 km/h (4 Bft) W-SW 244 0 min 0,000 mm 0,0 UV-I 48 W/m 3,1 C -1,1 C 35,4 km/h (5 Bft) 100,00 %
30.10.2017 14:40 7,0 C 8,9 C 78 % 1021,6 hPa 0,0 l/m 20,9 km/h (4 Bft) W-SW 243 0 min 0,000 mm 0,0 UV-I 56 W/m 3,4 C -0,9 C 33,8 km/h (5 Bft) 95,45 %
30.10.2017 14:42 6,8 C 8,9 C 79 % 1021,6 hPa 0,0 l/m 19,2 km/h (3 Bft) W-SW 255 0 min 0,000 mm 0,0 UV-I 80 W/m 3,4 C -0,5 C 29,0 km/h (5 Bft) 100,00 %
30.10.2017 14:44 6,6 C 8,9 C 80 % 1021,5 hPa 0,0 l/m 20,0 km/h (4 Bft) W-SW 244 0 min 0,000 mm 0,0 UV-I 105 W/m 3,4 C -1,1 C 25,7 km/h (4 Bft) 98,00 %
30.10.2017 14:46 6,5 C 8,9 C 80 % 1021,5 hPa 0,0 l/m 17,9 km/h (3 Bft) W-SW 244 0 min 0,000 mm 0,0 UV-I 97 W/m 3,3 C -0,4 C 30,6 km/h (5 Bft) 100,00 %
30.10.2017 14:48 6,4 C 8,9 C 81 % 1021,6 hPa 0,0 l/m 17,7 km/h (3 Bft) W-SW 254 0 min 0,000 mm 0,0 UV-I 101 W/m 3,4 C -0,4 C 27,4 km/h (4 Bft) 97,56 %
30.10.2017 14:50 6,4 C 8,9 C 81 % 1021,7 hPa 0,0 l/m 18,4 km/h (3 Bft) W 279 0 min 0,000 mm 0,0 UV-I 121 W/m 3,4 C -0,7 C 25,7 km/h (4 Bft) 100,00 %
30.10.2017 14:52 6,4 C 8,9 C 81 % 1021,7 hPa 0,0 l/m 20,7 km/h (4 Bft) W-SW 248 0 min 0,000 mm 0,0 UV-I 118 W/m 3,4 C -1,6 C 30,6 km/h (5 Bft) 100,00 %
30.10.2017 14:54 6,4 C 8,9 C 80 % 1021,8 hPa 0,0 l/m 16,2 km/h (3 Bft) SW 220 0 min 0,000 mm 0,0 UV-I 81 W/m 3,2 C 0,2 C 24,1 km/h (4 Bft) 98,21 %
30.10.2017 14:56 6,4 C 8,9 C 80 % 1021,8 hPa 0,0 l/m 22,3 km/h (4 Bft) W-SW 252 0 min 0,000 mm 0,0 UV-I 53 W/m 3,2 C -2,2 C 33,8 km/h (5 Bft) 100,00 %
30.10.2017 14:58 6,4 C 8,9 C 79 % 1021,8 hPa 0,0 l/m 18,2 km/h (3 Bft) W-SW 239 0 min 0,000 mm 0,0 UV-I 49 W/m 3,0 C -0,7 C 32,2 km/h (5 Bft) 100,00 %
30.10.2017 15:00 6,3 C 8,9 C 80 % 1021,8 hPa 0,0 l/m 18,1 km/h (3 Bft) W-SW 254 0 min 0,076 mm 0,0 UV-I 66 W/m 3,1 C -0,7 C 29,0 km/h (5 Bft) 100,00 %
30.10.2017 15:02 6,2 C 8,9 C 80 % 1021,8 hPa 0,0 l/m 21,5 km/h (4 Bft) W 263 0 min 0,000 mm 0,0 UV-I 81 W/m 3,0 C -2,2 C 29,0 km/h (5 Bft) 100,00 %
30.10.2017 15:04 6,1 C 8,9 C 81 % 1021,8 hPa 0,0 l/m 15,3 km/h (3 Bft) W 274 0 min 0,000 mm 0,0 UV-I 80 W/m 3,1 C 0,3 C 24,1 km/h (4 Bft) 97,50 %
30.10.2017 15:06 5,9 C 8,9 C 82 % 1021,8 hPa 0,0 l/m 17,2 km/h (3 Bft) W-NW 297 0 min 0,000 mm 0,0 UV-I 81 W/m 3,1 C -0,9 C 25,7 km/h (4 Bft) 100,00 %
30.10.2017 15:08 5,8 C 8,9 C 82 % 1021,8 hPa 0,0 l/m 13,9 km/h (3 Bft) W 261 0 min 0,000 mm 0,0 UV-I 76 W/m 3,0 C 0,6 C 24,1 km/h (4 Bft) 100,00 %
30.10.2017 15:10 5,7 C 8,9 C 82 % 1021,8 hPa 0,0 l/m 15,4 km/h (3 Bft) W 267 0 min 0,000 mm 0,0 UV-I 100 W/m 2,9 C -0,3 C 32,2 km/h (5 Bft) 100,00 %
30.10.2017 15:12 5,7 C 8,9 C 82 % 1021,8 hPa 0,0 l/m 20,1 km/h (4 Bft) SW 225 2 min 0,000 mm 0,0 UV-I 156 W/m 2,9 C -2,3 C 29,0 km/h (5 Bft) 100,00 %
30.10.2017 15:14 5,6 C 8,9 C 82 % 1021,7 hPa 0,0 l/m 18,4 km/h (3 Bft) W-SW 238 2 min 0,000 mm 0,0 UV-I 199 W/m 2,8 C -1,8 C 30,6 km/h (5 Bft) 100,00 %
30.10.2017 15:16 5,6 C 8,9 C 82 % 1021,7 hPa 0,0 l/m 19,1 km/h (3 Bft) W-SW 249 2 min 0,000 mm 0,0 UV-I 192 W/m 2,8 C -2,0 C 30,6 km/h (5 Bft) 98,21 %
30.10.2017 15:18 5,7 C 8,9 C 81 % 1021,8 hPa 0,0 l/m 16,6 km/h (3 Bft) W-SW 256 2 min 0,000 mm 0,0 UV-I 177 W/m 2,7 C -0,8 C 27,4 km/h (4 Bft) 100,00 %
30.10.2017 15:20 5,7 C 8,9 C 82 % 1021,7 hPa 0,0 l/m 14,4 km/h (3 Bft) W-SW 252 2 min 0,000 mm 0,0 UV-I 170 W/m 2,9 C 0,2 C 19,3 km/h (3 Bft) 98,11 %
30.10.2017 15:22 5,7 C 8,9 C 82 % 1021,7 hPa 0,0 l/m 14,9 km/h (3 Bft) W-SW 256 2 min 0,000 mm 0,0 UV-I 165 W/m 2,9 C -0,0 C 22,5 km/h (4 Bft) 100,00 %
30.10.2017 15:24 5,7 C 8,9 C 82 % 1021,8 hPa 0,0 l/m 14,9 km/h (3 Bft) W 268 2 min 0,000 mm 0,0 UV-I 159 W/m 2,9 C -0,0 C 20,9 km/h (4 Bft) 100,00 %
30.10.2017 15:26 5,7 C 8,9 C 82 % 1021,8 hPa 0,0 l/m 12,0 km/h (2 Bft) W-SW 244 2 min 0,000 mm 0,0 UV-I 155 W/m 2,9 C 1,6 C 16,1 km/h (3 Bft) 100,00 %
30.10.2017 15:28 5,8 C 8,9 C 82 % 1021,7 hPa 0,0 l/m 12,2 km/h (2 Bft) W-SW 242 2 min 0,000 mm 0,0 UV-I 151 W/m 3,0 C 1,6 C 17,7 km/h (3 Bft) 100,00 %
30.10.2017 15:30 5,8 C 8,9 C 82 % 1021,7 hPa 0,0 l/m 14,6 km/h (3 Bft) W 263 2 min 0,000 mm 0,0 UV-I 113 W/m 3,0 C 0,2 C 24,1 km/h (4 Bft) 100,00 %
30.10.2017 15:32 5,8 C 8,9 C 82 % 1021,7 hPa 0,0 l/m 14,1 km/h (3 Bft) W-SW 248 2 min 0,000 mm 0,0 UV-I 147 W/m 3,0 C 0,5 C 20,9 km/h (4 Bft) 100,00 %
30.10.2017 15:34 5,8 C 8,9 C 82 % 1021,6 hPa 0,0 l/m 16,7 km/h (3 Bft) W 268 2 min 0,000 mm 0,0 UV-I 141 W/m 3,0 C -0,8 C 24,1 km/h (4 Bft) 100,00 %
30.10.2017 15:36 5,8 C 8,9 C 82 % 1021,6 hPa 0,0 l/m 13,9 km/h (3 Bft) SW 215 2 min 0,000 mm 0,0 UV-I 136 W/m 3,0 C 0,6 C 19,3 km/h (3 Bft) 97,62 %
30.10.2017 15:38 5,8 C 8,9 C 82 % 1021,7 hPa 0,0 l/m 15,9 km/h (3 Bft) W-SW 251 2 min 0,000 mm 0,0 UV-I 120 W/m 3,0 C -0,4 C 20,9 km/h (4 Bft) 98,11 %
30.10.2017 15:40 5,8 C 8,9 C 82 % 1021,7 hPa 0,0 l/m 15,4 km/h (3 Bft) W-SW 255 0 min 0,000 mm 0,0 UV-I 54 W/m 3,0 C -0,2 C 24,1 km/h (4 Bft) 97,87 %
30.10.2017 15:42 5,7 C 8,9 C 82 % 1021,8 hPa 0,0 l/m 11,4 km/h (2 Bft) W-SW 252 0 min 0,000 mm 0,0 UV-I 76 W/m 2,9 C 1,9 C 20,9 km/h (4 Bft) 100,00 %
30.10.2017 15:44 5,7 C 8,9 C 83 % 1021,8 hPa 0,0 l/m 15,7 km/h (3 Bft) W-SW 252 0 min 0,000 mm 0,0 UV-I 79 W/m 3,0 C -0,4 C 20,9 km/h (4 Bft) 100,00 %
30.10.2017 15:46 5,7 C 8,9 C 83 % 1021,7 hPa 0,0 l/m 13,7 km/h (3 Bft) S-SW 199 2 min 0,000 mm 0,0 UV-I 121 W/m 3,0 C 0,6 C 20,9 km/h (4 Bft) 97,14 %
30.10.2017 15:48 5,7 C 8,9 C 83 % 1021,8 hPa 0,0 l/m 16,0 km/h (3 Bft) W-SW 247 2 min 0,000 mm 0,0 UV-I 132 W/m 3,0 C -0,6 C 24,1 km/h (4 Bft) 100,00 %
30.10.2017 15:50 5,8 C 8,9 C 83 % 1021,8 hPa 0,0 l/m 13,6 km/h (3 Bft) W-SW 249 2 min 0,000 mm 0,0 UV-I 137 W/m 3,1 C 0,8 C 22,5 km/h (4 Bft) 100,00 %
30.10.2017 15:52 5,9 C 8,9 C 83 % 1021,8 hPa 0,0 l/m 14,6 km/h (3 Bft) W-SW 246 2 min 0,000 mm 0,0 UV-I 130 W/m 3,2 C 0,4 C 20,9 km/h (4 Bft) 100,00 %
30.10.2017 15:54 5,9 C 8,9 C 82 % 1021,9 hPa 0,0 l/m 16,1 km/h (3 Bft) W-SW 250 2 min 0,000 mm 0,0 UV-I 127 W/m 3,1 C -0,4 C 19,3 km/h (3 Bft) 100,00 %
30.10.2017 15:56 6,1 C 8,9 C 82 % 1022,0 hPa 0,0 l/m 14,2 km/h (3 Bft) W 270 2 min 0,000 mm 0,0 UV-I 122 W/m 3,3 C 0,8 C 22,5 km/h (4 Bft) 97,56 %
30.10.2017 15:58 6,2 C 8,9 C 81 % 1022,0 hPa 0,0 l/m 16,5 km/h (3 Bft) W 265 2 min 0,000 mm 0,0 UV-I 85 W/m 3,2 C -0,2 C 25,7 km/h (4 Bft) 100,00 %
30.10.2017 16:00 6,2 C 8,9 C 81 % 1022,1 hPa 0,0 l/m 14,5 km/h (3 Bft) W-SW 257 2 min 0,077 mm 0,0 UV-I 85 W/m 3,2 C 0,8 C 19,3 km/h (3 Bft) 98,00 %
30.10.2017 16:02 6,2 C 8,9 C 81 % 1022,1 hPa 0,0 l/m 14,3 km/h (3 Bft) SW 230 2 min 0,000 mm 0,0 UV-I 83 W/m 3,2 C 0,9 C 20,9 km/h (4 Bft) 98,00 %
30.10.2017 16:04 6,2 C 8,9 C 80 % 1022,1 hPa 0,0 l/m 14,9 km/h (3 Bft) W-SW 250 2 min 0,000 mm 0,0 UV-I 69 W/m 3,0 C 0,6 C 24,1 km/h (4 Bft) 95,45 %
30.10.2017 16:06 6,2 C 8,9 C 80 % 1022,2 hPa 0,0 l/m 18,1 km/h (3 Bft) W-SW 239 2 min 0,000 mm 0,0 UV-I 77 W/m 3,0 C -0,9 C 29,0 km/h (5 Bft) 97,56 %
30.10.2017 16:08 6,2 C 8,9 C 80 % 1022,3 hPa 0,0 l/m 16,0 km/h (3 Bft) W-SW 247 2 min 0,000 mm 0,0 UV-I 75 W/m 3,0 C 0,1 C 22,5 km/h (4 Bft) 98,11 %
30.10.2017 16:10 6,2 C 8,9 C 80 % 1022,3 hPa 0,0 l/m 13,9 km/h (3 Bft) W-SW 240 2 min 0,000 mm 0,0 UV-I 68 W/m 3,0 C 1,1 C 20,9 km/h (4 Bft) 98,00 %
30.10.2017 16:12 6,3 C 8,9 C 80 % 1022,4 hPa 0,0 l/m 14,6 km/h (3 Bft) W-SW 257 2 min 0,000 mm 0,0 UV-I 53 W/m 3,1 C 0,8 C 24,1 km/h (4 Bft) 97,56 %
30.10.2017 16:14 6,3 C 8,9 C 80 % 1022,4 hPa 0,0 l/m 15,4 km/h (3 Bft) SW 216 0 min 0,000 mm 0,0 UV-I 27 W/m 3,1 C 0,5 C 24,1 km/h (4 Bft) 94,00 %
30.10.2017 16:16 6,3 C 8,9 C 80 % 1022,5 hPa 0,0 l/m 18,1 km/h (3 Bft) W 273 0 min 0,000 mm 0,0 UV-I 21 W/m 3,1 C -0,7 C 24,1 km/h (4 Bft) 97,62 %
30.10.2017 16:18 6,3 C 8,9 C 80 % 1022,5 hPa 0,0 l/m 11,1 km/h (2 Bft) W-SW 254 0 min 0,000 mm 0,0 UV-I 19 W/m 3,1 C 2,8 C 20,9 km/h (4 Bft) 98,11 %
30.10.2017 16:20 6,2 C 8,9 C 80 % 1022,5 hPa 0,0 l/m 12,8 km/h (3 Bft) W-SW 254 0 min 0,000 mm 0,0 UV-I 19 W/m 3,0 C 1,7 C 19,3 km/h (3 Bft) 100,00 %
30.10.2017 16:22 6,2 C 8,9 C 80 % 1022,5 hPa 0,0 l/m 12,0 km/h (2 Bft) W 280 0 min 0,000 mm 0,0 UV-I 21 W/m 3,0 C 2,1 C 17,7 km/h (3 Bft) 94,64 %
30.10.2017 16:24 6,2 C 8,9 C 79 % 1022,6 hPa 0,0 l/m 11,1 km/h (2 Bft) W 269 0 min 0,000 mm 0,0 UV-I 20 W/m 2,8 C 2,7 C 16,1 km/h (3 Bft) 98,11 %
30.10.2017 16:26 6,2 C 8,9 C 79 % 1022,6 hPa 0,0 l/m 10,3 km/h (2 Bft) W 264 0 min 0,000 mm 0,0 UV-I 18 W/m 2,8 C 3,2 C 17,7 km/h (3 Bft) 97,87 %
30.10.2017 16:28 6,2 C 8,9 C 78 % 1022,7 hPa 0,0 l/m 15,3 km/h (3 Bft) W 279 0 min 0,000 mm 0,0 UV-I 20 W/m 2,7 C 0,4 C 24,1 km/h (4 Bft) 94,34 %
30.10.2017 16:30 6,3 C 8,9 C 78 % 1022,7 hPa 0,0 l/m 11,9 km/h (2 Bft) W 267 2 min 0,000 mm 0,0 UV-I 22 W/m 2,8 C 2,3 C 16,1 km/h (3 Bft) 97,73 %
30.10.2017 16:32 6,3 C 8,9 C 79 % 1022,8 hPa 0,0 l/m 12,8 km/h (3 Bft) W-SW 247 2 min 0,000 mm 0,0 UV-I 20 W/m 2,9 C 1,8 C 20,9 km/h (4 Bft) 96,00 %
30.10.2017 16:34 6,3 C 8,9 C 79 % 1022,7 hPa 0,0 l/m 9,9 km/h (2 Bft) W 271 2 min 0,000 mm 0,0 UV-I 17 W/m 2,9 C 3,6 C 16,1 km/h (3 Bft) 97,56 %
30.10.2017 16:36 6,3 C 8,9 C 80 % 1022,7 hPa 0,0 l/m 8,3 km/h (2 Bft) W 263 2 min 0,000 mm 0,0 UV-I 13 W/m 3,1 C 4,7 C 16,1 km/h (3 Bft) 97,73 %
30.10.2017 16:38 6,2 C 8,9 C 80 % 1022,7 hPa 0,0 l/m 10,9 km/h (2 Bft) W-SW 257 0 min 0,000 mm 0,0 UV-I 12 W/m 3,0 C 2,8 C 16,1 km/h (3 Bft) 97,87 %
30.10.2017 16:40 6,2 C 8,9 C 80 % 1022,7 hPa 0,0 l/m 10,8 km/h (2 Bft) W-SW 249 0 min 0,000 mm 0,0 UV-I 8 W/m 3,0 C 2,9 C 20,9 km/h (4 Bft) 97,87 %
30.10.2017 16:42 6,2 C 8,9 C 79 % 1022,7 hPa 0,0 l/m 14,6 km/h (3 Bft) W 280 0 min 0,000 mm 0,0 UV-I 7 W/m 2,8 C 0,7 C 22,5 km/h (4 Bft) 100,00 %
30.10.2017 16:44 6,2 C 8,9 C 79 % 1022,7 hPa 0,0 l/m 17,7 km/h (3 Bft) W-SW 254 0 min 0,000 mm 0,0 UV-I 5 W/m 2,8 C -0,7 C 24,1 km/h (4 Bft) 97,56 %
30.10.2017 16:46 6,2 C 8,9 C 79 % 1022,8 hPa 0,0 l/m 15,3 km/h (3 Bft) W-NW 297 0 min 0,000 mm 0,0 UV-I 5 W/m 2,8 C 0,4 C 27,4 km/h (4 Bft) 97,62 %
30.10.2017 16:48 6,1 C 8,9 C 80 % 1022,9 hPa 0,2 l/m 18,0 km/h (3 Bft) W 277 0 min 0,000 mm 0,0 UV-I 0 W/m 2,9 C -1,0 C 27,4 km/h (4 Bft) 100,00 %
30.10.2017 16:50 6,1 C 8,9 C 81 % 1023,2 hPa 0,0 l/m 11,5 km/h (2 Bft) W 276 0 min 0,000 mm 0,0 UV-I 0 W/m 3,1 C 2,3 C 19,3 km/h (3 Bft) 100,00 %
30.10.2017 16:52 5,9 C 8,9 C 82 % 1023,2 hPa 0,0 l/m 10,7 km/h (2 Bft) W-SW 257 0 min 0,000 mm 0,0 UV-I 0 W/m 3,1 C 2,6 C 22,5 km/h (4 Bft) 98,00 %
30.10.2017 16:54 5,7 C 8,9 C 83 % 1023,1 hPa 0,0 l/m 12,4 km/h (3 Bft) W 269 0 min 0,000 mm 0,0 UV-I 0 W/m 3,0 C 1,3 C 22,5 km/h (4 Bft) 94,44 %
30.10.2017 16:56 5,5 C 8,9 C 84 % 1023,1 hPa 0,2 l/m 17,8 km/h (3 Bft) W 259 0 min 0,000 mm 0,0 UV-I 0 W/m 3,0 C -1,6 C 24,1 km/h (4 Bft) 95,45 %
30.10.2017 16:58 5,4 C 8,9 C 85 % 1023,1 hPa 0,0 l/m 22,5 km/h (4 Bft) W 261 0 min 0,000 mm 0,0 UV-I 0 W/m 3,1 C -3,6 C 33,8 km/h (5 Bft) 96,61 %
30.10.2017 17:00 5,3 C 8,9 C 86 % 1023,1 hPa 0,0 l/m 18,7 km/h (3 Bft) W 262 0 min 0,000 mm 0,0 UV-I 0 W/m 3,2 C -2,3 C 30,6 km/h (5 Bft) 97,56 %
30.10.2017 17:02 5,2 C 8,9 C 86 % 1023,2 hPa 0,0 l/m 19,6 km/h (3 Bft) W 259 0 min 0,025 mm 0,0 UV-I 0 W/m 3,1 C -2,8 C 27,4 km/h (4 Bft) 98,11 %
30.10.2017 17:04 5,1 C 8,9 C 87 % 1023,3 hPa 0,2 l/m 20,2 km/h (4 Bft) W 263 0 min 0,000 mm 0,0 UV-I 0 W/m 3,1 C -3,1 C 32,2 km/h (5 Bft) 98,00 %
30.10.2017 17:06 5,1 C 8,9 C 87 % 1023,2 hPa 0,0 l/m 18,5 km/h (3 Bft) W-SW 249 0 min 0,000 mm 0,0 UV-I 0 W/m 3,1 C -2,4 C 25,7 km/h (4 Bft) 95,12 %
30.10.2017 17:08 4,9 C 8,9 C 88 % 1023,2 hPa 0,2 l/m 17,1 km/h (3 Bft) W-SW 252 0 min 0,000 mm 0,0 UV-I 0 W/m 3,1 C -2,1 C 35,4 km/h (5 Bft) 96,23 %
30.10.2017 17:10 4,9 C 8,9 C 88 % 1023,2 hPa 0,0 l/m 21,5 km/h (4 Bft) W-SW 251 0 min 0,000 mm 0,0 UV-I 0 W/m 3,1 C -3,9 C 38,6 km/h (5 Bft) 97,56 %
30.10.2017 17:12 4,9 C 8,9 C 88 % 1023,2 hPa 0,0 l/m 17,2 km/h (3 Bft) W-SW 255 0 min 0,000 mm 0,0 UV-I 0 W/m 3,1 C -2,1 C 25,7 km/h (4 Bft) 98,00 %
30.10.2017 17:14 4,8 C 8,9 C 88 % 1023,3 hPa 0,0 l/m 17,4 km/h (3 Bft) W-SW 245 0 min 0,000 mm 0,0 UV-I 0 W/m 3,0 C -2,3 C 24,1 km/h (4 Bft) 97,87 %
30.10.2017 17:16 4,8 C 8,9 C 88 % 1023,3 hPa 0,0 l/m 18,3 km/h (3 Bft) W 263 0 min 0,000 mm 0,0 UV-I 0 W/m 3,0 C -2,7 C 30,6 km/h (5 Bft) 97,87 %
30.10.2017 17:18 4,8 C 8,9 C 89 % 1023,4 hPa 0,0 l/m 15,7 km/h (3 Bft) W-SW 248 0 min 0,000 mm 0,0 UV-I 0 W/m 3,1 C -1,5 C 27,4 km/h (4 Bft) 94,74 %
30.10.2017 17:20 4,7 C 8,9 C 89 % 1023,4 hPa 0,0 l/m 15,3 km/h (3 Bft) W-SW 249 0 min 0,000 mm 0,0 UV-I 0 W/m 3,0 C -1,4 C 24,1 km/h (4 Bft) 95,45 %
30.10.2017 17:22 4,7 C 8,9 C 89 % 1023,4 hPa 0,0 l/m 15,4 km/h (3 Bft) W 274 0 min 0,000 mm 0,0 UV-I 0 W/m 3,0 C -1,5 C 24,1 km/h (4 Bft) 98,11 %
30.10.2017 17:24 4,7 C 8,9 C 89 % 1023,4 hPa 0,0 l/m 17,8 km/h (3 Bft) W 262 0 min 0,000 mm 0,0 UV-I 0 W/m 3,0 C -2,6 C 25,7 km/h (4 Bft) 95,74 %
30.10.2017 17:26 4,6 C 8,9 C 89 % 1023,4 hPa 0,0 l/m 13,8 km/h (3 Bft) W-SW 244 0 min 0,000 mm 0,0 UV-I 0 W/m 2,9 C -0,8 C 22,5 km/h (4 Bft) 98,00 %
30.10.2017 17:28 4,6 C 8,9 C 89 % 1023,4 hPa 0,0 l/m 16,2 km/h (3 Bft) W-SW 258 0 min 0,000 mm 0,0 UV-I 0 W/m 2,9 C -2,0 C 20,9 km/h (4 Bft) 97,87 %
30.10.2017 17:30 4,6 C 8,9 C 90 % 1023,5 hPa 0,0 l/m 18,1 km/h (3 Bft) W-SW 250 0 min 0,000 mm 0,0 UV-I 0 W/m 3,1 C -2,9 C 30,6 km/h (5 Bft) 97,62 %
30.10.2017 17:32 4,6 C 8,9 C 90 % 1023,6 hPa 0,0 l/m 15,8 km/h (3 Bft) SW 223 0 min 0,000 mm 0,0 UV-I 0 W/m 3,1 C -1,8 C 24,1 km/h (4 Bft) 94,23 %
30.10.2017 17:34 4,6 C 8,9 C 90 % 1023,6 hPa 0,0 l/m 14,2 km/h (3 Bft) W-SW 248 0 min 0,000 mm 0,0 UV-I 0 W/m 3,1 C -1,0 C 19,3 km/h (3 Bft) 97,78 %
30.10.2017 17:36 4,6 C 8,9 C 90 % 1023,7 hPa 0,0 l/m 12,1 km/h (2 Bft) W 263 0 min 0,000 mm 0,0 UV-I 0 W/m 3,1 C 0,2 C 17,7 km/h (3 Bft) 98,11 %
30.10.2017 17:38 4,6 C 8,9 C 90 % 1023,7 hPa 0,0 l/m 12,9 km/h (3 Bft) W 261 0 min 0,000 mm 0,0 UV-I 0 W/m 3,1 C -0,2 C 19,3 km/h (3 Bft) 97,14 %
30.10.2017 17:40 4,6 C 8,9 C 90 % 1023,7 hPa 0,0 l/m 11,3 km/h (2 Bft) W-SW 242 0 min 0,000 mm 0,0 UV-I 0 W/m 3,1 C 0,7 C 16,1 km/h (3 Bft) 98,00 %
30.10.2017 17:42 4,6 C 8,9 C 90 % 1023,7 hPa 0,0 l/m 11,0 km/h (2 Bft) W 263 0 min 0,000 mm 0,0 UV-I 0 W/m 3,1 C 0,9 C 19,3 km/h (3 Bft) 98,00 %
30.10.2017 17:44 4,6 C 8,9 C 90 % 1023,8 hPa 0,0 l/m 10,4 km/h (2 Bft) W-SW 246 0 min 0,000 mm 0,0 UV-I 0 W/m 3,1 C 1,3 C 17,7 km/h (3 Bft) 98,00 %
30.10.2017 17:46 4,6 C 8,9 C 90 % 1023,8 hPa 0,0 l/m 12,4 km/h (3 Bft) W-SW 242 0 min 0,000 mm 0,0 UV-I 0 W/m 3,1 C 0,1 C 20,9 km/h (4 Bft) 97,37 %
30.10.2017 17:48 4,6 C 8,9 C 90 % 1023,8 hPa 0,0 l/m 9,9 km/h (2 Bft) W 261 0 min 0,000 mm 0,0 UV-I 0 W/m 3,1 C 1,7 C 16,1 km/h (3 Bft) 98,11 %
30.10.2017 17:50 4,6 C 8,9 C 90 % 1023,8 hPa 0,0 l/m 9,1 km/h (2 Bft) W 260 0 min 0,000 mm 0,0 UV-I 0 W/m 3,1 C 2,3 C 14,5 km/h (3 Bft) 97,87 %
30.10.2017 17:52 4,6 C 8,9 C 90 % 1023,9 hPa 0,0 l/m 10,3 km/h (2 Bft) W 259 0 min 0,000 mm 0,0 UV-I 0 W/m 3,1 C 1,4 C 14,5 km/h (3 Bft) 95,74 %
30.10.2017 17:54 4,6 C 8,9 C 90 % 1023,9 hPa 0,0 l/m 9,4 km/h (2 Bft) W-SW 257 0 min 0,000 mm 0,0 UV-I 0 W/m 3,1 C 2,1 C 12,9 km/h (3 Bft) 98,00 %
30.10.2017 17:56 4,6 C 8,9 C 91 % 1023,9 hPa 0,0 l/m 9,3 km/h (2 Bft) W 266 0 min 0,000 mm 0,0 UV-I 0 W/m 3,3 C 2,1 C 14,5 km/h (3 Bft) 97,14 %
30.10.2017 17:58 4,6 C 8,9 C 91 % 1023,9 hPa 0,0 l/m 7,8 km/h (2 Bft) W 277 0 min 0,000 mm 0,0 UV-I 0 W/m 3,3 C 3,4 C 12,9 km/h (3 Bft) 100,00 %
30.10.2017 18:00 4,6 C 8,9 C 91 % 1024,0 hPa 0,0 l/m 6,3 km/h (2 Bft) W 260 0 min 0,025 mm 0,0 UV-I 0 W/m 3,3 C 4,6 C 9,7 km/h (2 Bft) 100,00 %
30.10.2017 18:02 4,6 C 8,9 C 91 % 1024,0 hPa 0,0 l/m 5,6 km/h (1 Bft) W 265 0 min 0,000 mm 0,0 UV-I 0 W/m 3,3 C 4,6 C 11,3 km/h (2 Bft) 100,00 %
30.10.2017 18:04 4,7 C 8,9 C 91 % 1024,0 hPa 0,0 l/m 6,5 km/h (2 Bft) W 263 0 min 0,000 mm 0,0 UV-I 0 W/m 3,4 C 4,6 C 9,7 km/h (2 Bft) 100,00 %
30.10.2017 18:06 4,6 C 8,9 C 91 % 1024,1 hPa 0,0 l/m 4,2 km/h (1 Bft) W 273 0 min 0,000 mm 0,0 UV-I 0 W/m 3,3 C 4,6 C 6,4 km/h (2 Bft) 100,00 %
30.10.2017 18:08 4,6 C 8,9 C 92 % 1024,1 hPa 0,0 l/m 4,4 km/h (1 Bft) W 273 0 min 0,000 mm 0,0 UV-I 0 W/m 3,4 C 4,6 C 8,0 km/h (2 Bft) 100,00 %
30.10.2017 18:10 4,7 C 8,9 C 91 % 1024,2 hPa 0,0 l/m 5,0 km/h (1 Bft) W 276 0 min 0,000 mm 0,0 UV-I 0 W/m 3,4 C 4,7 C 11,3 km/h (2 Bft) 100,00 %
30.10.2017 18:12 4,7 C 8,9 C 92 % 1024,4 hPa 0,0 l/m 3,0 km/h (1 Bft) W 275 0 min 0,000 mm 0,0 UV-I 0 W/m 3,5 C 4,7 C 4,8 km/h (1 Bft) 100,00 %
30.10.2017 18:14 4,7 C 8,9 C 92 % 1024,4 hPa 0,0 l/m 6,2 km/h (2 Bft) W-NW 282 0 min 0,000 mm 0,0 UV-I 0 W/m 3,5 C 4,7 C 12,9 km/h (3 Bft) 97,56 %
30.10.2017 18:16 4,7 C 8,9 C 92 % 1024,4 hPa 0,0 l/m 5,2 km/h (1 Bft) W 270 0 min 0,000 mm 0,0 UV-I 0 W/m 3,5 C 4,7 C 9,7 km/h (2 Bft) 100,00 %
30.10.2017 18:18 4,7 C 8,9 C 92 % 1024,4 hPa 0,2 l/m 11,8 km/h (2 Bft) W-SW 250 0 min 0,000 mm 0,0 UV-I 0 W/m 3,5 C 0,5 C 22,5 km/h (4 Bft) 92,86 %
30.10.2017 18:20 4,7 C 8,9 C 92 % 1024,3 hPa 0,0 l/m 10,1 km/h (2 Bft) W-SW 253 0 min 0,000 mm 0,0 UV-I 0 W/m 3,5 C 1,7 C 17,7 km/h (3 Bft) 97,37 %
30.10.2017 18:22 4,7 C 8,9 C 92 % 1024,3 hPa 0,0 l/m 10,5 km/h (2 Bft) W-SW 248 0 min 0,000 mm 0,0 UV-I 0 W/m 3,5 C 1,4 C 19,3 km/h (3 Bft) 97,92 %
30.10.2017 18:24 4,7 C 8,9 C 92 % 1024,4 hPa 0,0 l/m 14,5 km/h (3 Bft) W-SW 250 0 min 0,000 mm 0,0 UV-I 0 W/m 3,5 C -1,0 C 22,5 km/h (4 Bft) 95,74 %
30.10.2017 18:26 4,7 C 8,9 C 92 % 1024,5 hPa 0,0 l/m 10,2 km/h (2 Bft) W-SW 248 0 min 0,000 mm 0,0 UV-I 0 W/m 3,5 C 1,6 C 12,9 km/h (3 Bft) 98,11 %
30.10.2017 18:28 4,7 C 8,9 C 91 % 1024,5 hPa 0,0 l/m 10,8 km/h (2 Bft) W-SW 254 0 min 0,000 mm 0,0 UV-I 0 W/m 3,4 C 1,2 C 19,3 km/h (3 Bft) 97,14 %
30.10.2017 18:30 4,7 C 8,9 C 92 % 1024,5 hPa 0,0 l/m 12,1 km/h (2 Bft) W 273 0 min 0,000 mm 0,0 UV-I 0 W/m 3,5 C 0,3 C 20,9 km/h (4 Bft) 98,21 %
30.10.2017 18:32 4,6 C 8,9 C 91 % 1024,4 hPa 0,0 l/m 7,2 km/h (2 Bft) W 273 0 min 0,000 mm 0,0 UV-I 0 W/m 3,3 C 3,9 C 11,3 km/h (2 Bft) 96,08 %
30.10.2017 18:34 4,6 C 8,9 C 91 % 1024,5 hPa 0,0 l/m 9,8 km/h (2 Bft) W-SW 247 0 min 0,000 mm 0,0 UV-I 0 W/m 3,3 C 1,8 C 16,1 km/h (3 Bft) 97,73 %
30.10.2017 18:36 4,6 C 8,9 C 91 % 1024,5 hPa 0,0 l/m 11,5 km/h (2 Bft) W 263 0 min 0,000 mm 0,0 UV-I 0 W/m 3,3 C 0,6 C 17,7 km/h (3 Bft) 96,00 %
30.10.2017 18:38 4,6 C 8,9 C 91 % 1024,6 hPa 0,0 l/m 8,4 km/h (2 Bft) W 262 0 min 0,000 mm 0,0 UV-I 0 W/m 3,3 C 2,9 C 12,9 km/h (3 Bft) 97,14 %
30.10.2017 18:40 4,6 C 8,9 C 91 % 1024,6 hPa 0,0 l/m 10,1 km/h (2 Bft) W-SW 249 0 min 0,000 mm 0,0 UV-I 0 W/m 3,3 C 1,6 C 12,9 km/h (3 Bft) 93,10 %
30.10.2017 18:42 4,5 C 8,9 C 91 % 1024,7 hPa 0,0 l/m 9,3 km/h (2 Bft) W-NW 283 0 min 0,000 mm 0,0 UV-I 0 W/m 3,2 C 2,0 C 14,5 km/h (3 Bft) 97,37 %
30.10.2017 18:44 4,5 C 8,9 C 91 % 1024,7 hPa 0,0 l/m 8,6 km/h (2 Bft) W-SW 242 0 min 0,000 mm 0,0 UV-I 0 W/m 3,2 C 2,6 C 12,9 km/h (3 Bft) 98,00 %
30.10.2017 18:46 4,5 C 8,9 C 91 % 1024,7 hPa 0,0 l/m 10,1 km/h (2 Bft) W-SW 244 0 min 0,000 mm 0,0 UV-I 0 W/m 3,2 C 1,4 C 12,9 km/h (3 Bft) 97,62 %
30.10.2017 18:48 4,5 C 8,9 C 91 % 1024,7 hPa 0,0 l/m 10,2 km/h (2 Bft) W-SW 246 0 min 0,000 mm 0,0 UV-I 0 W/m 3,2 C 1,4 C 14,5 km/h (3 Bft) 98,28 %
30.10.2017 18:50 4,5 C 8,9 C 91 % 1024,7 hPa 0,0 l/m 13,1 km/h (3 Bft) W 263 0 min 0,000 mm 0,0 UV-I 0 W/m 3,2 C -0,5 C 17,7 km/h (3 Bft) 100,00 %
30.10.2017 18:52 4,4 C 8,9 C 91 % 1024,7 hPa 0,0 l/m 10,0 km/h (2 Bft) W-SW 254 0 min 0,000 mm 0,0 UV-I 0 W/m 3,1 C 1,4 C 14,5 km/h (3 Bft) 100,00 %
30.10.2017 18:54 4,4 C 8,9 C 91 % 1024,7 hPa 0,0 l/m 13,9 km/h (3 Bft) W 263 0 min 0,000 mm 0,0 UV-I 0 W/m 3,1 C -1,1 C 20,9 km/h (4 Bft) 100,00 %
30.10.2017 18:56 4,5 C 8,9 C 91 % 1024,8 hPa 0,0 l/m 11,8 km/h (2 Bft) W-SW 255 0 min 0,000 mm 0,0 UV-I 0 W/m 3,2 C 0,3 C 16,1 km/h (3 Bft) 100,00 %
30.10.2017 18:58 4,5 C 8,9 C 91 % 1024,8 hPa 0,0 l/m 13,7 km/h (3 Bft) W 259 0 min 0,000 mm 0,0 UV-I 0 W/m 3,2 C -0,8 C 17,7 km/h (3 Bft) 100,00 %
30.10.2017 19:00 4,6 C 8,9 C 90 % 1024,8 hPa 0,0 l/m 14,5 km/h (3 Bft) W-SW 247 0 min 0,000 mm 0,0 UV-I 0 W/m 3,1 C -1,1 C 20,9 km/h (4 Bft) 100,00 %
30.10.2017 19:02 4,6 C 8,9 C 90 % 1024,8 hPa 0,0 l/m 14,3 km/h (3 Bft) W 270 0 min 0,000 mm 0,0 UV-I 0 W/m 3,1 C -1,0 C 17,7 km/h (3 Bft) 97,87 %
30.10.2017 19:04 4,6 C 8,9 C 90 % 1024,7 hPa 0,0 l/m 13,6 km/h (3 Bft) W 260 0 min 0,000 mm 0,0 UV-I 0 W/m 3,1 C -0,7 C 19,3 km/h (3 Bft) 97,37 %
30.10.2017 19:06 4,6 C 8,9 C 90 % 1024,9 hPa 0,0 l/m 14,4 km/h (3 Bft) W-SW 245 0 min 0,000 mm 0,0 UV-I 0 W/m 3,1 C -1,1 C 19,3 km/h (3 Bft) 100,00 %
30.10.2017 19:08 4,6 C 8,9 C 90 % 1025,0 hPa 0,0 l/m 11,4 km/h (2 Bft) W 281 0 min 0,000 mm 0,0 UV-I 0 W/m 3,1 C 0,7 C 19,3 km/h (3 Bft) 98,21 %
30.10.2017 19:10 4,7 C 8,9 C 90 % 1025,0 hPa 0,0 l/m 12,1 km/h (2 Bft) W 259 0 min 0,000 mm 0,0 UV-I 0 W/m 3,2 C 0,3 C 16,1 km/h (3 Bft) 97,73 %
30.10.2017 19:12 4,7 C 8,9 C 90 % 1024,9 hPa 0,0 l/m 12,3 km/h (3 Bft) W-SW 240 0 min 0,000 mm 0,0 UV-I 0 W/m 3,2 C 0,2 C 19,3 km/h (3 Bft) 100,00 %
30.10.2017 19:14 4,7 C 8,9 C 89 % 1025,0 hPa 0,0 l/m 13,7 km/h (3 Bft) W-SW 255 0 min 0,000 mm 0,0 UV-I 0 W/m 3,0 C -0,6 C 20,9 km/h (4 Bft) 96,00 %
30.10.2017 19:16 4,7 C 8,9 C 89 % 1025,0 hPa 0,0 l/m 13,9 km/h (3 Bft) W 259 0 min 0,000 mm 0,0 UV-I 0 W/m 3,0 C -0,7 C 19,3 km/h (3 Bft) 97,56 %
30.10.2017 19:18 4,7 C 8,9 C 89 % 1025,1 hPa 0,0 l/m 13,2 km/h (3 Bft) SW 233 0 min 0,000 mm 0,0 UV-I 0 W/m 3,0 C -0,3 C 19,3 km/h (3 Bft) 100,00 %
30.10.2017 19:20 4,7 C 8,9 C 89 % 1025,0 hPa 0,0 l/m 12,7 km/h (3 Bft) W-SW 247 0 min 0,000 mm 0,0 UV-I 0 W/m 3,0 C -0,0 C 17,7 km/h (3 Bft) 100,00 %
30.10.2017 19:22 4,7 C 8,9 C 89 % 1025,0 hPa 0,0 l/m 12,4 km/h (3 Bft) SW 229 0 min 0,000 mm 0,0 UV-I 0 W/m 3,0 C 0,2 C 20,9 km/h (4 Bft) 100,00 %
30.10.2017 19:24 4,7 C 8,9 C 89 % 1025,0 hPa 0,0 l/m 13,8 km/h (3 Bft) W-SW 250 0 min 0,000 mm 0,0 UV-I 0 W/m 3,0 C -0,6 C 17,7 km/h (3 Bft) 100,00 %
30.10.2017 19:26 4,7 C 8,9 C 88 % 1025,0 hPa 0,0 l/m 11,6 km/h (2 Bft) W 259 0 min 0,000 mm 0,0 UV-I 0 W/m 2,9 C 0,7 C 17,7 km/h (3 Bft) 100,00 %
30.10.2017 19:28 4,7 C 8,9 C 88 % 1025,1 hPa 0,0 l/m 14,5 km/h (3 Bft) W-SW 254 0 min 0,000 mm 0,0 UV-I 0 W/m 2,9 C -1,0 C 24,1 km/h (4 Bft) 100,00 %
30.10.2017 19:30 4,7 C 8,9 C 88 % 1025,1 hPa 0,0 l/m 14,8 km/h (3 Bft) W-SW 242 0 min 0,000 mm 0,0 UV-I 0 W/m 2,9 C -1,2 C 19,3 km/h (3 Bft) 100,00 %
30.10.2017 19:32 4,7 C 8,9 C 88 % 1025,1 hPa 0,0 l/m 13,0 km/h (3 Bft) W-SW 244 0 min 0,000 mm 0,0 UV-I 0 W/m 2,9 C -0,2 C 17,7 km/h (3 Bft) 100,00 %
30.10.2017 19:34 4,7 C 8,9 C 88 % 1025,2 hPa 0,0 l/m 15,5 km/h (3 Bft) W-SW 244 0 min 0,000 mm 0,0 UV-I 0 W/m 2,9 C -1,5 C 22,5 km/h (4 Bft) 100,00 %
30.10.2017 19:36 4,7 C 8,9 C 88 % 1025,2 hPa 0,0 l/m 16,0 km/h (3 Bft) W-SW 250 0 min 0,000 mm 0,0 UV-I 0 W/m 2,9 C -1,8 C 22,5 km/h (4 Bft) 100,00 %
30.10.2017 19:38 4,7 C 8,9 C 88 % 1025,1 hPa 0,0 l/m 16,0 km/h (3 Bft) W-NW 285 0 min 0,000 mm 0,0 UV-I 0 W/m 2,9 C -1,8 C 20,9 km/h (4 Bft) 97,87 %
30.10.2017 19:40 4,7 C 8,9 C 88 % 1025,1 hPa 0,0 l/m 14,5 km/h (3 Bft) W-SW 253 0 min 0,000 mm 0,0 UV-I 0 W/m 2,9 C -1,0 C 19,3 km/h (3 Bft) 100,00 %
30.10.2017 19:42 4,7 C 8,9 C 88 % 1025,1 hPa 0,0 l/m 13,0 km/h (3 Bft) W-SW 252 0 min 0,000 mm 0,0 UV-I 0 W/m 2,9 C -0,2 C 19,3 km/h (3 Bft) 98,11 %
30.10.2017 19:44 4,8 C 8,9 C 87 % 1025,2 hPa 0,0 l/m 14,2 km/h (3 Bft) W-SW 250 0 min 0,000 mm 0,0 UV-I 0 W/m 2,8 C -0,7 C 17,7 km/h (3 Bft) 100,00 %
30.10.2017 19:46 4,8 C 8,9 C 87 % 1025,2 hPa 0,0 l/m 15,6 km/h (3 Bft) W 260 0 min 0,000 mm 0,0 UV-I 0 W/m 2,8 C -1,5 C 19,3 km/h (3 Bft) 100,00 %
30.10.2017 19:48 4,8 C 8,9 C 87 % 1025,3 hPa 0,0 l/m 13,7 km/h (3 Bft) W 266 0 min 0,000 mm 0,0 UV-I 0 W/m 2,8 C -0,5 C 17,7 km/h (3 Bft) 100,00 %
30.10.2017 19:50 4,8 C 8,9 C 87 % 1025,3 hPa 0,0 l/m 13,6 km/h (3 Bft) W-SW 258 0 min 0,000 mm 0,0 UV-I 0 W/m 2,8 C -0,4 C 19,3 km/h (3 Bft) 98,00 %
30.10.2017 19:52 4,8 C 8,9 C 87 % 1025,3 hPa 0,0 l/m 13,6 km/h (3 Bft) W 268 0 min 0,000 mm 0,0 UV-I 0 W/m 2,8 C -0,4 C 16,1 km/h (3 Bft) 100,00 %
30.10.2017 19:54 4,8 C 8,9 C 87 % 1025,3 hPa 0,0 l/m 13,9 km/h (3 Bft) W-SW 242 0 min 0,000 mm 0,0 UV-I 0 W/m 2,8 C -0,6 C 19,3 km/h (3 Bft) 100,00 %
30.10.2017 19:56 4,8 C 8,9 C 87 % 1025,3 hPa 0,0 l/m 13,1 km/h (3 Bft) W 264 0 min 0,000 mm 0,0 UV-I 0 W/m 2,8 C -0,1 C 19,3 km/h (3 Bft) 98,00 %
30.10.2017 19:58 4,8 C 8,9 C 87 % 1025,3 hPa 0,0 l/m 12,6 km/h (3 Bft) W-SW 252 0 min 0,000 mm 0,0 UV-I 0 W/m 2,8 C 0,2 C 19,3 km/h (3 Bft) 100,00 %
30.10.2017 20:00 4,8 C 8,9 C 87 % 1025,3 hPa 0,0 l/m 12,6 km/h (3 Bft) SW 234 0 min 0,000 mm 0,0 UV-I 0 W/m 2,8 C 0,2 C 16,1 km/h (3 Bft) 98,00 %
30.10.2017 20:02 4,8 C 8,9 C 87 % 1025,3 hPa 0,0 l/m 14,7 km/h (3 Bft) W-SW 257 0 min 0,026 mm 0,0 UV-I 0 W/m 2,8 C -1,0 C 20,9 km/h (4 Bft) 100,00 %
30.10.2017 20:04 4,8 C 8,9 C 87 % 1025,4 hPa 0,0 l/m 13,8 km/h (3 Bft) W-SW 247 0 min 0,000 mm 0,0 UV-I 0 W/m 2,8 C -0,5 C 19,3 km/h (3 Bft) 100,00 %
30.10.2017 20:06 4,8 C 8,9 C 87 % 1025,3 hPa 0,0 l/m 16,1 km/h (3 Bft) W-SW 257 0 min 0,000 mm 0,0 UV-I 0 W/m 2,8 C -1,7 C 22,5 km/h (4 Bft) 100,00 %
30.10.2017 20:08 4,8 C 8,9 C 87 % 1025,4 hPa 0,0 l/m 15,4 km/h (3 Bft) W 268 0 min 0,000 mm 0,0 UV-I 0 W/m 2,8 C -1,4 C 25,7 km/h (4 Bft) 100,00 %
30.10.2017 20:10 4,8 C 8,9 C 87 % 1025,4 hPa 0,0 l/m 13,1 km/h (3 Bft) SW 229 0 min 0,000 mm 0,0 UV-I 0 W/m 2,8 C -0,1 C 19,3 km/h (3 Bft) 100,00 %
30.10.2017 20:12 4,9 C 8,9 C 87 % 1025,4 hPa 0,0 l/m 13,8 km/h (3 Bft) SW 236 0 min 0,000 mm 0,0 UV-I 0 W/m 2,9 C -0,4 C 17,7 km/h (3 Bft) 98,11 %
30.10.2017 20:14 4,9 C 8,9 C 87 % 1025,4 hPa 0,0 l/m 14,9 km/h (3 Bft) W 274 0 min 0,000 mm 0,0 UV-I 0 W/m 2,9 C -1,0 C 20,9 km/h (4 Bft) 100,00 %
30.10.2017 20:16 4,9 C 8,9 C 86 % 1025,4 hPa 0,0 l/m 12,9 km/h (3 Bft) W-SW 252 0 min 0,000 mm 0,0 UV-I 0 W/m 2,8 C 0,1 C 17,7 km/h (3 Bft) 100,00 %
30.10.2017 20:18 4,9 C 8,9 C 86 % 1025,5 hPa 0,0 l/m 12,6 km/h (3 Bft) SW 229 0 min 0,000 mm 0,0 UV-I 0 W/m 2,8 C 0,3 C 19,3 km/h (3 Bft) 95,12 %
30.10.2017 20:20 4,9 C 8,9 C 86 % 1025,5 hPa 0,0 l/m 17,2 km/h (3 Bft) W 264 0 min 0,000 mm 0,0 UV-I 0 W/m 2,8 C -2,1 C 27,4 km/h (4 Bft) 100,00 %
30.10.2017 20:22 5,0 C 8,9 C 85 % 1025,5 hPa 0,0 l/m 17,3 km/h (3 Bft) W-SW 257 0 min 0,000 mm 0,0 UV-I 0 W/m 2,7 C -2,0 C 27,4 km/h (4 Bft) 100,00 %
30.10.2017 20:24 5,0 C 8,9 C 85 % 1025,5 hPa 0,0 l/m 14,7 km/h (3 Bft) W 261 0 min 0,000 mm 0,0 UV-I 0 W/m 2,7 C -0,8 C 20,9 km/h (4 Bft) 98,21 %
30.10.2017 20:26 5,1 C 8,3 C 84 % 1025,5 hPa 0,0 l/m 14,5 km/h (3 Bft) W-SW 238 0 min 0,000 mm 0,0 UV-I 0 W/m 2,6 C -0,5 C 20,9 km/h (4 Bft) 100,00 %
30.10.2017 20:28 5,1 C 8,3 C 84 % 1025,6 hPa 0,0 l/m 12,3 km/h (3 Bft) W-SW 252 0 min 0,000 mm 0,0 UV-I 0 W/m 2,6 C 0,7 C 17,7 km/h (3 Bft) 98,00 %
30.10.2017 20:30 5,1 C 8,3 C 84 % 1025,6 hPa 0,0 l/m 17,1 km/h (3 Bft) W-SW 250 0 min 0,000 mm 0,0 UV-I 0 W/m 2,6 C -1,8 C 27,4 km/h (4 Bft) 97,37 %
30.10.2017 20:32 5,1 C 8,3 C 83 % 1025,6 hPa 0,0 l/m 14,8 km/h (3 Bft) W-NW 286 0 min 0,000 mm 0,0 UV-I 0 W/m 2,5 C -0,7 C 20,9 km/h (4 Bft) 94,34 %
30.10.2017 20:34 5,1 C 8,3 C 83 % 1025,7 hPa 0,0 l/m 13,1 km/h (3 Bft) W-NW 303 0 min 0,000 mm 0,0 UV-I 0 W/m 2,5 C 0,2 C 17,7 km/h (3 Bft) 94,00 %
30.10.2017 20:36 5,1 C 8,3 C 83 % 1025,7 hPa 0,0 l/m 14,8 km/h (3 Bft) W 264 0 min 0,000 mm 0,0 UV-I 0 W/m 2,5 C -0,7 C 22,5 km/h (4 Bft) 92,68 %
30.10.2017 20:38 5,1 C 8,3 C 82 % 1025,6 hPa 0,0 l/m 15,2 km/h (3 Bft) W-SW 246 0 min 0,000 mm 0,0 UV-I 0 W/m 2,3 C -0,9 C 22,5 km/h (4 Bft) 95,45 %
30.10.2017 20:40 5,1 C 8,3 C 82 % 1025,7 hPa 0,0 l/m 13,5 km/h (3 Bft) W-NW 290 0 min 0,000 mm 0,0 UV-I 0 W/m 2,3 C -0,0 C 20,9 km/h (4 Bft) 94,00 %
30.10.2017 20:42 5,1 C 8,3 C 82 % 1025,7 hPa 0,0 l/m 20,0 km/h (4 Bft) W-SW 256 0 min 0,000 mm 0,0 UV-I 0 W/m 2,3 C -3,0 C 25,7 km/h (4 Bft) 95,45 %
30.10.2017 20:44 5,1 C 8,3 C 82 % 1025,8 hPa 0,0 l/m 17,0 km/h (3 Bft) W-SW 251 0 min 0,000 mm 0,0 UV-I 0 W/m 2,3 C -1,8 C 27,4 km/h (4 Bft) 94,34 %
30.10.2017 20:46 5,1 C 8,3 C 81 % 1025,8 hPa 0,0 l/m 18,6 km/h (3 Bft) W 277 0 min 0,000 mm 0,0 UV-I 0 W/m 2,1 C -2,5 C 24,1 km/h (4 Bft) 94,87 %
30.10.2017 20:48 5,1 C 8,3 C 82 % 1025,8 hPa 0,0 l/m 14,0 km/h (3 Bft) W 259 0 min 0,000 mm 0,0 UV-I 0 W/m 2,3 C -0,3 C 24,1 km/h (4 Bft) 94,74 %
30.10.2017 20:50 5,1 C 8,3 C 82 % 1025,8 hPa 0,0 l/m 15,1 km/h (3 Bft) W-SW 241 0 min 0,000 mm 0,0 UV-I 0 W/m 2,3 C -0,9 C 22,5 km/h (4 Bft) 94,92 %
30.10.2017 20:52 5,1 C 8,3 C 82 % 1025,8 hPa 0,0 l/m 15,0 km/h (3 Bft) W 265 0 min 0,000 mm 0,0 UV-I 0 W/m 2,3 C -0,8 C 19,3 km/h (3 Bft) 94,23 %
30.10.2017 20:54 5,0 C 8,3 C 82 % 1025,8 hPa 0,0 l/m 17,1 km/h (3 Bft) SW 236 0 min 0,000 mm 0,0 UV-I 0 W/m 2,2 C -1,9 C 25,7 km/h (4 Bft) 92,31 %
30.10.2017 20:56 5,0 C 8,3 C 82 % 1025,8 hPa 0,0 l/m 11,1 km/h (2 Bft) W-SW 257 0 min 0,000 mm 0,0 UV-I 0 W/m 2,2 C 1,3 C 16,1 km/h (3 Bft) 93,18 %
30.10.2017 20:58 4,9 C 8,3 C 82 % 1025,9 hPa 0,0 l/m 11,4 km/h (2 Bft) W-SW 254 0 min 0,000 mm 0,0 UV-I 0 W/m 2,1 C 1,0 C 17,7 km/h (3 Bft) 96,43 %
30.10.2017 21:00 4,9 C 8,3 C 82 % 1025,9 hPa 0,0 l/m 12,3 km/h (3 Bft) W 269 0 min 0,025 mm 0,0 UV-I 0 W/m 2,1 C 0,5 C 16,1 km/h (3 Bft) 94,00 %
30.10.2017 21:02 4,8 C 8,3 C 82 % 1026,0 hPa 0,0 l/m 12,9 km/h (3 Bft) W-SW 244 0 min 0,000 mm 0,0 UV-I 0 W/m 2,0 C -0,0 C 17,7 km/h (3 Bft) 92,68 %
30.10.2017 21:04 4,8 C 8,3 C 82 % 1026,0 hPa 0,0 l/m 12,7 km/h (3 Bft) W-SW 251 0 min 0,000 mm 0,0 UV-I 0 W/m 2,0 C 0,1 C 19,3 km/h (3 Bft) 95,74 %
30.10.2017 21:06 4,8 C 8,3 C 82 % 1026,0 hPa 0,0 l/m 13,7 km/h (3 Bft) SW 234 0 min 0,000 mm 0,0 UV-I 0 W/m 2,0 C -0,5 C 22,5 km/h (4 Bft) 92,00 %
30.10.2017 21:08 4,7 C 8,3 C 83 % 1026,0 hPa 0,0 l/m 13,8 km/h (3 Bft) W-SW 254 0 min 0,000 mm 0,0 UV-I 0 W/m 2,1 C -0,6 C 17,7 km/h (3 Bft) 97,56 %
30.10.2017 21:10 4,8 C 8,3 C 83 % 1026,1 hPa 0,0 l/m 12,9 km/h (3 Bft) W-SW 253 0 min 0,000 mm 0,0 UV-I 0 W/m 2,2 C -0,0 C 19,3 km/h (3 Bft) 98,00 %
30.10.2017 21:12 4,7 C 8,3 C 83 % 1026,0 hPa 0,0 l/m 9,2 km/h (2 Bft) W-SW 246 0 min 0,000 mm 0,0 UV-I 0 W/m 2,1 C 2,3 C 14,5 km/h (3 Bft) 97,73 %
30.10.2017 21:14 4,7 C 8,3 C 83 % 1026,0 hPa 0,0 l/m 10,4 km/h (2 Bft) W 263 0 min 0,000 mm 0,0 UV-I 0 W/m 2,1 C 1,5 C 14,5 km/h (3 Bft) 93,62 %
30.10.2017 21:16 4,7 C 8,3 C 83 % 1026,0 hPa 0,0 l/m 10,9 km/h (2 Bft) W-SW 250 0 min 0,000 mm 0,0 UV-I 0 W/m 2,1 C 1,1 C 19,3 km/h (3 Bft) 97,87 %
30.10.2017 21:18 4,6 C 8,3 C 83 % 1026,0 hPa 0,0 l/m 10,7 km/h (2 Bft) W-SW 238 0 min 0,000 mm 0,0 UV-I 0 W/m 2,0 C 1,1 C 16,1 km/h (3 Bft) 96,23 %
30.10.2017 21:20 4,6 C 8,3 C 83 % 1026,1 hPa 0,0 l/m 11,0 km/h (2 Bft) SW 235 0 min 0,000 mm 0,0 UV-I 0 W/m 2,0 C 0,9 C 17,7 km/h (3 Bft) 97,56 %
30.10.2017 21:22 4,5 C 8,3 C 84 % 1026,1 hPa 0,0 l/m 13,3 km/h (3 Bft) W-SW 244 0 min 0,000 mm 0,0 UV-I 0 W/m 2,0 C -0,6 C 19,3 km/h (3 Bft) 97,73 %
30.10.2017 21:24 4,5 C 8,3 C 84 % 1026,1 hPa 0,0 l/m 10,1 km/h (2 Bft) W-SW 253 0 min 0,000 mm 0,0 UV-I 0 W/m 2,0 C 1,4 C 17,7 km/h (3 Bft) 96,23 %
30.10.2017 21:26 4,5 C 8,3 C 84 % 1026,1 hPa 0,0 l/m 14,4 km/h (3 Bft) W-SW 257 0 min 0,000 mm 0,0 UV-I 0 W/m 2,0 C -1,2 C 17,7 km/h (3 Bft) 97,44 %
30.10.2017 21:28 4,4 C 8,3 C 84 % 1026,1 hPa 0,0 l/m 10,8 km/h (2 Bft) SW 221 0 min 0,000 mm 0,0 UV-I 0 W/m 1,9 C 0,8 C 19,3 km/h (3 Bft) 98,00 %
30.10.2017 21:30 4,4 C 8,3 C 85 % 1026,1 hPa 0,0 l/m 9,4 km/h (2 Bft) W-SW 252 0 min 0,000 mm 0,0 UV-I 0 W/m 2,1 C 1,9 C 16,1 km/h (3 Bft) 96,15 %
30.10.2017 21:32 4,4 C 8,3 C 85 % 1026,1 hPa 0,0 l/m 11,7 km/h (2 Bft) W 266 0 min 0,000 mm 0,0 UV-I 0 W/m 2,1 C 0,3 C 16,1 km/h (3 Bft) 97,62 %
30.10.2017 21:34 4,4 C 8,3 C 85 % 1026,2 hPa 0,0 l/m 9,4 km/h (2 Bft) W 269 0 min 0,000 mm 0,0 UV-I 0 W/m 2,1 C 1,9 C 16,1 km/h (3 Bft) 100,00 %
30.10.2017 21:36 4,4 C 8,3 C 85 % 1026,2 hPa 0,0 l/m 10,8 km/h (2 Bft) W-SW 240 0 min 0,000 mm 0,0 UV-I 0 W/m 2,1 C 0,8 C 14,5 km/h (3 Bft) 100,00 %
30.10.2017 21:38 4,4 C 8,3 C 85 % 1026,2 hPa 0,0 l/m 10,3 km/h (2 Bft) W-SW 254 0 min 0,000 mm 0,0 UV-I 0 W/m 2,1 C 1,2 C 14,5 km/h (3 Bft) 96,00 %
30.10.2017 21:40 4,4 C 8,3 C 85 % 1026,2 hPa 0,0 l/m 8,6 km/h (2 Bft) SW 225 0 min 0,000 mm 0,0 UV-I 0 W/m 2,1 C 2,5 C 12,9 km/h (3 Bft) 100,00 %
30.10.2017 21:42 4,3 C 8,3 C 86 % 1026,2 hPa 0,0 l/m 9,8 km/h (2 Bft) W 264 0 min 0,000 mm 0,0 UV-I 0 W/m 2,2 C 1,4 C 14,5 km/h (3 Bft) 100,00 %
30.10.2017 21:44 4,3 C 8,3 C 86 % 1026,2 hPa 0,0 l/m 11,5 km/h (2 Bft) SW 236 0 min 0,000 mm 0,0 UV-I 0 W/m 2,2 C 0,3 C 16,1 km/h (3 Bft) 100,00 %
30.10.2017 21:46 4,3 C 8,3 C 86 % 1026,2 hPa 0,0 l/m 7,8 km/h (2 Bft) W-SW 238 0 min 0,000 mm 0,0 UV-I 0 W/m 2,2 C 3,0 C 12,9 km/h (3 Bft) 97,56 %
30.10.2017 21:48 4,3 C 8,3 C 86 % 1026,2 hPa 0,0 l/m 8,0 km/h (2 Bft) S-SW 213 0 min 0,000 mm 0,0 UV-I 0 W/m 2,2 C 2,9 C 12,9 km/h (3 Bft) 100,00 %
30.10.2017 21:50 4,2 C 8,3 C 86 % 1026,2 hPa 0,0 l/m 8,7 km/h (2 Bft) W-SW 250 0 min 0,000 mm 0,0 UV-I 0 W/m 2,1 C 2,2 C 12,9 km/h (3 Bft) 100,00 %
30.10.2017 21:52 4,2 C 8,3 C 86 % 1026,1 hPa 0,0 l/m 8,2 km/h (2 Bft) W-SW 244 0 min 0,000 mm 0,0 UV-I 0 W/m 2,1 C 2,6 C 12,9 km/h (3 Bft) 97,14 %
30.10.2017 21:54 4,1 C 8,3 C 86 % 1026,1 hPa 0,0 l/m 7,6 km/h (2 Bft) S-SW 208 0 min 0,000 mm 0,0 UV-I 0 W/m 2,0 C 3,0 C 12,9 km/h (3 Bft) 96,23 %
30.10.2017 21:56 4,1 C 8,3 C 87 % 1026,1 hPa 0,0 l/m 7,4 km/h (2 Bft) SW 233 0 min 0,000 mm 0,0 UV-I 0 W/m 2,1 C 3,2 C 11,3 km/h (2 Bft) 100,00 %
30.10.2017 21:58 4,0 C 8,3 C 87 % 1026,1 hPa 0,0 l/m 8,7 km/h (2 Bft) W-SW 242 0 min 0,000 mm 0,0 UV-I 0 W/m 2,0 C 2,0 C 14,5 km/h (3 Bft) 100,00 %
30.10.2017 22:00 4,0 C 8,3 C 87 % 1026,1 hPa 0,0 l/m 7,6 km/h (2 Bft) S-SW 209 0 min 0,000 mm 0,0 UV-I 0 W/m 2,0 C 2,9 C 12,9 km/h (3 Bft) 100,00 %
30.10.2017 22:02 3,9 C 8,3 C 87 % 1026,2 hPa 0,0 l/m 8,4 km/h (2 Bft) W 262 0 min 0,026 mm 0,0 UV-I 0 W/m 1,9 C 2,1 C 12,9 km/h (3 Bft) 100,00 %
30.10.2017 22:04 3,9 C 8,3 C 87 % 1026,2 hPa 0,0 l/m 9,1 km/h (2 Bft) W-SW 242 0 min 0,000 mm 0,0 UV-I 0 W/m 1,9 C 1,5 C 14,5 km/h (3 Bft) 97,87 %
30.10.2017 22:06 3,8 C 8,3 C 87 % 1026,2 hPa 0,0 l/m 9,3 km/h (2 Bft) W-SW 240 0 min 0,000 mm 0,0 UV-I 0 W/m 1,8 C 1,3 C 14,5 km/h (3 Bft) 100,00 %
30.10.2017 22:08 3,8 C 8,3 C 87 % 1026,1 hPa 0,0 l/m 7,9 km/h (2 Bft) S-SW 192 0 min 0,000 mm 0,0 UV-I 0 W/m 1,8 C 2,4 C 14,5 km/h (3 Bft) 97,44 %
30.10.2017 22:10 3,8 C 8,3 C 88 % 1026,2 hPa 0,0 l/m 10,1 km/h (2 Bft) SW 229 0 min 0,000 mm 0,0 UV-I 0 W/m 2,0 C 0,7 C 14,5 km/h (3 Bft) 100,00 %
30.10.2017 22:12 3,7 C 8,3 C 88 % 1026,2 hPa 0,0 l/m 8,5 km/h (2 Bft) SW 224 0 min 0,000 mm 0,0 UV-I 0 W/m 1,9 C 1,8 C 14,5 km/h (3 Bft) 98,00 %
30.10.2017 22:14 3,7 C 8,3 C 88 % 1026,1 hPa 0,0 l/m 9,8 km/h (2 Bft) SW 227 0 min 0,000 mm 0,0 UV-I 0 W/m 1,9 C 0,8 C 16,1 km/h (3 Bft) 100,00 %
30.10.2017 22:16 3,7 C 8,3 C 88 % 1026,2 hPa 0,0 l/m 10,4 km/h (2 Bft) SW 222 0 min 0,000 mm 0,0 UV-I 0 W/m 1,9 C 0,3 C 14,5 km/h (3 Bft) 100,00 %
30.10.2017 22:18 3,6 C 8,3 C 89 % 1026,2 hPa 0,0 l/m 9,7 km/h (2 Bft) W-SW 245 0 min 0,000 mm 0,0 UV-I 0 W/m 2,0 C 0,8 C 14,5 km/h (3 Bft) 97,87 %
30.10.2017 22:20 3,6 C 8,3 C 89 % 1026,1 hPa 0,0 l/m 10,4 km/h (2 Bft) SW 227 0 min 0,000 mm 0,0 UV-I 0 W/m 2,0 C 0,2 C 14,5 km/h (3 Bft) 100,00 %
30.10.2017 22:22 3,6 C 8,3 C 89 % 1026,1 hPa 0,0 l/m 11,8 km/h (2 Bft) SW 233 0 min 0,000 mm 0,0 UV-I 0 W/m 2,0 C -0,7 C 16,1 km/h (3 Bft) 100,00 %
30.10.2017 22:24 3,6 C 8,3 C 89 % 1026,1 hPa 0,0 l/m 11,1 km/h (2 Bft) W-SW 250 0 min 0,000 mm 0,0 UV-I 0 W/m 2,0 C -0,3 C 17,7 km/h (3 Bft) 98,11 %
30.10.2017 22:26 3,6 C 8,3 C 89 % 1026,1 hPa 0,0 l/m 10,3 km/h (2 Bft) SW 221 0 min 0,000 mm 0,0 UV-I 0 W/m 2,0 C 0,3 C 14,5 km/h (3 Bft) 100,00 %
30.10.2017 22:28 3,6 C 8,3 C 89 % 1026,1 hPa 0,0 l/m 9,3 km/h (2 Bft) SW 225 0 min 0,000 mm 0,0 UV-I 0 W/m 2,0 C 1,1 C 12,9 km/h (3 Bft) 100,00 %
30.10.2017 22:30 3,6 C 8,3 C 89 % 1026,2 hPa 0,0 l/m 10,7 km/h (2 Bft) SW 234 0 min 0,000 mm 0,0 UV-I 0 W/m 2,0 C 0,0 C 14,5 km/h (3 Bft) 100,00 %
30.10.2017 22:32 3,6 C 8,3 C 89 % 1026,1 hPa 0,0 l/m 9,5 km/h (2 Bft) SW 234 0 min 0,000 mm 0,0 UV-I 0 W/m 2,0 C 0,9 C 14,5 km/h (3 Bft) 100,00 %
30.10.2017 22:34 3,5 C 8,3 C 89 % 1026,1 hPa 0,0 l/m 10,1 km/h (2 Bft) SW 232 0 min 0,000 mm 0,0 UV-I 0 W/m 1,9 C 0,3 C 14,5 km/h (3 Bft) 100,00 %
30.10.2017 22:36 3,5 C 8,3 C 90 % 1026,2 hPa 0,0 l/m 8,1 km/h (2 Bft) SW 235 0 min 0,000 mm 0,0 UV-I 0 W/m 2,0 C 1,9 C 12,9 km/h (3 Bft) 98,21 %
30.10.2017 22:38 3,5 C 8,3 C 90 % 1026,2 hPa 0,0 l/m 7,7 km/h (2 Bft) SW 236 0 min 0,000 mm 0,0 UV-I 0 W/m 2,0 C 2,3 C 11,3 km/h (2 Bft) 100,00 %
30.10.2017 22:40 3,5 C 8,3 C 90 % 1026,1 hPa 0,0 l/m 8,4 km/h (2 Bft) SW 232 0 min 0,000 mm 0,0 UV-I 0 W/m 2,0 C 1,7 C 12,9 km/h (3 Bft) 100,00 %
30.10.2017 22:42 3,5 C 8,3 C 90 % 1026,2 hPa 0,0 l/m 8,0 km/h (2 Bft) SW 225 0 min 0,000 mm 0,0 UV-I 0 W/m 2,0 C 2,0 C 14,5 km/h (3 Bft) 100,00 %
30.10.2017 22:44 3,4 C 8,3 C 90 % 1026,2 hPa 0,0 l/m 9,2 km/h (2 Bft) W-SW 257 0 min 0,000 mm 0,0 UV-I 0 W/m 1,9 C 0,9 C 14,5 km/h (3 Bft) 98,11 %
30.10.2017 22:46 3,4 C 8,3 C 90 % 1026,2 hPa 0,0 l/m 7,7 km/h (2 Bft) W 267 0 min 0,000 mm 0,0 UV-I 0 W/m 1,9 C 2,2 C 12,9 km/h (3 Bft) 96,00 %
30.10.2017 22:48 3,4 C 8,3 C 90 % 1026,2 hPa 0,0 l/m 9,3 km/h (2 Bft) W-SW 244 0 min 0,000 mm 0,0 UV-I 0 W/m 1,9 C 0,8 C 14,5 km/h (3 Bft) 97,87 %
30.10.2017 22:50 3,4 C 8,3 C 90 % 1026,1 hPa 0,0 l/m 11,8 km/h (2 Bft) SW 225 0 min 0,000 mm 0,0 UV-I 0 W/m 1,9 C -1,0 C 17,7 km/h (3 Bft) 95,24 %
30.10.2017 22:52 3,5 C 8,3 C 90 % 1026,2 hPa 0,0 l/m 9,7 km/h (2 Bft) W-SW 246 0 min 0,000 mm 0,0 UV-I 0 W/m 2,0 C 0,6 C 12,9 km/h (3 Bft) 96,23 %
30.10.2017 22:54 3,5 C 8,3 C 90 % 1026,2 hPa 0,0 l/m 9,6 km/h (2 Bft) SW 226 0 min 0,000 mm 0,0 UV-I 0 W/m 2,0 C 0,7 C 12,9 km/h (3 Bft) 100,00 %
30.10.2017 22:56 3,5 C 8,3 C 90 % 1026,2 hPa 0,0 l/m 9,0 km/h (2 Bft) W-SW 250 0 min 0,000 mm 0,0 UV-I 0 W/m 2,0 C 1,2 C 11,3 km/h (2 Bft) 97,73 %
30.10.2017 22:58 3,5 C 8,3 C 90 % 1026,2 hPa 0,0 l/m 10,1 km/h (2 Bft) SW 232 0 min 0,000 mm 0,0 UV-I 0 W/m 2,0 C 0,3 C 14,5 km/h (3 Bft) 95,12 %
30.10.2017 23:00 3,5 C 8,3 C 90 % 1026,2 hPa 0,0 l/m 10,1 km/h (2 Bft) W-SW 243 0 min 0,000 mm 0,0 UV-I 0 W/m 2,0 C 0,3 C 12,9 km/h (3 Bft) 96,23 %
30.10.2017 23:02 3,5 C 8,3 C 90 % 1026,2 hPa 0,0 l/m 7,3 km/h (2 Bft) SW 234 0 min 0,000 mm 0,0 UV-I 0 W/m 2,0 C 2,7 C 12,9 km/h (3 Bft) 98,21 %
30.10.2017 23:04 3,5 C 8,3 C 90 % 1026,2 hPa 0,0 l/m 9,3 km/h (2 Bft) SW 224 0 min 0,000 mm 0,0 UV-I 0 W/m 2,0 C 1,0 C 12,9 km/h (3 Bft) 94,29 %
30.10.2017 23:06 3,5 C 8,3 C 90 % 1026,2 hPa 0,0 l/m 10,3 km/h (2 Bft) S-SW 205 0 min 0,000 mm 0,0 UV-I 0 W/m 2,0 C 0,2 C 14,5 km/h (3 Bft) 98,31 %
30.10.2017 23:08 3,5 C 8,3 C 90 % 1026,1 hPa 0,0 l/m 10,3 km/h (2 Bft) SW 220 0 min 0,000 mm 0,0 UV-I 0 W/m 2,0 C 0,2 C 14,5 km/h (3 Bft) 97,73 %
30.10.2017 23:10 3,4 C 8,3 C 90 % 1026,1 hPa 0,0 l/m 10,8 km/h (2 Bft) SW 232 0 min 0,000 mm 0,0 UV-I 0 W/m 1,9 C -0,3 C 14,5 km/h (3 Bft) 97,56 %
30.10.2017 23:12 3,4 C 8,3 C 90 % 1026,1 hPa 0,0 l/m 7,9 km/h (2 Bft) SW 233 0 min 0,000 mm 0,0 UV-I 0 W/m 1,9 C 2,0 C 9,7 km/h (2 Bft) 96,23 %
30.10.2017 23:14 3,4 C 8,3 C 90 % 1026,2 hPa 0,0 l/m 8,6 km/h (2 Bft) W-SW 253 0 min 0,000 mm 0,0 UV-I 0 W/m 1,9 C 1,4 C 11,3 km/h (2 Bft) 97,56 %
30.10.2017 23:16 3,4 C 8,3 C 90 % 1026,2 hPa 0,0 l/m 7,7 km/h (2 Bft) SW 234 0 min 0,000 mm 0,0 UV-I 0 W/m 1,9 C 2,2 C 12,9 km/h (3 Bft) 98,00 %
30.10.2017 23:18 3,4 C 8,3 C 90 % 1026,2 hPa 0,0 l/m 8,7 km/h (2 Bft) W-SW 246 0 min 0,000 mm 0,0 UV-I 0 W/m 1,9 C 1,3 C 12,9 km/h (3 Bft) 98,00 %
30.10.2017 23:20 3,4 C 8,3 C 90 % 1026,2 hPa 0,0 l/m 7,9 km/h (2 Bft) W-SW 251 0 min 0,000 mm 0,0 UV-I 0 W/m 1,9 C 2,0 C 11,3 km/h (2 Bft) 97,56 %
30.10.2017 23:22 3,4 C 8,3 C 90 % 1026,2 hPa 0,0 l/m 7,9 km/h (2 Bft) W-SW 238 0 min 0,000 mm 0,0 UV-I 0 W/m 1,9 C 2,0 C 12,9 km/h (3 Bft) 100,00 %
30.10.2017 23:24 3,3 C 8,3 C 90 % 1026,2 hPa 0,0 l/m 8,4 km/h (2 Bft) SW 232 0 min 0,000 mm 0,0 UV-I 0 W/m 1,8 C 1,5 C 11,3 km/h (2 Bft) 100,00 %
30.10.2017 23:26 3,3 C 8,3 C 90 % 1026,2 hPa 0,0 l/m 8,2 km/h (2 Bft) W-SW 240 0 min 0,000 mm 0,0 UV-I 0 W/m 1,8 C 1,6 C 11,3 km/h (2 Bft) 100,00 %
30.10.2017 23:28 3,3 C 8,3 C 90 % 1026,2 hPa 0,0 l/m 9,9 km/h (2 Bft) SW 215 0 min 0,000 mm 0,0 UV-I 0 W/m 1,8 C 0,3 C 14,5 km/h (3 Bft) 100,00 %
30.10.2017 23:30 3,3 C 8,3 C 90 % 1026,2 hPa 0,0 l/m 8,8 km/h (2 Bft) SW 227 0 min 0,000 mm 0,0 UV-I 0 W/m 1,8 C 1,1 C 12,9 km/h (3 Bft) 97,87 %
30.10.2017 23:32 3,3 C 8,3 C 90 % 1026,2 hPa 0,0 l/m 7,8 km/h (2 Bft) SW 227 0 min 0,000 mm 0,0 UV-I 0 W/m 1,8 C 2,0 C 12,9 km/h (3 Bft) 100,00 %
30.10.2017 23:34 3,3 C 8,3 C 90 % 1026,2 hPa 0,0 l/m 7,8 km/h (2 Bft) SW 230 0 min 0,000 mm 0,0 UV-I 0 W/m 1,8 C 2,0 C 11,3 km/h (2 Bft) 100,00 %
30.10.2017 23:36 3,3 C 8,3 C 90 % 1026,3 hPa 0,0 l/m 10,9 km/h (2 Bft) W-SW 245 0 min 0,000 mm 0,0 UV-I 0 W/m 1,8 C -0,5 C 14,5 km/h (3 Bft) 100,00 %
30.10.2017 23:38 3,3 C 8,3 C 91 % 1026,2 hPa 0,0 l/m 10,5 km/h (2 Bft) SW 225 0 min 0,000 mm 0,0 UV-I 0 W/m 2,0 C -0,2 C 19,3 km/h (3 Bft) 100,00 %
30.10.2017 23:40 3,3 C 8,3 C 90 % 1026,2 hPa 0,0 l/m 9,2 km/h (2 Bft) SW 224 0 min 0,000 mm 0,0 UV-I 0 W/m 1,8 C 0,8 C 14,5 km/h (3 Bft) 100,00 %
30.10.2017 23:42 3,3 C 8,3 C 91 % 1026,2 hPa 0,0 l/m 9,9 km/h (2 Bft) W-SW 257 0 min 0,000 mm 0,0 UV-I 0 W/m 2,0 C 0,3 C 14,5 km/h (3 Bft) 98,00 %
30.10.2017 23:44 3,3 C 8,3 C 91 % 1026,2 hPa 0,0 l/m 10,8 km/h (2 Bft) SW 236 0 min 0,000 mm 0,0 UV-I 0 W/m 2,0 C -0,4 C 16,1 km/h (3 Bft) 100,00 %
30.10.2017 23:46 3,3 C 8,3 C 91 % 1026,2 hPa 0,0 l/m 9,5 km/h (2 Bft) W-SW 238 0 min 0,000 mm 0,0 UV-I 0 W/m 2,0 C 0,6 C 12,9 km/h (3 Bft) 98,21 %
30.10.2017 23:48 3,3 C 8,3 C 90 % 1026,2 hPa 0,0 l/m 10,9 km/h (2 Bft) SW 225 0 min 0,000 mm 0,0 UV-I 0 W/m 1,8 C -0,5 C 14,5 km/h (3 Bft) 100,00 %
30.10.2017 23:50 3,3 C 8,3 C 90 % 1026,2 hPa 0,0 l/m 9,6 km/h (2 Bft) W-SW 240 0 min 0,000 mm 0,0 UV-I 0 W/m 1,8 C 0,5 C 16,1 km/h (3 Bft) 100,00 %
30.10.2017 23:52 3,3 C 8,3 C 90 % 1026,2 hPa 0,0 l/m 7,5 km/h (2 Bft) SW 218 0 min 0,000 mm 0,0 UV-I 0 W/m 1,8 C 2,3 C 12,9 km/h (3 Bft) 100,00 %
30.10.2017 23:54 3,3 C 8,3 C 90 % 1026,2 hPa 0,0 l/m 7,7 km/h (2 Bft) W-SW 241 0 min 0,000 mm 0,0 UV-I 0 W/m 1,8 C 2,1 C 9,7 km/h (2 Bft) 100,00 %
30.10.2017 23:56 3,3 C 8,3 C 90 % 1026,3 hPa 0,0 l/m 8,6 km/h (2 Bft) SW 215 0 min 0,000 mm 0,0 UV-I 0 W/m 1,8 C 1,3 C 11,3 km/h (2 Bft) 97,73 %
30.10.2017 23:58 3,2 C 8,3 C 90 % 1026,2 hPa 0,0 l/m 9,5 km/h (2 Bft) SW 232 0 min 0,000 mm 0,0 UV-I 0 W/m 1,7 C 0,5 C 12,9 km/h (3 Bft) 100,00 %
_ Min-Zeit 23:58 20:26 12:20 00:00 - 18:12 - - - - - - 23:58 06:26 18:12 04:54
Minimum _ 3,2 C 8,3 C 72 % 1014,3 hPa - 3,0 km/h (1 Bft) - - - - - - 1,7 C -5,2 C 4,8 km/h (1 Bft) 91,30 %
_ Max-Zeit 13:40 00:00 18:08 23:36 09:56 09:56 - - 08:44 12:00 11:42 11:44 13:38 16:36 00:18 00:00
Maximum _ 8,0 C 8,9 C 92 % 1026,3 hPa 0,2 l/m 31,8 km/h
W-SW (5 Bft)
- - 2 min 0,178 mm 1,5 UV-I 566 W/m 3,7 C 4,7 C 53,1 km/h
W-SW (7 Bft)
100,00 %
Durchschnitt _ 5,6 C 8,8 C 82 % 1020,5 hPa #1,2 l/m 17,4 km/h (3 Bft) W-SW - #3:08 h #1,372 mm 0,9 UV-I 157 W/m 2,7 C -1,0 C 27,2 km/h (4 Bft) 97,97 %